Date StartTime U_cm/s V_cm/s W_cm/s Ustd_cm/s Vstd_cm/s Wstd_cm/s Uvar_(cm/s)^2 Vvar_(cm/s)^2 Wvar_(cm/s)^2 KE_(m/s)^2 TurbulentKE_(m/s)^2 HorizWindSpeed_cm/s FrictionSpeec_cm/s DragCoef SpeedOfSound_m/s SonicTemperature_C Pressure_mb 
12/30/2013  00:00:00     -104.824      -58.816       -5.445       21.275       21.939       16.000      452.630      481.298      255.995        0.783        0.059      120.197       14.356        0.014      330.757       -1.667      869.484
12/30/2013  00:01:00     -110.870      -33.746       -7.746       18.215       20.830       12.288      331.804      433.895      150.983        0.720        0.046      115.891        9.590        0.007      330.773       -1.641      869.494
12/30/2013  00:02:00     -111.794      -47.171      -13.326       24.955       21.023       16.146      622.729      441.949      260.690        0.811        0.066      121.339       12.912        0.011      330.757       -1.666      869.495
12/30/2013  00:03:00      -71.639      -42.359        2.370       38.834       27.161       19.907     1508.077      737.716      396.286        0.479        0.132       83.226       21.088        0.064      330.768       -1.651      869.487
12/30/2013  00:04:00     -102.138      -24.005       -6.198       19.084       15.734       12.137      364.196      247.554      147.296        0.590        0.038      104.921        9.414        0.008      330.821       -1.560      869.469
12/30/2013  00:05:00      -81.116      -32.357       -3.301       23.348       14.141       11.309      545.138      199.956      127.896        0.426        0.044       87.331       10.218        0.014      330.809       -1.582      869.452
12/30/2013  00:06:00      -77.093      -39.008       -9.535       12.156       13.792        9.145      147.777      190.218       83.627        0.399        0.021       86.400        8.317        0.009      330.883       -1.457      869.430
12/30/2013  00:07:00      -57.141      -18.782       -5.598       10.987       12.389        5.983      120.704      153.490       35.802        0.198        0.015       60.149        3.404        0.003      330.908       -1.417      869.424
12/30/2013  00:08:00      -57.172      -29.801       -6.747        7.708       10.500        6.843       59.416      110.252       46.821        0.221        0.011       64.473        4.925        0.006      330.918       -1.400      869.418
12/30/2013  00:09:00      -63.180      -32.583       -8.212        8.210        6.597        6.800       67.402       43.521       46.239        0.264        0.008       71.086        2.810        0.002      330.971       -1.316      869.420
12/30/2013  00:10:00      -73.992      -34.004       -9.312       12.291        8.366        6.348      151.059       69.982       40.296        0.349        0.013       81.431        2.509        0.001      330.917       -1.403      869.419
12/30/2013  00:11:00      -97.558      -33.396       -8.672        9.028        7.666        8.833       81.498       58.770       78.017        0.546        0.011      103.115        3.353        0.001      330.929       -1.384      869.424
12/30/2013  00:12:00      -92.105      -41.183      -14.683        9.665        6.821        5.514       93.421       46.526       30.408        0.528        0.009      100.893        2.534        0.001      330.900       -1.431      869.427
12/30/2013  00:13:00      -77.432      -41.893      -10.846        8.377       10.453        6.308       70.170      109.275       39.789        0.404        0.011       88.038        2.682        0.001      330.899       -1.431      869.435
12/30/2013  00:14:00      -60.199      -31.940       -7.738        9.118        8.954        5.107       83.130       80.173       26.081        0.245        0.009       68.148        2.052        0.001      330.951       -1.346      869.435
12/30/2013  00:15:00      -58.895      -19.701      -10.815        6.694        8.860        6.326       44.805       78.498       40.022        0.207        0.008       62.102        4.066        0.004      330.919       -1.398      869.433
12/30/2013  00:16:00      -58.910      -13.450       -7.287        7.437        8.723        8.293       55.306       76.096       68.766        0.195        0.010       60.426        2.214        0.001      330.923       -1.392      869.427
12/30/2013  00:17:00      -56.077      -26.593       -7.977        8.843        6.611        5.705       78.194       43.704       32.545        0.203        0.008       62.063        3.319        0.003      330.869       -1.482      869.417
12/30/2013  00:18:00      -52.155      -26.237       -6.172        7.915        6.837        6.778       62.652       46.738       45.946        0.180        0.008       58.382        2.557        0.002      330.843       -1.525      869.403
12/30/2013  00:19:00      -53.476      -20.342       -9.164        7.517        5.879        5.258       56.508       34.568       27.644        0.174        0.006       57.215        2.960        0.003      330.847       -1.517      869.387
12/30/2013  00:20:00      -47.663      -22.658       -9.827        8.263        5.369        6.198       68.282       28.823       38.415        0.151        0.007       52.775        1.688        0.001      330.873       -1.476      869.370
12/30/2013  00:21:00      -40.411      -19.186       -5.041        8.538        7.480        5.642       72.905       55.946       31.828        0.109        0.008       44.735        1.549        0.001      330.852       -1.508      869.365
12/30/2013  00:22:00      -49.211      -22.204       -7.272        7.321        5.239        4.389       53.593       27.450       19.259        0.153        0.005       53.988        1.525        0.001      330.874       -1.476      869.359
12/30/2013  00:23:00      -61.935      -24.593       -7.825        7.247        6.300        4.864       52.512       39.685       23.659        0.231        0.006       66.639        3.295        0.002      330.895       -1.440      869.359
12/30/2013  00:24:00      -69.800      -28.938       -6.863        6.886       10.642        4.935       47.416      113.253       24.355        0.297        0.009       75.560        0.833        0.000      330.898       -1.433      869.357
12/30/2013  00:25:00      -61.965      -42.887       -4.474       19.025       11.074       12.985      361.969      122.644      168.614        0.318        0.033       75.359        8.366        0.012      330.852       -1.508      869.349
12/30/2013  00:26:00      -62.561      -39.733       -7.456       24.469       17.924       13.412      598.737      321.286      179.884        0.332        0.055       74.112        4.497        0.004      330.803       -1.590      869.347
12/30/2013  00:27:00      -48.616      -28.856        2.100       30.075       17.854       13.569      904.527      318.749      184.105        0.230        0.070       56.535       13.248        0.055      330.781       -1.628      869.341
12/30/2013  00:28:00      -69.545      -31.451       -5.614       22.239       16.053        8.879      494.555      257.696       78.838        0.334        0.042       76.326        5.929        0.006      330.786       -1.618      869.333
12/30/2013  00:29:00      -64.412      -44.597       -1.795       30.436       26.987       15.463      926.364      728.299      239.100        0.402        0.095       78.344       10.757        0.019      330.737       -1.699      869.334
12/30/2013  00:30:00      -83.252      -44.370        0.114       28.406       20.292       17.634      806.925      411.774      310.970        0.521        0.076       94.338       16.889        0.032      330.664       -1.818      869.327
12/30/2013  00:31:00     -112.818      -48.732        0.515       17.422       16.837       14.953      303.519      283.481      223.607        0.796        0.041      122.893       12.124        0.010      330.639       -1.859      869.314
12/30/2013  00:32:00      -94.629      -51.491       -1.863       36.275       24.637       19.579     1315.884      606.995      383.318        0.696        0.115      107.731       16.922        0.025      330.657       -1.831      869.296
12/30/2013  00:33:00      -87.954      -40.635       10.395       49.857       34.433       25.696     2485.735     1185.644      660.296        0.691        0.217       96.887       28.083        0.084      330.614       -1.900      869.274
12/30/2013  00:34:00      -82.097      -44.264        8.305       44.594       34.079       24.949     1988.601     1161.394      622.477        0.627        0.189       93.270       18.560        0.040      330.650       -1.842      869.254
12/30/2013  00:35:00      -73.278      -49.725        2.647       45.557       32.050       24.313     2075.472     1027.218      591.126        0.577        0.185       88.557       17.526        0.039      330.699       -1.760      869.238
12/30/2013  00:36:00      -57.357      -38.950        7.997       45.042       31.003       23.653     2028.825      961.183      559.443        0.421        0.177       69.332       21.372        0.095      330.714       -1.736      869.217
12/30/2013  00:37:00      -72.704      -42.839        2.451       46.786       27.630       19.570     2188.919      763.390      383.001        0.523        0.167       84.387       20.344        0.058      330.743       -1.688      869.195
12/30/2013  00:38:00      -65.783      -36.965        6.922       39.962       29.420       19.152     1596.932      865.542      366.810        0.429        0.141       75.458       15.758        0.044      330.714       -1.736      869.183
12/30/2013  00:39:00      -73.500      -63.224       -1.775       26.797       30.582       18.881      718.081      935.230      356.503        0.571        0.100       96.951       17.680        0.033      330.717       -1.732      869.169
12/30/2013  00:40:00      -67.101      -39.612        2.775       35.747       28.427       16.805     1277.824      808.117      282.402        0.422        0.118       77.921       15.427        0.039      330.689       -1.777      869.164
12/30/2013  00:41:00      -25.004      -30.968       11.761       37.801       26.824       18.314     1428.934      719.545      335.395        0.210        0.124       39.802       21.317        0.287      330.766       -1.652      869.143
12/30/2013  00:42:00      -51.342      -39.031        1.196       40.202       27.194       15.709     1616.227      739.520      246.757        0.338        0.130       64.494       14.384        0.050      330.764       -1.654      869.123
12/30/2013  00:43:00      -24.581      -17.966       12.896       29.663       24.965       19.050      879.916      623.230      362.895        0.148        0.093       30.447       17.108        0.316      330.747       -1.682      869.096
12/30/2013  00:44:00      -13.851      -17.034       11.625       38.316       25.861       15.765     1468.105      668.793      248.546        0.150        0.119       21.955       14.108        0.413      330.774       -1.637      869.067
12/30/2013  00:45:00      -58.289      -34.771        3.790       50.894       22.469       12.914     2590.200      504.878      166.764        0.394        0.163       67.872       13.747        0.041      330.733       -1.705      869.031
12/30/2013  00:46:00      -68.309      -31.324       -1.130       35.466       36.100       20.786     1257.822     1303.234      432.073        0.432        0.150       75.149       24.885        0.110      330.623       -1.886      869.008
12/30/2013  00:47:00      -77.576      -50.724        1.300       28.248       26.936       17.675      797.977      725.554      312.422        0.521        0.092       92.688       16.995        0.034      330.596       -1.929      868.992
12/30/2013  00:48:00      -78.277      -39.511       -4.865       25.614       22.856       16.468      656.092      522.384      271.203        0.458        0.072       87.683       14.265        0.026      330.565       -1.980      869.002
12/30/2013  00:49:00      -85.637      -40.518       -9.551       18.759       22.659       13.781      351.897      513.430      189.923        0.506        0.053       94.739        5.139        0.003      330.594       -1.933      869.021
12/30/2013  00:50:00      -88.974      -31.900       -7.491       15.259       18.642       10.146      232.844      347.538      102.934        0.484        0.034       94.520        6.671        0.005      330.551       -2.003      869.039
12/30/2013  00:51:00      -67.875      -23.713        1.128       29.376       15.810       10.504      862.950      249.943      110.336        0.320        0.061       71.898       10.768        0.022      330.546       -2.011      869.041
12/30/2013  00:52:00      -67.854      -17.040       -5.207       20.200       11.538       11.749      408.035      133.116      138.035        0.280        0.034       69.960       11.536        0.027      330.523       -2.051      869.036
12/30/2013  00:53:00      -83.760      -17.464       -7.600       11.567       10.618       11.773      133.797      112.734      138.609        0.388        0.019       85.561        7.817        0.008      330.553       -2.001      869.037
12/30/2013  00:54:00      -67.547      -12.966       -7.248       15.987       12.757       12.264      255.570      162.749      150.412        0.268        0.028       68.780       11.584        0.028      330.555       -1.998      869.031
12/30/2013  00:55:00      -80.060       -6.683      -10.029       19.811       12.432       11.645      392.474      154.564      135.596        0.362        0.034       80.339       10.337        0.017      330.619       -1.893      869.032
12/30/2013  00:56:00      -88.126      -18.894      -13.659       12.125       16.295       11.501      147.007      265.540      132.265        0.443        0.027       90.128        8.278        0.008      330.603       -1.919      869.026
12/30/2013  00:57:00      -70.819      -32.362      -11.860       20.045       16.050       11.904      401.798      257.604      141.710        0.350        0.040       77.863        9.553        0.015      330.533       -2.033      869.017
12/30/2013  00:58:00      -71.161      -32.768       -9.419       13.920       15.440        9.960      193.760      238.403       99.208        0.338        0.027       78.343        6.342        0.007      330.515       -2.063      869.010
12/30/2013  00:59:00      -36.415      -20.773       -0.421       27.729       17.579       16.337      768.884      309.024      266.881        0.155        0.067       41.924       16.172        0.149      330.499       -2.088      869.006
12/30/2013  01:00:00      -85.637      -19.555      -13.520       13.917       15.099       10.975      193.670      227.977      120.451        0.422        0.027       87.841        6.116        0.005      330.396       -2.258      869.007
12/30/2013  01:01:00      -72.929       -8.152      -10.634       19.563       16.613       10.611      382.710      275.992      112.587        0.313        0.039       73.383        8.342        0.013      330.418       -2.223      869.015
12/30/2013  01:02:00      -53.526      -12.045      -13.928       17.087       17.703        8.919      291.967      313.402       79.553        0.194        0.034       54.865        9.628        0.031      330.490       -2.102      869.022
12/30/2013  01:03:00      -15.596       -9.937        1.808        8.483        9.298        9.335       71.964       86.454       87.145        0.030        0.012       18.493        5.170        0.078      330.493       -2.098      869.029
12/30/2013  01:04:00       -9.912      -10.421       -3.291        6.990        7.363        4.869       48.865       54.217       23.708        0.017        0.006       14.382        2.960        0.042      330.582       -1.951      869.037
12/30/2013  01:05:00      -22.389        9.487       -2.098       13.434       20.527        7.457      180.461      421.363       55.606        0.063        0.033       24.316        5.264        0.047      330.796       -1.602      869.041
12/30/2013  01:06:00      -24.204      -12.189       -2.738       14.077       10.463        8.559      198.168      109.475       73.254        0.056        0.019       27.100        6.278        0.054      330.667       -1.815      869.056
12/30/2013  01:07:00      -34.385       21.823       -9.343       16.208       42.815       12.271      262.690     1833.164      150.578        0.200        0.112       40.725       10.433        0.066      330.803       -1.591      869.058
12/30/2013  01:08:00      -15.238        5.520        2.236       26.795       17.207        9.120      717.987      296.089       83.180        0.068        0.055       16.207        5.363        0.109      330.729       -1.711      869.054
12/30/2013  01:09:00      -19.985       14.490        5.348       18.292       24.036       16.684      334.599      577.745      278.360        0.091        0.060       24.685       14.356        0.338      330.817       -1.567      869.042
12/30/2013  01:10:00      -17.175       -2.617       -1.184       19.432        8.888        6.428      377.598       78.996       41.317        0.040        0.025       17.373        4.204        0.059      330.619       -1.891      869.028
12/30/2013  01:11:00      -19.136        2.094       -1.994       16.671       19.486       12.015      277.908      379.721      144.366        0.059        0.040       19.251       10.523        0.299      330.752       -1.672      869.020
12/30/2013  01:12:00      -28.056       15.392        0.963       19.906       24.561       15.347      396.247      603.260      235.520        0.113        0.062       32.000       16.030        0.251      330.858       -1.500      869.028
12/30/2013  01:13:00       -9.442       49.080       -5.447       22.935       30.504       14.640      526.003      930.465      214.316        0.210        0.084       49.980       13.870        0.077      331.064       -1.163      869.038
12/30/2013  01:14:00      -14.017       45.878       -0.067       25.083       26.626       12.005      629.144      708.922      144.112        0.189        0.074       47.972        9.953        0.043      331.164       -0.997      869.044
12/30/2013  01:15:00      -16.382       44.802       -3.708       21.476       34.851       13.683      461.226     1214.594      187.212        0.208        0.093       47.704       15.568        0.107      331.117       -1.075      869.051
12/30/2013  01:16:00       -2.711       53.920       -2.652       27.058       28.722       12.370      732.153      824.943      153.009        0.232        0.086       53.988       11.875        0.048      331.182       -0.967      869.052
12/30/2013  01:17:00       13.213       71.157       -7.822       25.321       29.225       15.628      641.143      854.125      244.234        0.352        0.087       72.373       15.648        0.047      331.378       -0.645      869.052
12/30/2013  01:18:00        0.732       39.820        3.225       25.245       29.563       18.152      637.300      873.976      329.509        0.172        0.092       39.827       15.338        0.148      331.085       -1.126      869.065
12/30/2013  01:19:00       -1.364        1.018        5.800       20.647       19.338        9.827      426.282      373.939       96.578        0.047        0.045        1.702       12.276       52.043      331.122       -1.067      869.075
12/30/2013  01:20:00      -15.875      -16.134       -0.965       22.735       23.594        9.461      516.866      556.671       89.508        0.084        0.058       22.635        2.264        0.010      330.884       -1.457      869.087
12/30/2013  01:21:00      -19.775        5.809       -1.757       23.252       13.885       12.783      540.669      192.797      163.406        0.066        0.045       20.611        7.987        0.150      330.750       -1.676      869.091
12/30/2013  01:22:00      -22.850       -0.844        7.108       12.335       10.030        8.920      152.156      100.599       79.567        0.045        0.017       22.865        4.853        0.045      330.723       -1.722      869.091
12/30/2013  01:23:00      -21.821       -4.948        2.595       11.491       10.823        9.043      132.047      117.129       81.780        0.042        0.017       22.375        6.030        0.073      330.644       -1.852      869.092
12/30/2013  01:24:00      -51.192      -13.140      -10.853       11.681        9.491        8.054      136.454       90.087       64.860        0.160        0.015       52.852        5.794        0.012      330.437       -2.190      869.090
12/30/2013  01:25:00      -77.333      -21.024       -8.712       16.981       11.186        8.558      288.354      125.127       73.246        0.349        0.024       80.140        4.249        0.003      330.322       -2.381      869.087
12/30/2013  01:26:00      -81.480      -17.370      -15.357       11.697       17.683       11.825      136.812      312.690      139.832        0.388        0.029       83.311        8.588        0.011      330.297       -2.419      869.074
12/30/2013  01:27:00      -52.597      -36.576       -8.089       10.426       15.583       11.321      108.695      242.827      128.163        0.232        0.024       64.064        6.633        0.011      330.278       -2.452      869.065
12/30/2013  01:28:00      -51.665      -18.980       -8.011       15.086       18.641       10.943      227.600      347.499      119.745        0.189        0.035       55.041        7.110        0.017      330.253       -2.492      869.057
12/30/2013  01:29:00      -87.218       -9.227      -15.233       14.192       17.704       12.918      201.406      313.445      166.875        0.430        0.034       87.704        8.418        0.009      330.294       -2.425      869.053
12/30/2013  01:30:00      -77.753      -15.974      -14.761       16.346       15.358       11.263      267.184      235.863      126.845        0.357        0.031       79.377       11.183        0.020      330.275       -2.456      869.058
12/30/2013  01:31:00      -69.798      -26.176       -8.426       13.499       11.703        9.671      182.215      136.963       93.522        0.302        0.021       74.545        7.224        0.009      330.364       -2.312      869.059
12/30/2013  01:32:00      -67.571      -28.734      -11.181        9.273        7.392        7.341       85.994       54.636       53.887        0.286        0.010       73.427        3.094        0.002      330.393       -2.262      869.066
12/30/2013  01:33:00      -71.569       -9.508      -10.342        8.778       12.074        8.043       77.058      145.785       64.695        0.280        0.014       72.198        5.538        0.006      330.421       -2.218      869.077
12/30/2013  01:34:00      -65.910      -15.667       -9.783        8.071        6.993        8.056       65.137       48.905       64.903        0.243        0.009       67.747        4.775        0.005      330.486       -2.110      869.090
12/30/2013  01:35:00      -64.340       -9.063       -3.652       10.450       11.566        7.369      109.193      133.765       54.301        0.227        0.015       64.975        3.473        0.003      330.465       -2.147      869.101
12/30/2013  01:36:00      -66.178      -17.168       -4.716       21.657       10.422       10.629      469.035      108.620      112.972        0.269        0.035       68.369       12.224        0.032      330.475       -2.128      869.115
12/30/2013  01:37:00      -59.957      -11.476       -3.002       21.400       13.012        9.921      457.944      169.317       98.425        0.223        0.036       61.045       11.632        0.036      330.448       -2.173      869.129
12/30/2013  01:38:00      -80.324       -6.604       -5.829       16.219       10.043       13.310      263.052      100.860      177.160        0.354        0.027       80.595        9.921        0.015      330.427       -2.206      869.140
12/30/2013  01:39:00      -80.786      -12.263       -7.984       15.636       12.086        9.407      244.478      146.083       88.494        0.361        0.024       81.711        5.551        0.005      330.515       -2.064      869.147
12/30/2013  01:40:00      -90.194      -17.973       -6.495       12.771        9.743        8.805      163.092       94.925       77.537        0.442        0.017       91.967        5.938        0.004      330.515       -2.062      869.163
12/30/2013  01:41:00      -87.356      -14.809       -7.169       12.229        9.745        9.181      149.540       94.959       84.293        0.412        0.016       88.603        4.443        0.003      330.546       -2.013      869.185
12/30/2013  01:42:00      -89.773      -15.310       -6.462       16.153       13.240       10.209      260.905      175.292      104.215        0.444        0.027       91.069        7.430        0.007      330.528       -2.041      869.201
12/30/2013  01:43:00      -91.751      -17.854       -6.182       19.502       12.436       11.053      380.309      154.660      122.169        0.472        0.033       93.472        8.011        0.007      330.455       -2.162      869.208
12/30/2013  01:44:00      -94.382      -29.296       -4.515       17.924       14.884       10.111      321.286      221.547      102.237        0.522        0.032       98.824        8.839        0.008      330.442       -2.183      869.204
12/30/2013  01:45:00      -83.761      -28.968       -1.708       19.672       14.658       10.353      386.980      214.857      107.188        0.428        0.035       88.629        9.534        0.012      330.470       -2.138      869.192
12/30/2013  01:46:00      -60.632      -26.970        3.440       19.764       16.107       13.273      390.616      259.446      176.176        0.262        0.041       66.359       12.002        0.033      330.473       -2.131      869.173
12/30/2013  01:47:00      -60.822      -29.033       -1.453       16.147       14.432       10.205      260.736      208.270      104.134        0.256        0.029       67.396        6.659        0.010      330.510       -2.072      869.152
12/30/2013  01:48:00      -46.469      -27.779        3.237       20.102       14.591       15.145      404.084      212.888      229.357        0.189        0.042       54.139       14.278        0.070      330.485       -2.112      869.140
12/30/2013  01:49:00      -60.143      -23.927       -8.029        9.403        8.374        7.385       88.422       70.132       54.535        0.223        0.011       64.728        3.488        0.003      330.543       -2.017      869.130
12/30/2013  01:50:00      -36.636      -30.343       -4.087       11.350       15.428        7.202      128.828      238.030       51.863        0.135        0.021       47.570        6.066        0.016      330.578       -1.961      869.117
12/30/2013  01:51:00      -41.633      -30.132       -0.624       14.347       13.818        7.224      205.838      190.942       52.183        0.155        0.022       51.393        5.138        0.010      330.514       -2.064      869.107
12/30/2013  01:52:00      -58.917      -32.565       -5.050       12.789       11.317        9.099      163.547      128.065       82.794        0.247        0.019       67.318        3.155        0.002      330.469       -2.139      869.097
12/30/2013  01:53:00      -63.357      -41.804       -6.448       16.410        9.766       10.092      269.296       95.373      101.857        0.313        0.023       75.906        5.849        0.006      330.443       -2.180      869.091
12/30/2013  01:54:00      -60.990      -46.481       -7.254       10.099       10.551        6.016      101.983      111.334       36.187        0.309        0.012       76.683        4.809        0.004      330.445       -2.180      869.084
12/30/2013  01:55:00      -48.549      -37.100      -10.003        5.969        7.508        7.750       35.627       56.378       60.058        0.199        0.008       61.102        2.564        0.002      330.464       -2.147      869.081
12/30/2013  01:56:00      -31.142      -43.049       -9.368       19.832        9.608       11.297      393.326       92.321      127.626        0.176        0.031       53.132       11.465        0.047      330.578       -1.960      869.083
12/30/2013  01:57:00      -31.714      -27.554        1.755       16.170       12.906       11.346      261.465      166.577      128.734        0.116        0.028       42.011        8.186        0.038      330.628       -1.879      869.076
12/30/2013  01:58:00      -43.627      -33.499       -2.997       12.085        8.719       10.450      146.040       76.025      109.202        0.168        0.017       55.005        6.796        0.015      330.567       -1.976      869.080
12/30/2013  01:59:00      -43.783      -24.071        5.794       24.041       12.163       11.336      577.983      147.933      128.495        0.169        0.043       49.964       11.911        0.057      330.442       -2.182      869.079
12/30/2013  02:00:00      -91.686      -14.357       -8.772       20.139       15.177       11.555      405.560      230.353      133.528        0.473        0.038       92.803       11.222        0.015      330.244       -2.506      869.080
12/30/2013  02:01:00     -119.777      -18.304      -12.584       21.229       11.573        9.245      450.670      133.927       85.463        0.775        0.034      121.167        7.180        0.004      330.210       -2.564      869.082
12/30/2013  02:02:00     -116.525      -14.365       -8.627       29.229       24.165       14.803      854.326      583.951      219.136        0.776        0.083      117.407       14.263        0.015      330.111       -2.726      869.083
12/30/2013  02:03:00     -124.831      -14.763       -9.589       15.727       13.364       12.288      247.341      178.599      150.995        0.823        0.029      125.701        8.573        0.005      330.059       -2.810      869.079
12/30/2013  02:04:00     -117.972      -14.968      -12.395       19.567       13.328       11.981      382.851      177.630      143.552        0.750        0.035      118.918        7.214        0.004      330.062       -2.806      869.070
12/30/2013  02:05:00     -113.204      -23.117      -11.542       20.925       15.950       14.056      437.874      254.398      197.571        0.719        0.044      115.541       10.231        0.008      330.048       -2.827      869.065
12/30/2013  02:06:00      -99.644      -33.082      -11.854       21.152       19.221       16.971      447.401      369.432      288.007        0.613        0.055      104.992       16.079        0.023      330.124       -2.705      869.066
12/30/2013  02:07:00      -86.002      -24.272       -7.622       25.343       20.278       11.779      642.285      411.186      138.754        0.462        0.060       89.362        8.740        0.010      330.131       -2.693      869.070
12/30/2013  02:08:00     -118.069      -21.592       -2.509       22.243       18.276       14.415      494.747      334.015      207.802        0.772        0.052      120.027       13.010        0.012      330.141       -2.676      869.088
12/30/2013  02:09:00      -96.630      -23.731       -1.894       29.032       16.186       17.062      842.861      261.984      291.128        0.565        0.070       99.501       17.603        0.031      330.093       -2.755      869.097
12/30/2013  02:10:00     -105.668      -23.387      -10.989       12.330       14.059       10.271      152.020      197.647      105.490        0.614        0.023      108.225        7.121        0.004      330.112       -2.725      869.098
12/30/2013  02:11:00      -81.235      -14.359       -2.995       22.035       17.669       15.582      485.536      312.193      242.788        0.393        0.052       82.494       14.504        0.031      330.103       -2.739      869.100
12/30/2013  02:12:00     -100.095      -19.135       -7.625       32.750       13.425       11.403     1072.539      180.217      130.038        0.591        0.069      101.907       15.755        0.024      330.162       -2.641      869.096
12/30/2013  02:13:00      -98.755      -18.564      -12.936       19.784       13.287       10.998      391.388      176.555      120.967        0.548        0.034      100.485        8.591        0.007      330.197       -2.584      869.099
12/30/2013  02:14:00      -85.121      -21.389       -2.431       22.463       20.504       16.332      504.589      420.432      266.721        0.445        0.060       87.767       13.393        0.023      330.206       -2.569      869.108
12/30/2013  02:15:00     -105.801      -20.975      -17.203       15.805       12.126       12.724      249.796      147.046      161.897        0.624        0.028      107.860        8.200        0.006      330.202       -2.576      869.119
12/30/2013  02:16:00      -95.730      -39.363       -1.677       18.648       14.833       13.035      347.735      220.015      169.900        0.573        0.037      103.507        7.753        0.006      330.202       -2.575      869.122
12/30/2013  02:17:00      -59.148      -39.385        1.116       32.608       22.679       20.846     1063.258      514.348      434.546        0.353        0.101       71.061       18.726        0.069      330.272       -2.460      869.125
12/30/2013  02:18:00      -80.074      -24.798       -3.436       23.600       14.617       10.813      556.955      213.660      116.924        0.396        0.044       83.826       10.112        0.015      330.237       -2.518      869.131
12/30/2013  02:19:00      -95.779      -34.273       -5.205       15.511       12.557        7.407      240.579      157.688       54.862        0.541        0.023      101.726        4.820        0.002      330.313       -2.394      869.126
12/30/2013  02:20:00      -79.284      -38.510       -7.588       13.805       11.258        9.471      190.578      126.740       89.709        0.412        0.020       88.142        5.718        0.004      330.236       -2.521      869.119
12/30/2013  02:21:00      -74.119      -44.067       -3.336       15.698        8.876       10.805      246.434       78.783      116.742        0.394        0.022       86.229       10.348        0.014      330.213       -2.557      869.123
12/30/2013  02:22:00      -74.931      -36.914       -4.269       13.089       15.294        9.027      171.317      233.904       81.485        0.374        0.024       83.531        8.185        0.010      330.235       -2.523      869.127
12/30/2013  02:23:00      -53.836      -10.113       -7.261       12.875        9.094        7.426      165.761       82.693       55.152        0.168        0.015       54.777        4.467        0.007      330.248       -2.501      869.124
12/30/2013  02:24:00      -30.817       -8.460       -0.722       11.969        9.741        6.301      143.253       94.885       39.702        0.065        0.014       31.957        3.759        0.014      330.339       -2.352      869.112
12/30/2013  02:25:00       -4.803        0.706       -1.184        6.665        7.750       10.106       44.419       60.064      102.138        0.012        0.010        4.854        5.922        1.488      330.394       -2.264      869.099
12/30/2013  02:26:00      -15.831       12.153       11.105        6.967       11.702       12.361       48.543      136.932      152.804        0.043        0.017       19.958       10.675        0.286      330.449       -2.170      869.087
12/30/2013  02:27:00      -34.861        0.671       -1.373       13.054        4.002        4.944      170.412       16.012       24.442        0.071        0.011       34.868        1.702        0.002      330.464       -2.146      869.080
12/30/2013  02:28:00      -52.105       -1.471       -5.457        7.296        4.320        4.857       53.234       18.666       23.592        0.142        0.005       52.126        3.097        0.004      330.409       -2.237      869.080
12/30/2013  02:29:00      -58.203       -2.670       -5.922        7.807        6.283        6.864       60.949       39.480       47.110        0.179        0.007       58.264        1.930        0.001      330.301       -2.412      869.081
12/30/2013  02:30:00      -64.037      -16.511       -7.328       15.646        8.666        8.153      244.792       75.092       66.477        0.241        0.019       66.132        8.060        0.015      330.306       -2.405      869.080
12/30/2013  02:31:00      -67.427      -25.301       -7.421        9.871        8.593        6.838       97.437       73.843       46.754        0.273        0.011       72.018        5.323        0.005      330.238       -2.516      869.085
12/30/2013  02:32:00      -70.848      -27.599       -8.183       13.013       11.513        9.783      169.330      132.559       95.715        0.312        0.020       76.034        4.711        0.004      330.195       -2.589      869.092
12/30/2013  02:33:00      -77.138      -26.377       -4.367       14.022       13.549       10.521      196.608      183.571      110.694        0.358        0.025       81.523        7.970        0.010      330.206       -2.569      869.104
12/30/2013  02:34:00      -79.664       -7.155       -7.162       22.456       14.466       13.438      504.265      209.258      180.585        0.367        0.045       79.985       12.778        0.026      330.194       -2.589      869.119
12/30/2013  02:35:00     -101.514       -2.799       -9.270        9.323        9.407        6.988       86.922       88.496       48.832        0.531        0.011      101.552        4.984        0.002      330.187       -2.600      869.128
12/30/2013  02:36:00      -97.256       -7.435       -6.784       13.048        9.837        7.032      170.259       96.768       49.450        0.494        0.016       97.540        6.116        0.004      330.174       -2.622      869.125
12/30/2013  02:37:00      -89.484       -5.035       -7.350       11.948        9.705        8.331      142.755       94.187       69.412        0.420        0.015       89.626        3.947        0.002      330.206       -2.568      869.122
12/30/2013  02:38:00      -75.843       -9.292       -3.774       12.917       17.738       12.006      166.848      314.630      144.148        0.324        0.031       76.410        8.109        0.011      330.132       -2.690      869.116
12/30/2013  02:39:00      -75.684       -5.773       -7.892       21.628       11.758       14.320      467.785      138.248      205.069        0.332        0.041       75.904       14.000        0.034      330.098       -2.746      869.110
12/30/2013  02:40:00     -101.269       -5.211       -7.988       17.026       12.465       12.154      289.885      155.377      147.723        0.547        0.030      101.403        9.082        0.008      330.114       -2.722      869.100
12/30/2013  02:41:00     -105.429       -6.303       -7.667       15.174       10.113        9.823      230.262      102.283       96.491        0.582        0.021      105.617        8.565        0.007      330.074       -2.786      869.084
12/30/2013  02:42:00      -84.440      -22.509       -4.547       17.291       12.703        9.293      298.978      161.364       86.351        0.410        0.027       87.388        8.408        0.009      330.120       -2.712      869.068
12/30/2013  02:43:00      -67.862      -26.984        1.043       14.767       16.229        9.963      218.056      263.376       99.261        0.296        0.029       73.030        9.101        0.016      330.088       -2.762      869.048
12/30/2013  02:44:00      -63.016      -21.396        4.292       31.959       16.959       12.581     1021.373      287.592      158.291        0.296        0.073       66.550       14.908        0.050      330.129       -2.696      869.038
12/30/2013  02:45:00      -75.600      -16.528        1.617       22.646       14.915       14.498      512.856      222.443      210.184        0.347        0.047       77.386       14.119        0.033      330.060       -2.809      869.030
12/30/2013  02:46:00      -79.962      -18.532       -0.610       20.718       17.740       12.023      429.225      314.708      144.543        0.381        0.044       82.082       11.165        0.019      330.082       -2.773      869.029
12/30/2013  02:47:00      -89.246      -10.932        0.703       24.568       17.543       15.384      603.572      307.772      236.656        0.462        0.057       89.913       14.946        0.028      330.025       -2.867      869.031
12/30/2013  02:48:00     -115.047       -6.430       -8.400       21.590       12.051       14.784      466.141      145.220      218.581        0.709        0.041      115.226       12.067        0.011      330.127       -2.699      869.031
12/30/2013  02:49:00     -123.730       -9.229       -8.610       20.072       12.616       11.716      402.875      159.169      137.262        0.808        0.035      124.074       10.223        0.007      330.140       -2.679      869.038
12/30/2013  02:50:00     -118.474       -6.448       -8.462       22.370       14.994       12.171      500.425      224.830      148.141        0.751        0.044      118.649       10.810        0.008      330.181       -2.611      869.044
12/30/2013  02:51:00      -91.097       -0.229       -4.352       28.030       15.631       15.529      785.685      244.330      241.145        0.479        0.064       91.097       16.477        0.033      330.168       -2.630      869.043
12/30/2013  02:52:00      -87.621       -2.679      -13.186       16.717       13.927       10.098      279.458      193.966      101.977        0.422        0.029       87.662        8.017        0.008      330.264       -2.474      869.047
12/30/2013  02:53:00      -79.946       -1.893       -5.066       19.551       10.038        7.553      382.253      100.757       57.053        0.348        0.027       79.968        2.785        0.001      330.275       -2.456      869.036
12/30/2013  02:54:00      -15.972       -8.919        4.909       18.894       14.575       11.486      356.986      212.428      131.920        0.053        0.035       18.294       13.644        0.556      330.171       -2.625      869.021
12/30/2013  02:55:00      -22.259       -9.859       -0.903       10.605        9.672        5.222      112.462       93.552       27.272        0.041        0.012       24.344        3.709        0.023      330.219       -2.547      869.001
12/30/2013  02:56:00      -15.274       -6.930       -0.087        6.105        8.613        6.785       37.275       74.176       46.035        0.022        0.008       16.772        5.288        0.099      330.184       -2.605      868.980
12/30/2013  02:57:00        4.499        3.934       -0.546        6.305        6.367        3.969       39.753       40.536       15.752        0.007        0.005        5.976        1.959        0.107      330.265       -2.474      868.957
12/30/2013  02:58:00       15.325       19.651        0.666        7.416        8.821        7.677       54.990       77.814       58.935        0.041        0.010       24.920        4.788        0.037      330.248       -2.500      868.947
12/30/2013  02:59:00       19.337        8.758        1.451        5.381        5.613        3.956       28.955       31.506       15.653        0.026        0.004       21.228        1.657        0.006      330.304       -2.408      868.934
12/30/2013  03:00:00        8.094        6.451        5.349        7.322        5.985        6.412       53.619       35.824       41.115        0.013        0.007       10.351        5.206        0.253      330.412       -2.232      868.927
12/30/2013  03:01:00        3.530       18.154       10.300        6.938        9.088        5.772       48.142       82.585       33.320        0.031        0.008       18.494        2.262        0.015      330.366       -2.311      868.914
12/30/2013  03:02:00      -28.123       -2.530       -0.680       15.247        8.073        8.840      232.486       65.181       78.142        0.059        0.019       28.236       11.078        0.154      330.205       -2.572      868.909
12/30/2013  03:03:00      -47.111      -16.149      -10.029        5.745        6.851        4.844       33.003       46.937       23.460        0.134        0.005       49.802        2.493        0.003      330.014       -2.885      868.910
12/30/2013  03:04:00      -40.811       -5.972       -6.603        5.705        6.273        5.230       32.543       39.346       27.358        0.092        0.005       41.246        2.302        0.003      329.977       -2.944      868.907
12/30/2013  03:05:00      -37.798      -12.129      -10.265        8.728        9.063        5.770       76.173       82.135       33.290        0.094        0.010       39.696        3.853        0.009      330.039       -2.843      868.894
12/30/2013  03:06:00      -47.025      -20.347       -8.779        7.609        7.517        6.062       57.903       56.513       36.749        0.143        0.008       51.238        3.377        0.004      330.084       -2.771      868.897
12/30/2013  03:07:00      -60.806      -22.976      -11.135        5.401        6.452        6.197       29.168       41.626       38.407        0.223        0.005       65.002        2.637        0.002      330.061       -2.808      868.891
12/30/2013  03:08:00      -65.623      -16.454       -9.437        6.186        8.385        4.937       38.271       70.311       24.371        0.240        0.007       67.654        2.507        0.001      330.039       -2.843      868.887
12/30/2013  03:09:00      -67.915      -23.408       -6.408        9.630        9.353        5.129       92.728       87.482       26.306        0.270        0.010       71.836        4.164        0.003      330.015       -2.884      868.878
12/30/2013  03:10:00      -70.903      -31.394       -3.829       13.811       10.446        7.097      190.732      109.121       50.362        0.319        0.018       77.542        3.697        0.002      329.957       -2.978      868.864
12/30/2013  03:11:00      -63.476      -37.999       -5.741       10.116       13.011        6.424      102.341      169.296       41.271        0.291        0.016       73.981        3.677        0.002      329.909       -3.057      868.858
12/30/2013  03:12:00      -78.441      -16.186       -4.984       11.344       14.065        8.704      128.691      197.835       75.766        0.342        0.020       80.093        7.174        0.008      329.914       -3.048      868.840
12/30/2013  03:13:00      -70.001      -19.371       -2.423       33.778       17.965       10.558     1140.953      322.745      111.468        0.343        0.079       72.632       14.026        0.037      329.940       -3.006      868.833
12/30/2013  03:14:00      -42.807      -18.686       10.526       32.302       19.340       16.083     1043.426      374.041      258.669        0.198        0.084       46.708       10.754        0.053      329.933       -3.017      868.834
12/30/2013  03:15:00      -53.148      -16.135       -2.357       20.557       19.680       12.445      422.597      387.286      154.887        0.203        0.048       55.543        7.885        0.020      329.917       -3.045      868.829
12/30/2013  03:16:00      -33.214      -12.315        1.868       28.798       17.293       14.346      829.350      299.046      205.816        0.130        0.067       35.423       15.432        0.190      329.861       -3.136      868.829
12/30/2013  03:17:00      -75.626       -6.224       -4.189       21.459       14.868       11.980      460.492      221.050      143.513        0.330        0.041       75.882       11.028        0.021      329.807       -3.221      868.832
12/30/2013  03:18:00      -52.259      -10.252       -1.449       24.197       18.716       13.781      585.488      350.304      189.908        0.198        0.056       53.255       13.363        0.063      329.784       -3.262      868.835
12/30/2013  03:19:00      -26.630      -10.679        5.008       24.142       18.633       12.052      582.843      347.205      145.252        0.096        0.054       28.691       10.721        0.140      329.785       -3.258      868.832
12/30/2013  03:20:00      -35.713      -15.284        4.819       32.365       20.555       13.290     1047.491      422.518      176.621        0.159        0.082       38.846       17.172        0.195      329.811       -3.215      868.834
12/30/2013  03:21:00      -67.215       -6.291        2.918       30.350       20.437       15.711      921.099      417.683      246.830        0.308        0.079       67.509       16.007        0.056      329.813       -3.213      868.833
12/30/2013  03:22:00      -75.714      -17.683       -0.768       26.361       17.368       13.009      694.886      301.664      169.246        0.361        0.058       77.752       13.367        0.030      329.806       -3.226      868.831
12/30/2013  03:23:00      -72.846      -23.425       -7.128       28.530       22.947       16.344      813.944      526.546      267.128        0.376        0.080       76.520       13.110        0.029      329.843       -3.165      868.832
12/30/2013  03:24:00      -94.774      -30.621       -0.979       30.436       21.907       14.023      926.330      479.928      196.651        0.576        0.080       99.598       11.992        0.014      329.826       -3.193      868.833
12/30/2013  03:25:00      -79.537      -11.355       -2.103       31.696       19.150       13.893     1004.613      366.723      193.022        0.401        0.078       80.343       13.138        0.027      329.806       -3.226      868.830
12/30/2013  03:26:00      -52.051      -11.431        3.296       33.616       18.341       13.230     1130.016      336.396      175.044        0.225        0.082       53.292       11.712        0.048      329.875       -3.113      868.832
12/30/2013  03:27:00      -80.329      -18.801       -4.085       15.949       17.599       12.514      254.359      309.724      156.597        0.377        0.036       82.500        9.003        0.012      329.846       -3.160      868.824
12/30/2013  03:28:00      -72.525       -3.467       -7.503       24.332       13.007       16.106      592.055      169.189      259.416        0.317        0.051       72.607       14.926        0.042      329.845       -3.162      868.812
12/30/2013  03:29:00      -34.145       -7.413        2.728       30.064       17.530       13.153      903.864      307.305      172.994        0.131        0.069       34.940       14.719        0.177      329.892       -3.084      868.799
12/30/2013  03:30:00      -45.188       -2.373        2.420       23.636       14.064       11.320      558.639      197.783      128.133        0.147        0.044       45.250       12.201        0.073      329.904       -3.064      868.783
12/30/2013  03:31:00      -21.607        5.064        2.723       15.712       12.311       11.100      246.878      151.554      123.214        0.051        0.026       22.192       10.087        0.207      329.867       -3.127      868.751
12/30/2013  03:32:00      -32.521       22.346       -8.985       10.556        9.140        6.240      111.419       83.541       38.933        0.094        0.012       39.458        4.304        0.012      330.141       -2.675      868.729
12/30/2013  03:33:00      -31.686       31.271       -8.955       12.197        9.657        4.858      148.760       93.260       23.597        0.116        0.013       44.518        2.806        0.004      330.330       -2.366      868.710
12/30/2013  03:34:00      -56.175       13.121       -5.366       12.175        9.723        8.120      148.235       94.527       65.941        0.183        0.015       57.687        4.550        0.006      330.325       -2.374      868.693
12/30/2013  03:35:00      -60.778       -5.509       -5.711       15.714       17.048       11.272      246.938      290.622      127.068        0.221        0.033       61.027       10.309        0.029      330.115       -2.719      868.676
12/30/2013  03:36:00      -61.431      -34.859      -11.605       15.845       14.706       10.648      251.071      216.255      113.385        0.285        0.029       70.633        6.483        0.008      329.882       -3.102      868.660
12/30/2013  03:37:00      -72.546      -30.327      -14.523       18.037       14.741       13.009      325.349      217.299      169.228        0.355        0.036       78.630       11.811        0.023      329.834       -3.178      868.645
12/30/2013  03:38:00      -72.689      -41.758      -16.475       15.537       16.325        9.786      241.398      266.498       95.756        0.395        0.030       83.829        9.016        0.012      329.796       -3.239      868.629
12/30/2013  03:39:00      -68.430      -44.839      -11.451       21.115       16.204       14.753      445.844      262.586      217.641        0.388        0.046       81.812        5.711        0.005      329.758       -3.304      868.622
12/30/2013  03:40:00      -85.542      -28.703       -7.187       24.370       30.159       16.049      593.909      909.579      257.559        0.498        0.088       90.229       12.081        0.018      329.703       -3.392      868.612
12/30/2013  03:41:00      -83.028      -27.585       -4.916       24.378       18.823       17.885      594.277      354.288      319.888        0.447        0.063       87.491       16.047        0.034      329.691       -3.412      868.595
12/30/2013  03:42:00     -106.231      -32.657       -9.637       31.425       26.678       14.214      987.550      711.718      202.031        0.717        0.095      111.137        6.157        0.003      329.714       -3.374      868.578
12/30/2013  03:43:00     -118.014      -33.163       -8.760       39.391       28.802       19.965     1551.631      829.559      398.620        0.894        0.139      122.585       13.191        0.012      329.665       -3.455      868.571
12/30/2013  03:44:00     -108.894      -27.373       -1.249       37.860       45.673       20.620     1433.351     2086.045      425.168        0.828        0.197      112.282       14.721        0.017      329.682       -3.429      868.563
12/30/2013  03:45:00      -71.533      -21.148       -2.499       38.149       28.987       18.855     1455.328      840.262      355.512        0.411        0.133       74.594       13.755        0.034      329.694       -3.409      868.556
12/30/2013  03:46:00      -93.498      -24.374       -6.483       29.133       28.694       19.797      848.731      823.335      391.930        0.572        0.103       96.622       15.460        0.026      329.723       -3.359      868.555
12/30/2013  03:47:00      -93.226      -42.915       -5.437       35.992       32.203       16.035     1295.436     1037.025      257.132        0.658        0.129      102.629       12.159        0.014      329.778       -3.270      868.554
12/30/2013  03:48:00     -109.705      -54.083        2.167       42.285       32.241       23.523     1788.022     1039.493      553.312        0.917        0.169      122.312       23.276        0.036      329.708       -3.385      868.545
12/30/2013  03:49:00     -140.967        2.044       -7.532       37.109       25.461       23.359     1377.059      648.256      545.656        1.125        0.129      140.982       17.136        0.015      329.702       -3.395      868.543
12/30/2013  03:50:00     -144.452       17.135      -15.201       24.691       20.474       19.148      609.656      419.186      366.637        1.139        0.070      145.464       15.748        0.012      329.700       -3.398      868.529
12/30/2013  03:51:00      -67.547        2.312       -8.123       39.791       32.934       21.644     1583.342     1084.673      468.480        0.388        0.157       67.586       17.733        0.069      329.754       -3.309      868.518
12/30/2013  03:52:00      -71.016      -11.312       -8.201       30.080       37.655       23.667      904.794     1417.867      560.109        0.406        0.144       71.911       18.574        0.067      329.840       -3.169      868.520
12/30/2013  03:53:00      -62.558      -26.175        0.900       25.883       27.946       16.156      669.922      780.981      261.006        0.316        0.086       67.814       11.955        0.031      329.795       -3.242      868.506
12/30/2013  03:54:00      -76.886      -45.411       -7.824       40.587       27.531       15.726     1647.287      757.974      247.298        0.534        0.133       89.296       10.155        0.013      329.807       -3.224      868.486
12/30/2013  03:55:00      -65.759      -15.786       -4.379       33.195       22.333       14.452     1101.895      498.764      208.850        0.320        0.090       67.627       12.666        0.035      329.760       -3.299      868.469
12/30/2013  03:56:00      -76.138       -1.493      -13.444       14.068       12.420       13.125      197.911      154.257      172.274        0.325        0.026       76.152        9.725        0.016      329.669       -3.449      868.452
12/30/2013  03:57:00      -55.624      -21.178       -4.153       19.212       11.020        9.757      369.089      121.440       95.202        0.207        0.029       59.519       10.376        0.030      329.822       -3.198      868.444
12/30/2013  03:58:00      -26.230      -26.088       -7.194       13.718       14.035       10.779      188.195      196.974      116.179        0.096        0.025       36.994        8.094        0.048      329.992       -2.921      868.456
12/30/2013  03:59:00      -22.913      -18.139       -6.067       17.466       12.121       10.703      305.064      146.919      114.559        0.073        0.028       29.224        5.217        0.032      330.017       -2.880      868.470
12/30/2013  04:00:00      -53.908      -34.167       -8.917       11.011       11.745       10.631      121.245      137.937      113.013        0.226        0.019       63.824        7.586        0.014      329.789       -3.252      868.482
12/30/2013  04:01:00      -62.559      -21.370       -8.244       12.130       13.820        7.143      147.142      190.995       51.026        0.241        0.019       66.108        3.968        0.004      329.826       -3.190      868.488
12/30/2013  04:02:00      -59.641       -4.495       -8.277       12.956       10.411        7.828      167.867      108.380       61.279        0.199        0.017       59.810        6.358        0.011      329.859       -3.137      868.497
12/30/2013  04:03:00      -67.175       -7.827      -10.135       12.156       10.318        8.473      147.756      106.458       71.788        0.250        0.016       67.630        4.234        0.004      329.830       -3.185      868.505
12/30/2013  04:04:00      -53.576       -4.038       -5.671        9.134        8.602        7.411       83.426       74.000       54.930        0.157        0.011       53.728        4.742        0.008      329.748       -3.320      868.502
12/30/2013  04:05:00      -37.814      -13.388      -11.931       13.190        7.648        5.415      173.967       58.485       29.322        0.101        0.013       40.114        2.069        0.003      329.892       -3.085      868.501
12/30/2013  04:06:00      -26.844      -21.711       -5.694       10.112       10.324        5.369      102.257      106.577       28.830        0.073        0.012       34.525        3.218        0.009      330.042       -2.839      868.511
12/30/2013  04:07:00      -60.348      -15.533       -6.603       11.140       12.876        8.072      124.097      165.784       65.150        0.214        0.018       62.315        4.440        0.005      329.804       -3.229      868.514
12/30/2013  04:08:00      -52.783       -5.162       -7.170        9.835        9.338        8.303       96.723       87.207       68.935        0.156        0.013       53.035        2.438        0.002      329.843       -3.163      868.516
12/30/2013  04:09:00      -37.658       -4.153       -4.220        9.283        7.653        6.804       86.176       58.574       46.301        0.082        0.010       37.886        6.825        0.032      329.948       -2.992      868.508
12/30/2013  04:10:00      -31.763      -15.395      -10.046       12.380       10.487        8.857      153.259      109.976       78.446        0.084        0.017       35.297        6.847        0.038      329.979       -2.941      868.513
12/30/2013  04:11:00      -44.941      -19.618       -7.944       25.435       14.098       12.405      646.961      198.756      153.892        0.173        0.050       49.036        6.507        0.018      329.728       -3.352      868.510
12/30/2013  04:12:00      -93.342       -5.201      -11.272       12.392       12.358        7.596      153.555      152.709       57.698        0.462        0.018       93.487        3.400        0.001      329.627       -3.519      868.505
12/30/2013  04:13:00      -86.029       -6.232      -16.533       18.026       12.916       12.605      324.939      166.821      158.896        0.418        0.033       86.254        6.986        0.007      329.599       -3.564      868.497
12/30/2013  04:14:00      -95.319       -2.410      -15.478       13.057        9.048        8.207      170.490       81.875       67.363        0.483        0.016       95.349        6.579        0.005      329.617       -3.534      868.488
12/30/2013  04:15:00      -98.541       -5.589      -16.120       15.628       11.660        9.928      244.249      135.964       98.564        0.524        0.024       98.700        7.267        0.005      329.632       -3.509      868.481
12/30/2013  04:16:00      -93.125       -4.178      -12.075       18.910       12.228       11.970      357.587      149.516      143.273        0.474        0.033       93.219        8.992        0.009      329.591       -3.576      868.477
12/30/2013  04:17:00      -72.466       -6.592      -13.763       11.714       13.078       10.073      137.212      171.042      101.469        0.295        0.020       72.765        7.560        0.011      329.616       -3.535      868.477
12/30/2013  04:18:00      -74.619      -16.400      -14.136       10.489        9.747        9.750      110.025       95.002       95.054        0.317        0.015       76.400        4.708        0.004      329.627       -3.518      868.482
12/30/2013  04:19:00      -69.297       -8.451      -15.941        8.982       10.210        7.976       80.683      104.245       63.624        0.269        0.012       69.810        4.581        0.004      329.662       -3.461      868.498
12/30/2013  04:20:00      -64.794      -25.951       -5.779       22.717       19.011       14.682      516.046      361.420      215.555        0.300        0.055       69.797       13.097        0.035      329.588       -3.582      868.501
12/30/2013  04:21:00      -88.271      -18.500      -11.906       25.385       22.394       12.509      644.400      501.492      156.472        0.479        0.065       90.189       10.481        0.014      329.608       -3.549      868.496
12/30/2013  04:22:00      -63.662      -14.628      -10.797       18.657       19.220       14.772      348.094      369.403      218.207        0.266        0.047       65.321       11.786        0.033      329.611       -3.544      868.485
12/30/2013  04:23:00      -75.793       -3.040       -9.328       11.604       13.523       11.214      134.659      182.882      125.754        0.314        0.022       75.854       10.042        0.018      329.680       -3.430      868.471
12/30/2013  04:24:00      -56.594       -2.380       -9.462       10.019       11.410        7.585      100.390      130.177       57.527        0.179        0.014       56.644        5.221        0.008      329.682       -3.428      868.451
12/30/2013  04:25:00      -55.202       -4.743       -2.065        6.900        8.976        6.933       47.607       80.561       48.060        0.163        0.009       55.405        3.995        0.005      329.719       -3.368      868.441
12/30/2013  04:26:00      -45.935       -2.021       -7.590        9.316        9.592       10.340       86.784       92.002      106.906        0.123        0.014       45.980        6.353        0.019      329.718       -3.368      868.426
12/30/2013  04:27:00      -41.474       -5.512       -8.824        7.160        8.516        8.132       51.265       72.527       66.123        0.101        0.009       41.839        5.402        0.017      329.668       -3.449      868.419
12/30/2013  04:28:00      -32.421      -11.433       -2.913        8.700        7.152        7.480       75.692       51.152       55.955        0.069        0.009       34.378        3.252        0.009      329.707       -3.386      868.427
12/30/2013  04:29:00      -33.729       -6.325       -1.428       12.610        8.930        5.619      159.021       79.737       31.579        0.072        0.014       34.317        3.912        0.013      329.741       -3.332      868.427
12/30/2013  04:30:00      -49.034      -11.826       -4.383        9.075        9.237        6.935       82.350       85.322       48.098        0.139        0.011       50.440        4.403        0.008      329.576       -3.601      868.422
12/30/2013  04:31:00      -54.122      -13.947       -3.359        6.426        9.640        6.865       41.298       92.921       47.128        0.166        0.009       55.890        3.409        0.004      329.538       -3.663      868.422
12/30/2013  04:32:00      -82.016      -14.908      -10.327       17.042       11.175        8.402      290.414      124.887       70.586        0.377        0.024       83.360        7.283        0.008      329.506       -3.715      868.416
12/30/2013  04:33:00     -114.106      -22.533      -14.666       11.961       14.626       10.211      143.058      213.925      104.258        0.710        0.023      116.309        7.444        0.004      329.431       -3.838      868.413
12/30/2013  04:34:00     -121.022      -35.265      -21.657       19.520       18.951       12.970      381.048      359.150      168.208        0.863        0.045      126.056        2.343        0.000      329.428       -3.844      868.420
12/30/2013  04:35:00     -102.800      -23.058      -24.630       19.394       19.632       13.510      376.116      385.424      182.517        0.632        0.047      105.354       10.458        0.010      329.419       -3.860      868.427
12/30/2013  04:36:00      -79.297      -23.480      -10.343       15.555       23.373       13.531      241.947      546.310      183.096        0.396        0.049       82.700        6.340        0.006      329.490       -3.742      868.435
12/30/2013  04:37:00      -88.208      -18.120      -10.711       20.365       16.150       12.929      414.737      260.838      167.154        0.453        0.042       90.050       11.305        0.016      329.520       -3.693      868.445
12/30/2013  04:38:00      -89.318      -30.888       -8.241       14.136       11.633        8.784      199.840      135.327       77.157        0.471        0.021       94.508        6.067        0.004      329.603       -3.558      868.455
12/30/2013  04:39:00      -92.255       -7.231       -8.397       11.463       14.056        8.028      131.402      197.579       64.449        0.451        0.020       92.538        5.140        0.003      329.639       -3.498      868.462
12/30/2013  04:40:00     -101.818       -5.376       -9.450       13.877       10.423        6.552      192.569      108.631       42.924        0.541        0.017      101.960        5.181        0.003      329.707       -3.386      868.460
12/30/2013  04:41:00      -95.515       -5.270       -6.697       22.872       15.220       15.335      523.130      231.634      235.176        0.509        0.049       95.660       15.249        0.025      329.624       -3.523      868.460
12/30/2013  04:42:00     -116.479       -7.286      -11.102       16.196       13.836       11.705      262.309      191.436      137.017        0.717        0.030      116.706        6.828        0.003      329.651       -3.480      868.459
12/30/2013  04:43:00     -114.895      -22.007      -14.000       24.180       19.846       13.508      584.680      393.852      182.469        0.752        0.058      116.984       10.530        0.008      329.585       -3.585      868.466
12/30/2013  04:44:00     -103.844      -28.438       -3.450       28.296       17.476       17.621      800.661      305.400      310.485        0.651        0.071      107.667       14.523        0.018      329.490       -3.740      868.477
12/30/2013  04:45:00     -100.015      -34.759       -9.914       23.926       19.813       18.628      572.444      392.548      346.994        0.631        0.066      105.883       18.645        0.031      329.487       -3.747      868.484
12/30/2013  04:46:00      -93.673      -25.114       -9.978       15.202       13.870       10.836      231.093      192.371      117.415        0.502        0.027       96.981        6.727        0.005      329.483       -3.752      868.484
12/30/2013  04:47:00      -61.917      -34.220       -6.432       17.309       15.993       10.020      299.611      255.773      100.406        0.285        0.033       70.744        8.765        0.015      329.565       -3.618      868.483
12/30/2013  04:48:00      -67.868      -31.993       -4.968       13.212       13.392        8.262      174.554      179.344       68.262        0.304        0.021       75.031        3.954        0.003      329.557       -3.632      868.489
12/30/2013  04:49:00      -67.711      -28.473       -4.770       17.264       16.457       11.231      298.051      270.820      126.134        0.306        0.035       73.454       10.409        0.020      329.552       -3.641      868.497
12/30/2013  04:50:00      -87.563      -38.123       -5.485       15.644        9.408       11.880      244.734       88.506      141.142        0.481        0.024       95.502        8.545        0.008      329.599       -3.563      868.502
12/30/2013  04:51:00      -79.242      -28.761       -7.145       13.314       14.107       11.840      177.275      199.018      140.190        0.384        0.026       84.300        8.273        0.010      329.606       -3.552      868.504
12/30/2013  04:52:00      -88.187      -41.141      -11.742       15.564       12.981        8.127      242.223      168.518       66.056        0.504        0.024       97.311        7.102        0.005      329.602       -3.559      868.511
12/30/2013  04:53:00      -84.737      -31.295       -1.739       13.067       16.821        9.893      170.752      282.939       97.873        0.436        0.028       90.331        5.985        0.004      329.632       -3.511      868.519
12/30/2013  04:54:00     -101.898      -21.066      -12.480       13.033       13.694       10.428      169.861      187.538      108.752        0.572        0.023      104.053        5.005        0.002      329.604       -3.556      868.531
12/30/2013  04:55:00     -111.734      -32.217      -13.982       12.739       10.937        7.760      162.291      119.620       60.210        0.703        0.017      116.286        3.423        0.001      329.566       -3.619      868.549
12/30/2013  04:56:00      -98.068      -40.036      -12.624       13.410       12.765       10.392      179.820      162.937      107.988        0.592        0.023      105.926        5.936        0.003      329.550       -3.642      868.558
12/30/2013  04:57:00      -94.410      -25.153      -14.930       15.305       16.837       14.713      234.247      283.496      216.460        0.525        0.037       97.703        9.529        0.010      329.496       -3.731      868.565
12/30/2013  04:58:00     -103.745      -22.014       -7.866       35.093       16.951       11.178     1231.520      287.325      124.939        0.648        0.082      106.055       14.100        0.018      329.404       -3.883      868.575
12/30/2013  04:59:00      -88.870      -30.883       -8.533       32.091       18.553       15.668     1029.844      344.226      245.477        0.527        0.081       94.083       16.753        0.032      329.375       -3.931      868.578
12/30/2013  05:00:00      -74.681      -15.988       -8.557       16.674       18.090       10.103      278.028      327.236      102.070        0.331        0.035       76.373        6.467        0.007      329.388       -3.909      868.583
12/30/2013  05:01:00      -85.893       -8.458      -12.669        8.346        8.218        6.705       69.655       67.540       44.963        0.390        0.009       86.308        2.373        0.001      329.424       -3.850      868.583
12/30/2013  05:02:00      -90.170      -12.987      -13.340       11.158       10.076        8.985      124.503      101.519       80.725        0.439        0.015       91.100        5.756        0.004      329.395       -3.896      868.580
12/30/2013  05:03:00      -92.826      -14.593      -13.479        7.372        9.922        7.541       54.348       98.439       56.861        0.461        0.010       93.966        3.392        0.001      329.384       -3.915      868.583
12/30/2013  05:04:00     -103.397      -17.606      -11.058       15.689       14.731       11.311      246.159      217.009      127.932        0.586        0.030      104.885        9.567        0.008      329.324       -4.014      868.593
12/30/2013  05:05:00      -91.408      -17.224      -13.907       24.047       19.774       12.058      578.272      391.014      145.397        0.498        0.056       93.017        7.527        0.007      329.344       -3.981      868.590
12/30/2013  05:06:00      -72.166       -7.604      -14.147       20.707       10.608       14.979      428.778      112.522      224.377        0.312        0.038       72.565       10.197        0.020      329.380       -3.922      868.586
12/30/2013  05:07:00      -55.849        0.850      -10.413       10.522        8.843        7.738      110.706       78.191       59.874        0.174        0.012       55.855        6.442        0.013      329.563       -3.621      868.593
12/30/2013  05:08:00      -39.300       -4.094       -4.765        7.088       12.438        7.606       50.233      154.693       57.854        0.092        0.013       39.513        6.457        0.027      329.932       -3.018      868.610
12/30/2013  05:09:00      -43.697      -18.972       -9.504       10.863       10.739        7.083      118.015      115.319       50.164        0.132        0.014       47.637        1.833        0.001      329.709       -3.383      868.632
12/30/2013  05:10:00      -67.661      -16.820      -13.243        9.223       10.275        7.164       85.071      105.579       51.327        0.264        0.012       69.720        3.880        0.003      329.436       -3.829      868.641
12/30/2013  05:11:00      -55.044       -5.312       -9.185       13.621       10.044        9.171      185.532      100.885       84.099        0.176        0.019       55.300        7.280        0.017      329.403       -3.884      868.641
12/30/2013  05:12:00      -21.905       12.963       -9.443       25.073       11.890        7.877      628.666      141.366       62.040        0.078        0.042       25.453        7.547        0.088      329.839       -3.171      868.625
12/30/2013  05:13:00        2.713        0.409       -0.988       16.835        7.031       11.072      283.416       49.441      122.591        0.023        0.023        2.744        7.703        7.881      329.993       -2.918      868.620
12/30/2013  05:14:00      -28.933      -12.552        0.012       10.733       17.095        7.209      115.199      292.237       51.971        0.073        0.023       31.539        2.306        0.005      329.959       -2.975      868.631
12/30/2013  05:15:00      -31.354      -16.761      -11.862       16.960        9.314        8.910      287.637       86.757       79.387        0.093        0.023       35.553        7.787        0.048      329.708       -3.385      868.644
12/30/2013  05:16:00      -43.718      -17.090       -7.907       10.467       13.285        8.694      109.552      176.489       75.590        0.131        0.018       46.940        5.194        0.012      329.674       -3.440      868.668
12/30/2013  05:17:00      -16.554      -23.695        2.635       14.435        5.948       12.258      208.366       35.385      150.249        0.062        0.020       28.904        9.881        0.117      329.972       -2.954      868.678
12/30/2013  05:18:00      -25.096      -11.864        5.776       10.178       21.241       17.861      103.598      451.184      319.015        0.084        0.044       27.759        6.454        0.054      330.166       -2.635      868.670
12/30/2013  05:19:00      -20.027       -3.939       -5.330       18.446       19.230       18.372      340.252      369.802      337.520        0.075        0.052       20.411       11.087        0.295      329.995       -2.915      868.675
12/30/2013  05:20:00      -72.408      -23.231      -14.713       13.174       13.551       10.660      173.550      183.637      113.626        0.323        0.024       76.043        7.773        0.010      329.551       -3.642      868.680
12/30/2013  05:21:00     -109.215      -22.383      -12.332       29.019       17.815       11.830      842.079      317.386      139.943        0.694        0.065      111.485        3.921        0.001      329.387       -3.910      868.688
12/30/2013  05:22:00      -82.897       -6.216       -7.081       20.286       13.513       11.454      411.513      182.604      131.184        0.384        0.036       83.130        8.372        0.010      329.367       -3.944      868.691
12/30/2013  05:23:00      -74.144       -7.572      -12.143        9.882        9.289        9.355       97.650       86.284       87.509        0.299        0.014       74.530        4.879        0.004      329.626       -3.519      868.698
12/30/2013  05:24:00      -56.144      -12.522      -13.538        8.118        9.210        7.748       65.896       84.823       60.029        0.185        0.011       57.523        6.199        0.012      329.638       -3.499      868.707
12/30/2013  05:25:00      -89.515      -14.628      -14.331       19.984       12.172       12.981      399.374      148.149      168.498        0.457        0.036       90.702       10.649        0.014      329.433       -3.836      868.713
12/30/2013  05:26:00     -113.003       -4.844      -13.670       21.272       17.411       15.964      452.489      303.138      254.864        0.700        0.051      113.106       10.557        0.009      329.384       -3.914      868.722
12/30/2013  05:27:00      -99.107       -7.471      -11.898       29.926       23.254       18.339      895.552      540.742      336.322        0.590        0.089       99.388       17.858        0.032      329.376       -3.930      868.732
12/30/2013  05:28:00      -62.691       -0.178      -13.187       36.836       29.498       20.809     1356.898      870.126      433.030        0.338        0.133       62.691       13.889        0.049      329.447       -3.812      868.743
12/30/2013  05:29:00      -65.631        2.029      -12.897       21.210       14.294       12.034      449.845      204.325      144.819        0.264        0.040       65.663        9.919        0.023      329.570       -3.611      868.746
12/30/2013  05:30:00      -59.418      -14.716       -7.169        7.438       10.568        7.345       55.319      111.676       53.947        0.201        0.011       61.214        3.891        0.004      329.594       -3.572      868.755
12/30/2013  05:31:00      -94.573      -15.624      -13.480       19.140       15.161       10.911      366.325      229.843      119.045        0.504        0.036       95.855        5.986        0.004      329.569       -3.613      868.767
12/30/2013  05:32:00     -112.504       -4.077      -10.316       36.783       20.294       18.596     1352.957      411.841      345.799        0.745        0.106      112.578       19.359        0.030      329.530       -3.677      868.779
12/30/2013  05:33:00      -62.090      -11.084       -6.908       34.435       14.583       12.507     1185.794      212.651      156.430        0.279        0.078       63.072       13.679        0.047      329.515       -3.700      868.778
12/30/2013  05:34:00      -55.100      -13.531       -6.630       16.100       11.267        8.503      259.199      126.939       72.306        0.186        0.023       56.738        7.342        0.017      329.575       -3.602      868.769
12/30/2013  05:35:00      -44.896      -10.780       -5.122       17.496       13.194       10.846      306.103      174.069      117.642        0.138        0.030       46.172        6.762        0.021      329.584       -3.590      868.770
12/30/2013  05:36:00      -57.415      -13.801      -12.590       10.126       13.784        7.147      102.533      190.012       51.073        0.199        0.017       59.051        4.253        0.005      329.894       -3.082      868.763
12/30/2013  05:37:00      -34.380      -34.721       -2.807       17.647       15.048        8.150      311.413      226.447       66.419        0.150        0.030       48.862        3.032        0.004      329.819       -3.204      868.775
12/30/2013  05:38:00      -25.740      -23.655       -6.420       16.698       13.441       12.917      278.814      180.663      166.856        0.094        0.031       34.958       10.663        0.093      329.827       -3.192      868.784
12/30/2013  05:39:00       -8.175      -13.303       -2.738        9.776        8.804       12.331       95.570       77.502      152.051        0.029        0.016       15.614        7.716        0.244      329.862       -3.134      868.792
12/30/2013  05:40:00      -43.345       -8.982      -11.634       11.318        9.418        6.885      128.096       88.703       47.397        0.118        0.013       44.266        5.868        0.018      329.946       -2.998      868.808
12/30/2013  05:41:00      -46.347       -6.774        1.433       13.497       10.974        9.306      182.180      120.438       86.601        0.129        0.019       46.839        6.130        0.017      329.961       -2.971      868.824
12/30/2013  05:42:00      -44.260      -11.088       -7.910       10.308        9.835        5.883      106.262       96.732       34.613        0.119        0.012       45.628        3.756        0.007      329.885       -3.096      868.843
12/30/2013  05:43:00       -3.032      -15.056        7.473        6.682       12.693        8.313       44.648      161.111       69.107        0.028        0.014       15.358        4.611        0.090      330.106       -2.732      868.865
12/30/2013  05:44:00       -0.982      -33.942        1.217        8.779        8.431       11.829       77.065       71.074      139.925        0.072        0.014       33.956        8.947        0.069      330.297       -2.421      868.885
12/30/2013  05:45:00      -14.152      -30.902       -1.191       11.411        9.375        9.004      130.200       87.884       81.077        0.073        0.015       33.988        5.342        0.025      330.134       -2.688      868.894
12/30/2013  05:46:00      -27.695      -16.636       -0.425       11.345        8.020        6.306      128.698       64.313       39.769        0.064        0.012       32.307        4.216        0.017      329.988       -2.928      868.902
12/30/2013  05:47:00      -17.853      -15.534        6.817       13.258        9.033        9.073      175.764       81.598       82.326        0.047        0.017       23.665        7.887        0.111      329.929       -3.025      868.911
12/30/2013  05:48:00      -22.836      -20.330       -7.155        8.831       10.268        6.751       77.983      105.437       45.583        0.061        0.011       30.574        5.605        0.034      329.930       -3.021      868.918
12/30/2013  05:49:00      -34.492      -10.892       -0.789        9.826        5.954        2.834       96.547       35.453        8.033        0.072        0.007       36.171        2.441        0.005      329.929       -3.022      868.918
12/30/2013  05:50:00      -12.499      -31.072        4.863       14.101       14.102       12.825      198.840      198.857      164.487        0.085        0.028       33.492        6.374        0.036      330.198       -2.583      868.915
12/30/2013  05:51:00        1.549      -23.371       10.797       12.308       18.594       14.326      151.490      345.749      205.238        0.068        0.035       23.422        9.562        0.167      330.286       -2.440      868.913
12/30/2013  05:52:00       10.793      -12.578       16.450       16.284       28.109       15.280      265.173      790.117      233.482        0.092        0.064       16.574       14.750        0.792      330.100       -2.744      868.917
12/30/2013  05:53:00       -2.402        9.623       31.991        7.690       15.080        8.637       59.144      227.410       74.599        0.074        0.018        9.918        7.785        0.616      330.019       -2.875      868.922
12/30/2013  05:54:00       -3.943       16.385       34.788        8.480       22.971       11.326       71.909      527.673      128.274        0.111        0.036       16.853       13.064        0.601      330.033       -2.852      868.945
12/30/2013  05:55:00        9.140      -28.587       11.607       18.584       19.375       15.599      345.353      375.387      243.331        0.100        0.048       30.013       12.164        0.164      330.051       -2.825      868.959
12/30/2013  05:56:00       -6.612      -24.795        4.911       11.179       12.821       12.629      124.979      164.371      159.494        0.057        0.022       25.661       11.277        0.193      329.969       -2.957      868.963
12/30/2013  05:57:00      -22.574       -2.238        2.064       14.176       12.525        9.002      200.953      156.886       81.041        0.048        0.022       22.685        9.683        0.182      329.830       -3.187      868.954
12/30/2013  05:58:00       -6.847       19.487       26.238       15.672       18.008       16.732      245.621      324.303      279.976        0.098        0.042       20.654        8.667        0.176      329.879       -3.106      868.952
12/30/2013  05:59:00      -13.379       -6.226        2.843        9.862       10.104        8.382       97.253      102.082       70.258        0.025        0.013       14.757        5.990        0.165      329.781       -3.266      868.971
12/30/2013  06:00:00       -3.259        5.849       -1.530       10.652        8.987        8.156      113.466       80.769       66.526        0.015        0.013        6.696        5.336        0.635      329.719       -3.368      868.986
12/30/2013  06:01:00      -18.017       10.722       -0.309       11.190        8.079       11.607      125.212       65.264      134.722        0.038        0.016       20.966        8.436        0.162      329.674       -3.440      868.998
12/30/2013  06:02:00      -11.799       10.057        6.755        8.458        6.929        6.626       71.539       48.012       43.902        0.022        0.008       15.504        5.452        0.124      329.719       -3.367      869.012
12/30/2013  06:03:00      -34.123        0.359        1.262       13.160       10.672        7.524      173.198      113.895       56.609        0.075        0.017       34.125        4.320        0.016      329.637       -3.504      869.017
12/30/2013  06:04:00      -50.048      -11.218        0.511        8.971       10.981        7.438       80.484      120.592       55.319        0.144        0.013       51.290        5.275        0.011      329.664       -3.457      869.031
12/30/2013  06:05:00      -33.857      -13.382       -2.258        8.783       11.523        9.085       77.142      132.775       82.528        0.081        0.015       36.405        4.396        0.015      329.711       -3.380      869.051
12/30/2013  06:06:00      -30.432      -10.608       -2.417       10.973       10.714        8.360      120.406      114.797       69.889        0.067        0.015       32.227        3.688        0.013      329.698       -3.399      869.069
12/30/2013  06:07:00      -56.078      -19.653       -4.619        9.577       12.480        4.510       91.727      155.744       20.344        0.191        0.013       59.422        3.027        0.003      329.653       -3.478      869.090
12/30/2013  06:08:00      -42.909      -28.791       -6.038       11.153        8.458        6.942      124.384       71.534       48.189        0.148        0.012       51.673        3.451        0.004      329.772       -3.280      869.099
12/30/2013  06:09:00      -44.812      -10.651       -3.737       10.981       12.848        7.842      120.585      165.084       61.503        0.124        0.017       46.060        7.482        0.026      329.725       -3.356      869.107
12/30/2013  06:10:00      -43.866      -11.492       -5.742       10.227        8.514        7.229      104.591       72.489       52.257        0.116        0.011       45.346        4.865        0.012      329.735       -3.340      869.102
12/30/2013  06:11:00      -33.139        1.701       -4.044        6.682        5.433        5.140       44.651       29.516       26.415        0.061        0.005       33.182        3.386        0.010      329.717       -3.369      869.104
12/30/2013  06:12:00      -21.473       -9.294       -1.635        8.311        4.561        6.457       69.080       20.801       41.690        0.034        0.007       23.398        5.275        0.051      329.743       -3.328      869.111
12/30/2013  06:13:00       -4.300       -4.802       -0.586        6.929        6.467        5.928       48.007       41.828       35.145        0.008        0.006        6.446        3.270        0.257      329.743       -3.328      869.121
12/30/2013  06:14:00      -13.196       -4.906        4.745       16.372        9.160        7.405      268.026       83.902       54.827        0.031        0.020       14.079        9.367        0.443      329.729       -3.349      869.130
12/30/2013  06:15:00        5.918       15.550        6.889        5.262        6.172        7.088       27.686       38.095       50.237        0.022        0.006       16.638        3.114        0.035      329.749       -3.316      869.135
12/30/2013  06:16:00      -15.124        7.570        1.853        8.433        5.628        6.660       71.119       31.674       44.361        0.022        0.007       16.913        3.799        0.050      329.734       -3.343      869.135
12/30/2013  06:17:00       -3.580        1.555        2.704        5.796        4.076        7.034       33.594       16.616       49.484        0.006        0.005        3.903        4.813        1.521      329.693       -3.408      869.128
12/30/2013  06:18:00       -0.389        8.279        6.578        5.674        5.010        6.161       32.197       25.097       37.964        0.010        0.005        8.288        3.241        0.153      329.637       -3.501      869.119
12/30/2013  06:19:00      -26.357        3.355        2.816       13.036        5.935        5.339      169.927       35.222       28.507        0.047        0.012       26.570        4.201        0.025      329.678       -3.436      869.113
12/30/2013  06:20:00      -33.994      -18.674       -5.943        8.210        7.525        6.195       67.410       56.630       38.383        0.085        0.008       38.786        5.528        0.020      329.634       -3.507      869.116
12/30/2013  06:21:00      -31.916      -23.157       -6.128        7.130        6.363        5.240       50.836       40.486       27.455        0.086        0.006       39.432        2.143        0.003      329.605       -3.555      869.124
12/30/2013  06:22:00      -24.608      -18.000        0.035        9.579        7.912        7.342       91.761       62.605       53.903        0.057        0.010       30.489        6.381        0.044      329.567       -3.616      869.112
12/30/2013  06:23:00      -52.948       -7.895       -7.645       17.548       12.310        7.975      307.917      151.540       63.597        0.172        0.026       53.534        8.058        0.023      329.579       -3.597      869.109
12/30/2013  06:24:00      -68.174      -18.162       -3.338       19.515       13.248       10.655      380.820      175.519      113.528        0.283        0.033       70.551       10.664        0.023      329.560       -3.627      869.099
12/30/2013  06:25:00      -89.668       -7.099       -6.903       26.049       15.837       15.192      678.574      250.804      230.799        0.465        0.058       89.948       11.867        0.017      329.481       -3.756      869.100
12/30/2013  06:26:00      -62.057       -5.355       -3.320       25.026       15.453       10.801      626.294      238.781      116.666        0.244        0.049       62.287        9.951        0.026      329.504       -3.721      869.103
12/30/2013  06:27:00      -43.941      -11.309       -0.722       19.585       17.066       12.550      383.563      291.233      157.502        0.145        0.042       45.373       12.331        0.074      329.399       -3.890      869.102
12/30/2013  06:28:00      -73.881       -3.665       -4.696       30.678       16.956       11.060      941.112      287.507      122.325        0.342        0.068       73.972       13.913        0.035      329.436       -3.829      869.107
12/30/2013  06:29:00      -93.600       -9.718       -4.869       23.794       16.795       12.573      566.134      282.075      158.090        0.494        0.050       94.104       12.298        0.017      329.485       -3.750      869.106
12/30/2013  06:30:00      -59.371      -23.513        4.396       31.620       27.127       17.777      999.822      735.861      316.014        0.307        0.103       63.857       12.224        0.037      329.368       -3.942      869.104
12/30/2013  06:31:00      -86.786      -39.909       -3.973       24.407       24.286       14.776      595.709      589.826      218.333        0.527        0.070       95.522       12.644        0.018      329.482       -3.756      869.100
12/30/2013  06:32:00      -39.377      -22.633        5.530       31.462       19.293       14.648      989.884      372.221      214.560        0.183        0.079       45.418       12.188        0.072      329.596       -3.568      869.101
12/30/2013  06:33:00      -25.070      -30.901       13.993       33.065       19.393       17.384     1093.292      376.087      302.189        0.178        0.089       39.791       17.840        0.201      329.664       -3.457      869.111
12/30/2013  06:34:00      -36.176      -25.738        4.536       23.115       14.913       12.205      534.291      222.384      148.962        0.145        0.045       44.397        9.368        0.045      329.619       -3.531      869.113
12/30/2013  06:35:00      -58.573      -31.778       -3.637       22.430       14.016       11.836      503.127      196.460      140.094        0.265        0.042       66.638        9.016        0.018      329.600       -3.562      869.118
12/30/2013  06:36:00      -38.234      -32.408        2.397       23.739       21.669       12.624      563.564      469.558      159.374        0.185        0.060       50.121       12.762        0.065      329.646       -3.486      869.129
12/30/2013  06:37:00      -19.503      -17.420        4.970       32.537       19.339       12.896     1058.680      373.984      166.299        0.115        0.080       26.150       14.888        0.324      329.639       -3.499      869.140
12/30/2013  06:38:00       -7.909       -2.291        5.745       18.642        9.915       13.183      347.513       98.314      173.789        0.036        0.031        8.235       12.481        2.297      329.641       -3.495      869.150
12/30/2013  06:39:00      -53.399       -9.199       -0.151       18.055       10.788        7.106      325.977      116.385       50.500        0.171        0.025       54.185        4.243        0.006      329.564       -3.621      869.153
12/30/2013  06:40:00      -29.092      -10.495        0.300       17.962       13.316        9.543      322.622      177.323       91.074        0.077        0.030       30.927        9.839        0.101      329.626       -3.519      869.161
12/30/2013  06:41:00      -44.836        8.076        1.698       33.227       13.711       12.183     1104.033      187.986      148.423        0.176        0.072       45.558       15.435        0.115      329.520       -3.693      869.180
12/30/2013  06:42:00      -49.577        8.100       -5.156       11.571       17.240        6.396      133.889      297.226       40.914        0.151        0.024       50.234        4.771        0.009      329.553       -3.639      869.179
12/30/2013  06:43:00      -33.423        0.336       -2.843        7.212        7.359        5.584       52.008       54.149       31.179        0.063        0.007       33.425        3.546        0.011      329.552       -3.643      869.182
12/30/2013  06:44:00      -47.340        8.570       -1.241        9.001        6.546        8.008       81.015       42.844       64.130        0.125        0.009       48.109        5.669        0.014      329.661       -3.463      869.185
12/30/2013  06:45:00      -49.113      -10.058       -7.687        6.082       14.813        6.318       36.994      219.438       39.918        0.143        0.015       50.132        2.283        0.002      329.593       -3.573      869.191
12/30/2013  06:46:00      -50.004      -22.041       -7.572        7.432        6.424        7.124       55.227       41.274       50.755        0.160        0.007       54.646        3.572        0.004      329.395       -3.898      869.194
12/30/2013  06:47:00      -64.483      -14.078      -10.415        7.743       10.568        7.368       59.948      111.674       54.290        0.235        0.011       66.002        3.793        0.003      329.334       -3.999      869.206
12/30/2013  06:48:00      -51.743       -5.433       -5.869       26.410       15.536        9.881      697.480      241.363       97.627        0.189        0.052       52.027       12.890        0.061      329.190       -4.232      869.218
12/30/2013  06:49:00      -70.124      -16.429       -5.710       21.201       16.518       13.198      449.478      272.847      174.178        0.306        0.045       72.023       10.762        0.022      329.159       -4.283      869.224
12/30/2013  06:50:00      -54.304      -14.481       -3.241       23.881       13.913       13.388      570.322      193.576      179.229        0.206        0.047       56.202       13.503        0.058      329.187       -4.238      869.235
12/30/2013  06:51:00      -66.809      -17.458       -8.809       12.277        9.022       11.150      150.731       81.402      124.320        0.260        0.018       69.052        4.103        0.004      329.241       -4.149      869.254
12/30/2013  06:52:00      -56.760      -23.114      -12.619       13.484       11.364        6.151      181.811      129.140       37.834        0.213        0.017       61.286        3.956        0.004      329.273       -4.097      869.266
12/30/2013  06:53:00      -48.404      -26.686       -7.157       14.715       12.494        8.309      216.520      156.112       69.036        0.177        0.022       55.273        6.959        0.016      329.453       -3.802      869.275
12/30/2013  06:54:00      -59.476      -12.068       -6.421       13.748       10.996        9.438      189.005      120.903       89.076        0.206        0.020       60.688        5.981        0.010      329.398       -3.893      869.283
12/30/2013  06:55:00      -62.685       -3.660       -5.331       19.123       15.174       12.127      365.673      230.253      147.063        0.236        0.037       62.792       11.092        0.031      329.353       -3.966      869.294
12/30/2013  06:56:00      -85.423      -25.104      -12.166       20.950       14.340       12.763      438.893      205.626      162.891        0.444        0.040       89.036        7.601        0.007      329.281       -4.083      869.308
12/30/2013  06:57:00      -59.370      -16.922      -10.864       10.937        9.801        7.828      119.622       96.065       61.277        0.210        0.014       61.735        5.322        0.007      329.260       -4.117      869.311
12/30/2013  06:58:00      -35.194      -27.276      -16.849       14.071       14.620        8.751      198.000      213.744       76.582        0.138        0.024       44.527        4.823        0.012      329.310       -4.036      869.314
12/30/2013  06:59:00      -57.322      -17.050      -12.428       13.588       16.306       10.192      184.629      265.880      103.868        0.214        0.028       59.804        7.857        0.017      329.233       -4.162      869.319
12/30/2013  07:00:00      -66.281      -13.971      -10.568       17.329       12.954        9.085      300.293      167.810       82.531        0.263        0.028       67.738        7.209        0.011      329.196       -4.224      869.329
12/30/2013  07:01:00      -87.868       -4.991      -14.429       13.984       11.043        9.342      195.553      121.957       87.277        0.418        0.020       88.010        5.814        0.004      329.161       -4.279      869.343
12/30/2013  07:02:00      -77.280        1.594       -6.456       30.124       21.967       15.456      907.461      482.547      238.892        0.382        0.081       77.297       14.127        0.033      329.162       -4.279      869.351
12/30/2013  07:03:00     -108.754      -11.273       -7.288       39.172       16.327       12.680     1534.417      266.579      160.790        0.698        0.098      109.337       15.514        0.020      329.170       -4.265      869.358
12/30/2013  07:04:00     -110.778      -41.129       -9.411       24.870       18.334       19.377      618.512      336.135      375.473        0.769        0.067      118.166       15.799        0.018      329.200       -4.217      869.364
12/30/2013  07:05:00      -88.089      -39.900      -13.250       22.007       24.591       15.953      484.314      604.704      254.511        0.544        0.067       96.704        6.409        0.004      329.236       -4.156      869.374
12/30/2013  07:06:00     -106.062      -17.881      -12.387       16.804       15.025       13.626      282.381      225.746      185.669        0.621        0.035      107.558        7.901        0.005      329.155       -4.291      869.374
12/30/2013  07:07:00      -93.680       -9.861      -10.042       23.047       18.407       14.711      531.163      338.827      216.425        0.503        0.054       94.198       11.271        0.014      329.161       -4.280      869.383
12/30/2013  07:08:00      -91.023      -14.967       -7.351       18.815       19.190       14.055      354.015      368.272      197.540        0.474        0.046       92.245       10.359        0.013      329.231       -4.164      869.383
12/30/2013  07:09:00      -86.102      -18.503       -4.451       22.386       17.549       13.313      501.144      307.972      177.238        0.438        0.049       88.067       12.670        0.021      329.315       -4.028      869.387
12/30/2013  07:10:00      -87.716      -12.415       -5.151       25.061       15.812       12.354      628.062      250.013      152.624        0.445        0.052       88.590       12.206        0.019      329.354       -3.965      869.388
12/30/2013  07:11:00     -136.392       -8.526      -12.536       21.047       16.138       11.154      442.977      260.437      124.418        0.983        0.041      136.658        8.306        0.004      329.298       -4.056      869.385
12/30/2013  07:12:00     -112.311       -6.480       -3.996       39.267       28.246       20.760     1541.864      797.831      430.974        0.772        0.139      112.498       22.544        0.040      329.273       -4.097      869.379
12/30/2013  07:13:00      -45.409       -8.507        3.028       39.423       31.906       23.483     1554.150     1017.995      551.443        0.263        0.156       46.199       22.492        0.237      329.281       -4.083      869.371
12/30/2013  07:14:00      -94.518      -18.163       -8.197       28.506       25.079       14.775      812.606      628.956      218.303        0.550        0.083       96.248       10.076        0.011      329.283       -4.079      869.355
12/30/2013  07:15:00      -85.837      -26.499       -4.694       33.110       25.964       16.867     1096.299      674.137      284.504        0.507        0.103       89.834       14.364        0.026      329.320       -4.021      869.342
12/30/2013  07:16:00     -101.216      -24.517       -7.962       24.967       18.224       12.935      623.364      332.117      167.318        0.602        0.056      104.143        9.379        0.008      329.293       -4.063      869.334
12/30/2013  07:17:00     -115.756      -24.350      -13.150       17.631       18.229       12.841      310.859      332.305      164.904        0.749        0.040      118.289        8.874        0.006      329.223       -4.177      869.332
12/30/2013  07:18:00     -115.151       -8.670      -16.574       21.736       22.213       15.301      472.461      493.406      234.134        0.740        0.060      115.477       10.729        0.009      329.198       -4.217      869.327
12/30/2013  07:19:00     -111.435      -14.602       -7.200       30.895       19.515       18.107      954.490      380.836      327.863        0.717        0.083      112.388       14.615        0.017      329.183       -4.243      869.332
12/30/2013  07:20:00     -114.541       -3.062       -7.400       29.123       22.937       20.564      848.169      526.087      422.872        0.749        0.090      114.582       15.685        0.019      329.196       -4.222      869.336
12/30/2013  07:21:00     -102.799      -15.940       -4.590       33.850       30.289       21.095     1145.819      917.398      445.018        0.668        0.125      104.027       19.637        0.036      329.152       -4.295      869.340
12/30/2013  07:22:00     -108.279       18.331      -10.354       55.653       35.103       20.211     3097.202     1232.252      408.488        0.845        0.237      109.820       21.908        0.040      329.242       -4.146      869.330
12/30/2013  07:23:00     -158.807       25.162      -14.345       30.417       28.532       15.333      925.206      814.071      235.087        1.402        0.099      160.788       14.984        0.009      329.334       -3.996      869.328
12/30/2013  07:24:00     -138.924       23.828      -12.178       24.097       21.107       12.912      580.651      445.497      166.710        1.060        0.060      140.953        5.631        0.002      329.339       -3.990      869.329
12/30/2013  07:25:00     -123.200        4.658       -4.820       43.225       32.048       20.837     1868.385     1027.087      434.190        0.928        0.166      123.288       23.555        0.037      329.318       -4.022      869.335
12/30/2013  07:26:00      -96.277      -28.949      -11.010       35.746       31.211       15.810     1277.772      974.114      249.956        0.636        0.125      100.535        9.755        0.009      329.297       -4.057      869.326
12/30/2013  07:27:00     -103.322       -9.852      -11.543       36.387       24.120       18.187     1324.014      581.777      330.776        0.657        0.112      103.790       19.660        0.036      329.247       -4.138      869.319
12/30/2013  07:28:00     -116.951       -1.077      -13.083       52.210       30.498       17.899     2725.919      930.128      320.388        0.891        0.199      116.956       20.064        0.029      329.257       -4.123      869.313
12/30/2013  07:29:00     -148.065       -5.975      -10.292       31.950       26.595       21.937     1020.834      707.310      481.210        1.214        0.110      148.186       21.113        0.020      329.193       -4.226      869.314
12/30/2013  07:30:00     -152.129      -12.806      -20.016       27.372       39.033       23.102      749.204     1523.590      533.699        1.326        0.140      152.667       16.029        0.011      329.224       -4.176      869.317
12/30/2013  07:31:00     -111.523       -9.640       -2.663       33.347       47.372       22.940     1112.033     2244.133      526.225        0.821        0.194      111.939       13.748        0.015      329.201       -4.215      869.323
12/30/2013  07:32:00     -150.933       -4.683      -18.788       31.466       26.896       25.411      990.124      723.396      645.699        1.276        0.118      151.006       21.399        0.020      329.247       -4.139      869.319
12/30/2013  07:33:00     -142.069        4.623       -8.800       28.035       32.122       20.878      785.947     1031.851      435.905        1.127        0.113      142.144       15.338        0.012      329.202       -4.212      869.325
12/30/2013  07:34:00     -118.754       -5.069       -6.840       33.471       28.513       16.964     1120.314      812.998      287.763        0.820        0.111      118.862       14.162        0.014      329.225       -4.175      869.338
12/30/2013  07:35:00     -131.494        2.198       -8.478       32.937       23.488       15.890     1084.826      551.681      252.489        0.963        0.094      131.513       15.195        0.013      329.324       -4.013      869.354
12/30/2013  07:36:00     -112.766       -1.812       -6.846       40.822       21.536       19.985     1666.430      463.795      399.387        0.765        0.126      112.781       21.917        0.038      329.296       -4.059      869.367
12/30/2013  07:37:00      -66.525       -8.732       -5.448       41.704       21.562       17.065     1739.182      464.907      291.209        0.351        0.125       67.095       20.633        0.095      329.279       -4.086      869.371
12/30/2013  07:38:00      -90.095      -10.000       -6.653       37.814       25.031       18.222     1429.898      626.564      332.038        0.532        0.119       90.648       19.857        0.048      329.361       -3.953      869.372
12/30/2013  07:39:00      -75.978      -17.384       -2.564       28.391       31.492       15.117      806.075      991.733      228.523        0.405        0.101       77.942       15.279        0.038      329.345       -3.980      869.375
12/30/2013  07:40:00      -87.937      -28.036       -9.215       12.695       26.722       12.176      161.164      714.063      148.264        0.481        0.051       92.298        5.393        0.003      329.416       -3.863      869.375
12/30/2013  07:41:00      -88.377      -18.522       -5.896       36.754       31.065       16.360     1350.845      965.017      267.641        0.539        0.129       90.297       16.963        0.035      329.348       -3.974      869.383
12/30/2013  07:42:00     -113.624       -0.973      -10.442       30.524       26.652       19.569      931.688      710.350      382.944        0.752        0.101      113.628       12.440        0.012      329.336       -3.995      869.392
12/30/2013  07:43:00      -99.398        2.980       -7.255       41.988       32.562       20.629     1763.011     1060.287      425.560        0.659        0.162       99.443       21.072        0.045      329.360       -3.956      869.399
12/30/2013  07:44:00      -82.419       13.304       -6.240       36.390       28.018       21.573     1324.248      785.017      465.375        0.479        0.129       83.486       19.016        0.052      329.388       -3.910      869.406
12/30/2013  07:45:00      -84.659       12.353      -13.328       38.679       25.961       17.153     1496.030      673.952      294.209        0.498        0.123       85.555       13.282        0.024      329.396       -3.896      869.401
12/30/2013  07:46:00     -131.054       14.128      -12.975       31.287       24.957       14.791      978.885      622.864      218.759        0.968        0.091      131.813        4.214        0.001      329.468       -3.778      869.396
12/30/2013  07:47:00     -127.095       23.754      -12.110       38.693       23.970       17.398     1497.117      574.568      302.707        0.962        0.119      129.295       16.579        0.016      329.517       -3.698      869.388
12/30/2013  07:48:00     -121.896       13.774       -8.774       26.244       32.731       20.615      688.733     1071.295      424.967        0.865        0.109      122.672        9.917        0.007      329.500       -3.725      869.384
12/30/2013  07:49:00     -111.907       15.077       -7.300       26.815       23.632       15.131      719.048      558.477      228.948        0.715        0.075      112.918       11.974        0.011      329.574       -3.605      869.383
12/30/2013  07:50:00     -103.097       -0.922      -10.639       31.316       30.052       16.648      980.679      903.107      277.167        0.645        0.108      103.101        9.855        0.009      329.644       -3.490      869.379
12/30/2013  07:51:00      -92.340        4.710       -2.056       46.033       35.418       28.602     2119.021     1254.413      818.072        0.637        0.210       92.460       20.705        0.050      329.661       -3.463      869.379
12/30/2013  07:52:00     -140.942       30.290       -9.033       43.304       26.885       14.664     1875.217      722.808      215.041        1.184        0.141      144.160        5.040        0.001      329.614       -3.540      869.378
12/30/2013  07:53:00     -118.399       11.882       -0.142       48.768       28.324       18.925     2378.300      802.260      358.139        0.885        0.177      118.994       24.385        0.042      329.668       -3.451      869.368
12/30/2013  07:54:00     -153.661       16.838      -12.864       27.621       19.714       11.858      762.918      388.633      140.617        1.268        0.065      154.581        7.438        0.002      329.631       -3.510      869.366
12/30/2013  07:55:00     -158.099       -3.005      -17.771       29.990       17.225       20.589      899.407      296.702      423.921        1.347        0.081      158.128       17.699        0.013      329.626       -3.519      869.375
12/30/2013  07:56:00      -92.530        0.153       -8.129       22.822       23.548       17.498      520.843      554.493      306.191        0.500        0.069       92.531       13.617        0.022      329.620       -3.529      869.362
12/30/2013  07:57:00      -96.694        1.278      -20.658       19.735       18.955       11.708      389.489      359.282      137.083        0.533        0.044       96.703       11.128        0.013      329.770       -3.284      869.368
12/30/2013  07:58:00      -70.889      -12.395      -16.017       16.323       16.048        9.767      266.432      257.523       95.387        0.303        0.031       71.965        6.283        0.008      329.867       -3.125      869.362
12/30/2013  07:59:00      -77.131      -32.783      -11.045       15.375       14.167       12.507      236.386      200.710      156.419        0.387        0.030       83.809        9.056        0.012      329.894       -3.080      869.355
12/30/2013  08:00:00      -83.134      -29.977      -13.656       16.912       21.030       13.137      286.022      442.282      172.579        0.445        0.045       88.373       11.158        0.016      329.907       -3.060      869.352
12/30/2013  08:01:00      -88.040      -63.042       -5.475       27.480       19.338       14.802      755.124      373.949      219.096        0.655        0.067      108.283        9.790        0.008      329.980       -2.941      869.347
12/30/2013  08:02:00     -105.922      -51.011       -7.207       22.066       16.912       15.718      486.888      286.019      247.050        0.745        0.051      117.565       12.795        0.012      330.023       -2.871      869.349
12/30/2013  08:03:00     -113.602      -36.149      -13.842       16.588       19.550       13.325      275.170      382.213      177.560        0.762        0.042      119.215        9.492        0.006      330.038       -2.845      869.353
12/30/2013  08:04:00      -83.038      -22.273       -0.325       26.325       22.894       14.955      693.020      524.139      223.653        0.442        0.072       85.974       14.470        0.028      330.083       -2.771      869.370
12/30/2013  08:05:00     -105.422       -5.363       -4.335       26.752       16.155       12.029      715.659      260.986      144.706        0.614        0.056      105.558       10.535        0.010      330.143       -2.674      869.377
12/30/2013  08:06:00     -118.390      -13.409       -6.758       14.908       12.058       13.402      222.234      145.391      179.616        0.739        0.027      119.147       10.795        0.008      330.196       -2.587      869.396
12/30/2013  08:07:00      -97.009      -16.133       -5.342       21.612       16.611       13.645      467.068      275.916      186.194        0.531        0.046       98.341       11.435        0.014      330.165       -2.638      869.412
12/30/2013  08:08:00      -83.783       -9.294      -12.075       22.739       19.279       17.328      517.042      371.673      300.263        0.422        0.059       84.297       15.432        0.034      330.189       -2.599      869.424
12/30/2013  08:09:00      -72.331        2.390       -9.189       29.200       19.950       16.320      852.614      398.014      266.347        0.342        0.076       72.371       16.158        0.050      330.227       -2.534      869.433
12/30/2013  08:10:00      -63.814      -11.882       -5.831       14.567       14.001        9.802      212.188      196.039       96.071        0.238        0.025       64.910        5.830        0.008      330.314       -2.393      869.442
12/30/2013  08:11:00      -31.440      -23.069       -1.787        9.498       10.349        6.678       90.214      107.092       44.594        0.088        0.012       38.996        4.353        0.012      330.398       -2.255      869.448
12/30/2013  08:12:00      -18.743       -2.041        2.817       11.278        6.570       10.522      127.192       43.170      110.709        0.032        0.014       18.854        6.192        0.108      330.540       -2.023      869.451
12/30/2013  08:13:00      -13.942        0.909       -0.143        5.961        4.617        5.077       35.537       21.320       25.774        0.014        0.004       13.971        3.075        0.048      330.506       -2.077      869.453
12/30/2013  08:14:00       -6.411       -1.802       -0.605        6.091        5.590        4.803       37.101       31.244       23.065        0.007        0.005        6.659        3.808        0.327      330.701       -1.756      869.452
12/30/2013  08:15:00      -29.450      -11.162       -3.764        7.933        7.907        6.216       62.925       62.515       38.641        0.059        0.008       31.495        4.314        0.019      330.503       -2.082      869.454
12/30/2013  08:16:00      -27.490        2.579       -6.458       10.399        7.742        7.141      108.129       59.946       50.991        0.051        0.011       27.611        4.007        0.021      330.524       -2.048      869.467
12/30/2013  08:17:00      -36.250      -17.326        1.313       17.193       21.045       11.213      295.592      442.911      125.741        0.124        0.043       40.177       10.184        0.064      330.542       -2.018      869.467
12/30/2013  08:18:00      -46.798      -32.537       -5.639       15.430       13.880        8.687      238.074      192.643       75.459        0.189        0.025       56.997        6.698        0.014      330.439       -2.189      869.463
12/30/2013  08:19:00      -32.028      -39.689        0.642       20.528       14.572       13.709      421.386      212.343      187.939        0.171        0.041       51.000       11.737        0.053      330.516       -2.059      869.462
12/30/2013  08:20:00      -36.645      -41.482        4.215       23.804       18.100       14.751      566.622      327.603      217.579        0.210        0.056       55.349       14.765        0.071      330.664       -1.817      869.473
12/30/2013  08:21:00      -30.939      -30.608        9.383       34.536       23.003       17.245     1192.713      529.142      297.385        0.200        0.101       43.520       20.500        0.222      330.687       -1.781      869.489
12/30/2013  08:22:00       -1.040      -14.727       12.152       25.246       23.844       13.945      637.379      568.536      194.460        0.088        0.070       14.763       15.528        1.106      330.801       -1.594      869.496
12/30/2013  08:23:00      -36.965      -15.574        6.936       33.337       16.243       16.930     1111.373      263.835      286.609        0.166        0.083       40.112       20.908        0.272      330.877       -1.468      869.511
12/30/2013  08:24:00      -28.678      -27.213       -2.991       16.055       15.036        9.424      257.750      226.071       88.814        0.107        0.029       39.535        6.044        0.023      330.602       -1.919      869.527
12/30/2013  08:25:00      -46.101      -30.107       -4.710       20.274       13.781       12.654      411.031      189.929      160.117        0.191        0.038       55.062        6.066        0.012      330.613       -1.902      869.536
12/30/2013  08:26:00      -59.198      -13.072       -1.115       17.532       16.511       12.470      307.365      272.602      155.501        0.221        0.037       60.624        7.339        0.015      330.633       -1.869      869.544
12/30/2013  08:27:00      -51.678      -29.066       -7.421       10.703        9.823        5.762      114.564       96.498       33.203        0.191        0.012       59.292        3.751        0.004      330.689       -1.778      869.559
12/30/2013  08:28:00       -7.672       -7.493        8.017       11.751        9.288       12.927      138.084       86.261      167.105        0.029        0.020       10.724        8.997        0.704      331.081       -1.133      869.571
12/30/2013  08:29:00      -11.960        4.575       24.410       10.663       11.484       14.159      113.692      131.887      200.480        0.060        0.022       12.805       12.030        0.883      331.256       -0.848      869.591
12/30/2013  08:30:00      -11.216       11.835       32.787       11.658       14.443        8.090      135.901      208.593       65.445        0.088        0.020       16.305        7.383        0.205      331.318       -0.743      869.608
12/30/2013  08:31:00       -8.690       14.268       20.261        9.913       13.872        5.642       98.274      192.446       31.835        0.051        0.016       16.706        3.625        0.047      331.329       -0.727      869.617
12/30/2013  08:32:00      -11.090       10.791       14.887        8.455       10.318       14.217       71.485      106.466      202.111        0.042        0.019       15.474        7.333        0.225      331.425       -0.568      869.624
12/30/2013  08:33:00      -40.661       16.897       -8.346       13.081        8.456        7.332      171.125       71.499       53.760        0.115        0.015       44.032        5.237        0.014      330.892       -1.444      869.632
12/30/2013  08:34:00      -40.891       10.653       -2.611        4.479        7.879        4.659       20.062       62.073       21.706        0.095        0.005       42.256        2.328        0.003      330.843       -1.526      869.642
12/30/2013  08:35:00      -32.921       11.224        2.632       10.518        9.626        7.321      110.627       92.655       53.593        0.074        0.013       34.782        5.982        0.030      330.911       -1.413      869.645
12/30/2013  08:36:00      -28.285        1.560        3.266        9.830        6.614        6.389       96.626       43.740       40.823        0.050        0.009       28.328        6.464        0.052      330.949       -1.350      869.645
12/30/2013  08:37:00      -16.231       -0.061        6.571       15.193        4.966        9.450      230.822       24.656       89.309        0.033        0.017       16.231        9.779        0.363      331.240       -0.873      869.651
12/30/2013  08:38:00       17.796       14.089       10.765       11.325       11.213       12.427      128.249      125.734      154.425        0.052        0.020       22.698        9.252        0.166      331.185       -0.964      869.644
12/30/2013  08:39:00       52.089       45.727       14.448       28.405       21.848       24.898      806.821      477.346      619.923        0.346        0.095       69.313       17.178        0.061      331.169       -0.989      869.638
12/30/2013  08:40:00       52.569       51.727       46.151       33.215       26.692       28.565     1103.219      712.443      815.958        0.510        0.132       73.751       20.897        0.080      331.055       -1.176      869.646
12/30/2013  08:41:00       31.964       59.494       57.254       27.246       22.975       19.275      742.350      527.872      371.527        0.474        0.082       67.537       11.819        0.031      331.177       -0.977      869.658
12/30/2013  08:42:00       84.595       68.919       42.021       42.572       29.224       30.321     1812.364      854.050      919.364        0.863        0.179      109.116       23.500        0.046      331.076       -1.141      869.661
12/30/2013  08:43:00       13.969       55.369       63.264       49.776       39.350       37.297     2477.637     1548.456     1391.051        0.634        0.271       57.104       38.313        0.450      331.291       -0.788      869.673
12/30/2013  08:44:00       38.417       51.612       58.085       41.203       30.720       34.380     1697.662      943.735     1181.957        0.567        0.191       64.340       12.619        0.038      331.280       -0.807      869.682
12/30/2013  08:45:00       18.114       42.574       41.676       27.627       26.150       26.246      763.255      683.813      688.873        0.301        0.107       46.267       12.800        0.077      331.283       -0.802      869.692
12/30/2013  08:46:00       -7.865       34.520       62.093       20.518       32.955       23.093      420.989     1086.008      533.304        0.357        0.102       35.405       19.624        0.307      331.455       -0.519      869.683
12/30/2013  08:47:00       44.265       50.373       64.414       38.006       32.597       21.106     1444.471     1062.595      445.475        0.580        0.148       67.059       16.852        0.063      331.226       -0.894      869.688
12/30/2013  08:48:00       87.276       76.720       -8.412       30.537       18.524       23.412      932.482      343.120      548.114        0.770        0.091      116.203       11.681        0.010      330.956       -1.340      869.695
12/30/2013  08:49:00        8.110       31.155       14.833       27.439       31.129       22.664      752.901      969.045      513.672        0.175        0.112       32.194        8.830        0.075      331.241       -0.871      869.704
12/30/2013  08:50:00        4.773       34.550       59.416       22.726       26.851       13.162      516.492      720.962      173.241        0.308        0.071       34.879       11.503        0.109      331.522       -0.408      869.715
12/30/2013  08:51:00       -6.032       23.320       57.979       17.163       31.334       16.695      294.558      981.839      278.724        0.275        0.078       24.088       15.653        0.422      331.429       -0.561      869.725
12/30/2013  08:52:00        7.976       44.801       46.051       29.954       31.116       25.932      897.229      968.199      672.485        0.336        0.127       45.505       17.406        0.146      331.256       -0.846      869.728
12/30/2013  08:53:00       34.832       56.854       38.950       32.410       25.156       28.171     1050.424      632.825      793.621        0.422        0.124       66.676       11.813        0.031      331.318       -0.742      869.722
12/30/2013  08:54:00       -9.754       36.581       48.975       15.547       27.866       27.636      241.712      776.505      763.774        0.281        0.089       37.859       15.678        0.171      331.515       -0.420      869.731
12/30/2013  08:55:00       32.313       61.546       66.918       37.499       33.768       29.140     1406.207     1140.274      849.117        0.635        0.170       69.513       20.079        0.083      331.258       -0.843      869.742
12/30/2013  08:56:00       71.360       81.649       51.427       48.816       35.814       38.578     2382.962     1282.653     1488.299        0.978        0.258      108.438       35.568        0.108      331.108       -1.089      869.742
12/30/2013  08:57:00       34.144       70.885       63.289       27.949       23.794       25.456      781.147      566.174      648.005        0.610        0.100       78.680       15.527        0.039      331.154       -1.012      869.744
12/30/2013  08:58:00       44.131       48.551       38.774       35.967       24.528       29.089     1293.624      601.625      846.191        0.427        0.137       65.611       16.122        0.060      331.224       -0.898      869.748
12/30/2013  08:59:00       37.609       26.354        7.308       26.697       23.455       23.975      712.741      550.152      574.794        0.200        0.092       45.923       17.867        0.151      331.221       -0.903      869.757
12/30/2013  09:00:00       56.682       52.612       22.944       33.687       25.964       23.946     1134.811      674.103      573.427        0.444        0.119       77.336       22.683        0.086      331.244       -0.865      869.751
12/30/2013  09:01:00       63.823       61.120       30.500       41.299       39.620       25.143     1705.606     1569.731      632.189        0.632        0.195       88.369       17.411        0.039      331.302       -0.770      869.743
12/30/2013  09:02:00       36.138       32.288       62.266       40.870       31.805       23.368     1670.374     1011.551      546.081        0.473        0.161       48.461       16.856        0.121      331.536       -0.385      869.758
12/30/2013  09:03:00       58.652       65.882       64.595       57.584       39.459       29.430     3315.929     1556.980      866.104        0.885        0.287       88.207       24.483        0.077      331.357       -0.680      869.762
12/30/2013  09:04:00       59.036       58.251       41.299       30.254       22.240       28.021      915.332      494.636      785.184        0.539        0.110       82.937       20.563        0.061      331.214       -0.918      869.777
12/30/2013  09:05:00       79.867       70.368       43.280       41.615       29.592       36.232     1731.812      875.713     1312.773        0.856        0.196      106.444       29.576        0.077      331.279       -0.808      869.776
12/30/2013  09:06:00       62.328       62.604       60.523       36.265       28.496       25.625     1315.154      812.041      656.666        0.712        0.139       88.340       22.075        0.062      331.243       -0.868      869.789
12/30/2013  09:07:00       91.868       71.281       45.968       33.011       21.699       24.127     1089.703      470.857      582.102        0.889        0.107      116.278       11.082        0.009      331.142       -1.032      869.784
12/30/2013  09:08:00       75.748       79.686       69.598       39.616       32.728       31.480     1569.456     1071.102      991.017        1.028        0.182      109.944       28.640        0.068      331.244       -0.866      869.798
12/30/2013  09:09:00       69.452       64.019       41.470       54.406       31.120       38.443     2959.968      968.442     1477.832        0.802        0.270       94.456       37.177        0.155      331.306       -0.763      869.801
12/30/2013  09:10:00       35.606       56.962       67.447       28.505       33.862       21.751      812.534     1146.602      473.096        0.575        0.122       67.175       20.990        0.098      331.445       -0.536      869.804
12/30/2013  09:11:00       13.330       62.815       75.686       24.558       34.272       18.346      603.105     1174.576      336.559        0.598        0.106       64.213       21.910        0.116      331.505       -0.435      869.811
12/30/2013  09:12:00       95.219       62.656       37.603       29.362       21.089       31.471      862.154      444.765      990.432        0.835        0.115      113.984       20.884        0.034      331.282       -0.803      869.830
12/30/2013  09:13:00       64.815       45.564       27.411       42.492       19.404       30.710     1805.529      376.524      943.111        0.508        0.156       79.228       32.445        0.168      331.241       -0.872      869.834
12/30/2013  09:14:00       25.368       24.920       37.724       47.327       27.441       29.372     2239.809      753.014      862.694        0.327        0.193       35.560       20.590        0.335      331.512       -0.426      869.838
12/30/2013  09:15:00       11.830       36.947       79.507       37.388       47.500       24.190     1397.828     2256.274      585.139        0.603        0.212       38.794       27.722        0.511      331.580       -0.313      869.858
12/30/2013  09:16:00       40.322       85.645       80.322       55.323       30.015       29.160     3060.672      900.916      850.293        1.011        0.241       94.662       29.686        0.098      331.382       -0.638      869.880
12/30/2013  09:17:00      110.055       87.716       19.303       27.476       30.266       26.299      754.946      916.053      691.619        1.127        0.118      140.734        9.332        0.004      331.206       -0.928      869.881
12/30/2013  09:18:00       86.192       90.712       48.420       44.623       33.422       36.554     1991.225     1117.005     1336.189        1.122        0.222      125.131       23.829        0.036      331.353       -0.686      869.865
12/30/2013  09:19:00      110.741       74.062       28.828       52.778       28.412       33.999     2785.477      807.253     1155.965        1.166        0.237      133.225       26.965        0.041      331.302       -0.770      869.857
12/30/2013  09:20:00       62.001       65.164       17.319       39.027       33.163       35.101     1523.076     1099.817     1232.061        0.612        0.193       89.947       29.015        0.104      331.431       -0.559      869.854
12/30/2013  09:21:00       27.409       64.810       61.922       41.809       32.298       30.502     1748.006     1043.148      930.348        0.625        0.186       70.367       16.924        0.058      331.504       -0.439      869.857
12/30/2013  09:22:00       64.167       93.252       82.080       42.365       43.368       37.255     1794.772     1880.771     1387.920        1.231        0.253      113.196       29.574        0.068      331.363       -0.669      869.876
12/30/2013  09:23:00       81.307       65.883       34.508       34.580       25.646       24.074     1195.749      657.704      579.548        0.729        0.122      104.649       12.630        0.015      331.260       -0.840      869.896
12/30/2013  09:24:00       19.601       80.916       81.361       38.498       43.949       32.360     1482.073     1931.486     1047.144        0.901        0.223       83.256       29.655        0.127      331.528       -0.399      869.916
12/30/2013  09:25:00       93.471      123.595       84.365       58.275       36.748       39.714     3395.951     1350.440     1577.199        1.873        0.316      154.959       37.733        0.059      331.296       -0.782      869.924
12/30/2013  09:26:00       79.659      113.989       87.091       44.907       44.233       42.254     2016.667     1956.547     1785.410        1.634        0.288      139.065       32.919        0.056      331.250       -0.856      869.928
12/30/2013  09:27:00       40.818      122.382      115.469       56.458       51.396       36.324     3187.546     2641.588     1319.426        1.856        0.357      129.010       34.610        0.072      331.243       -0.868      869.923
12/30/2013  09:28:00      122.687      106.496       60.476       31.218       28.414       31.842      974.579      807.337     1013.888        1.642        0.140      162.461       21.188        0.017      331.181       -0.969      869.931
12/30/2013  09:29:00       62.687       80.866       73.082       40.027       41.972       33.195     1602.196     1761.627     1101.941        1.014        0.223      102.318       30.622        0.090      331.327       -0.729      869.943
12/30/2013  09:30:00       83.224       84.543       51.317       37.584       33.871       39.739     1412.591     1147.264     1579.170        1.042        0.207      118.633       25.775        0.047      331.254       -0.850      869.955
12/30/2013  09:31:00        0.431       98.687      111.424       25.170       42.742       25.838      633.529     1826.872      667.598        1.264        0.156       98.688       26.893        0.074      331.302       -0.771      869.966
12/30/2013  09:32:00       79.667       51.108       47.866       50.767       45.811       44.091     2577.328     2098.604     1944.037        0.893        0.331       94.651       37.907        0.160      331.240       -0.873      869.993
12/30/2013  09:33:00       41.875       59.400       38.180       41.669       46.270       34.969     1736.274     2140.934     1222.811        0.592        0.255       72.676       26.788        0.136      331.319       -0.741      870.001
12/30/2013  09:34:00       49.618       52.035       23.445       47.148       39.242       40.119     2222.970     1539.925     1609.542        0.554        0.269       71.900       32.881        0.209      331.479       -0.478      870.000
12/30/2013  09:35:00      125.658       77.166        8.470       42.324       25.465       27.745     1791.286      648.469      769.761        1.251        0.160      147.461       18.120        0.015      331.215       -0.913      870.005
12/30/2013  09:36:00      121.772       85.733       -2.827       35.407       27.225       25.747     1253.653      741.181      662.912        1.242        0.133      148.925       16.413        0.012      331.072       -1.148      870.009
12/30/2013  09:37:00       97.372       69.093        6.171       35.881       37.533       35.208     1287.447     1408.755     1239.624        0.911        0.197      119.395       15.866        0.018      331.192       -0.951      870.018
12/30/2013  09:38:00       65.076       55.786       35.089       48.591       38.605       30.971     2361.067     1490.333      959.212        0.669        0.241       85.714       27.040        0.100      331.397       -0.614      870.013
12/30/2013  09:39:00       60.176       27.431       19.620       45.678       40.335       25.684     2086.435     1626.921      659.683        0.457        0.219       66.133       13.097        0.039      331.380       -0.641      870.012
12/30/2013  09:40:00      116.024       86.022       11.379       38.039       23.025       33.695     1446.969      530.129     1135.355        1.205        0.156      144.434       20.842        0.021      331.177       -0.975      870.026
12/30/2013  09:41:00      136.394       96.274       -3.813       30.429       25.294       24.658      925.933      639.808      608.015        1.503        0.109      166.949       11.599        0.005      331.082       -1.132      870.026
12/30/2013  09:42:00       83.955       70.965        8.778       30.673       33.227       32.553      940.836     1104.007     1059.675        0.763        0.155      109.929       12.140        0.012      331.189       -0.956      870.034
12/30/2013  09:43:00      112.660       86.961       14.436       28.463       24.003       22.327      810.162      576.139      498.504        1.117        0.094      142.318       15.839        0.012      331.110       -1.087      870.035
12/30/2013  09:44:00       92.515       78.729        2.329       31.753       19.967       23.590     1008.278      398.688      556.480        0.836        0.098      121.480       14.772        0.015      331.222       -0.903      870.034
12/30/2013  09:45:00       80.752       74.477        0.828       37.192       27.600       28.101     1383.261      761.762      789.686        0.750        0.147      109.853       16.277        0.022      331.242       -0.868      870.022
12/30/2013  09:46:00       97.471       75.476       12.474       27.706       26.878       27.264      767.597      722.448      743.352        0.879        0.112      123.277       18.339        0.022      331.326       -0.731      870.010
12/30/2013  09:47:00       88.845       68.709       24.329       25.204       21.006       27.709      635.230      441.251      767.782        0.752        0.092      112.314       18.848        0.028      331.320       -0.742      870.013
12/30/2013  09:48:00       67.802       45.635        0.539       23.084       23.117       18.240      532.886      534.374      332.692        0.404        0.070       81.729        8.977        0.012      331.356       -0.682      870.010
12/30/2013  09:49:00       52.502       42.789       13.437       33.087       30.564       22.502     1094.718      934.134      506.326        0.365        0.127       67.730        9.975        0.022      331.511       -0.427      870.001
12/30/2013  09:50:00       31.868       55.573       60.136       36.988       34.253       28.383     1368.114     1173.282      805.622        0.553        0.167       64.062       20.325        0.101      331.727       -0.071      869.995
12/30/2013  09:51:00       70.049       53.058       54.459       44.693       36.315       39.972     1997.432     1318.811     1597.789        0.780        0.246       87.875       34.005        0.150      331.480       -0.475      870.009
12/30/2013  09:52:00       43.492       17.390       24.496       30.566       25.162       21.264      934.268      633.141      452.140        0.241        0.101       46.840       18.518        0.156      331.503       -0.440      870.020
12/30/2013  09:53:00       43.072       58.453       41.869       35.350       30.912       27.645     1249.612      955.565      764.255        0.500        0.148       72.608       17.009        0.055      331.678       -0.151      870.021
12/30/2013  09:54:00       57.064       11.218       32.421       40.925       46.407       34.760     1674.893     2153.601     1208.225        0.473        0.252       58.156       33.026        0.322      331.743       -0.045      870.021
12/30/2013  09:55:00       10.532       64.160       66.661       24.878       33.177       23.467      618.919     1100.683      550.710        0.547        0.114       65.019       18.417        0.080      331.916        0.239      870.030
12/30/2013  09:56:00        8.263       27.295       45.059       33.008       36.632       39.075     1089.507     1341.868     1526.844        0.340        0.198       28.519       24.284        0.725      331.897        0.208      870.039
12/30/2013  09:57:00       37.585       44.450       65.109       36.034       36.948       26.062     1298.448     1365.130      679.238        0.548        0.167       58.210       23.136        0.158      331.689       -0.133      870.041
12/30/2013  09:58:00       10.150       39.245       51.300       24.600       25.001       22.652      605.151      625.071      513.098        0.301        0.087       40.537       17.283        0.182      332.036        0.438      870.035
12/30/2013  09:59:00        9.461       41.150       57.818       31.726       34.264       24.545     1006.539     1174.029      602.454        0.395        0.139       42.224       18.645        0.195      331.907        0.225      870.033
12/30/2013  10:00:00       48.598       75.010       53.555       25.283       20.146       21.518      639.231      405.861      463.007        0.618        0.075       89.377       10.528        0.014      331.662       -0.178      870.013
12/30/2013  10:01:00       43.637       35.458       41.640       35.681       28.255       24.017     1273.126      798.338      576.808        0.377        0.132       56.227       22.400        0.159      331.835        0.108      869.992
12/30/2013  10:02:00       55.071       26.632       16.730       29.203       24.919       32.178      852.803      620.978     1035.451        0.327        0.125       61.173       18.242        0.089      331.950        0.296      869.981
12/30/2013  10:03:00       34.042       11.999        3.585       19.660       29.671       22.810      386.532      880.383      520.294        0.155        0.089       36.095       17.253        0.228      332.056        0.471      869.966
12/30/2013  10:04:00       20.007       38.007       31.101       31.408       36.937       34.004      986.432     1364.363     1156.286        0.316        0.175       42.951       23.339        0.295      332.274        0.830      869.948
12/30/2013  10:05:00       25.058       42.694       41.001       35.414       29.455       20.541     1254.176      867.584      421.940        0.334        0.127       49.504        8.090        0.027      332.286        0.850      869.929
12/30/2013  10:06:00        3.059       33.348       40.974       19.216       24.738       17.069      369.270      611.948      291.338        0.204        0.064       33.488       11.094        0.110      332.608        1.381      869.923
12/30/2013  10:07:00       -5.354       39.786       65.102       17.990       38.492       25.606      323.643     1481.632      655.677        0.416        0.123       40.145       25.328        0.398      332.509        1.218      869.920
12/30/2013  10:08:00       52.234       61.899       61.811       51.458       36.691       39.175     2647.884     1346.255     1534.650        0.795        0.276       80.993       38.646        0.228      332.000        0.378      869.917
12/30/2013  10:09:00       41.222       26.076       35.225       47.509       28.634       28.855     2257.082      819.895      832.600        0.376        0.195       48.777       23.229        0.227      332.110        0.559      869.919
12/30/2013  10:10:00       84.567       70.480       52.789       51.717       35.918       45.640     2674.613     1290.119     2082.997        1.048        0.302      110.087       41.797        0.144      331.955        0.305      869.909
12/30/2013  10:11:00       86.949       37.066       -0.618       31.461       32.736       24.012      989.790     1071.627      576.559        0.579        0.132       94.520       10.213        0.012      331.942        0.282      869.928
12/30/2013  10:12:00       52.690       55.265        0.191       38.273       33.515       19.841     1464.809     1123.277      393.672        0.441        0.149       76.358       17.681        0.054      332.196        0.702      869.923
12/30/2013  10:13:00       71.981       65.332       25.913       29.436       27.557       37.047      866.468      759.375     1372.448        0.656        0.150       97.209       14.839        0.023      332.232        0.761      869.920
12/30/2013  10:14:00       77.042       62.771       32.485       28.771       39.040       31.155      827.763     1524.126      970.626        0.713        0.166       99.376       25.179        0.064      332.215        0.734      869.922
12/30/2013  10:15:00       78.890       42.976       29.992       37.309       28.984       31.466     1391.978      840.070      990.137        0.610        0.161       89.836       21.013        0.055      332.099        0.541      869.908
12/30/2013  10:16:00       75.781       36.871       45.073       48.389       38.610       29.616     2341.539     1490.704      877.100        0.692        0.235       84.274       27.462        0.106      332.278        0.836      869.894
12/30/2013  10:17:00       66.244       72.864       50.235       28.486       21.101       27.841      811.432      445.255      775.115        0.713        0.102       98.476       17.578        0.032      332.178        0.672      869.892
12/30/2013  10:18:00       25.914       49.395       63.711       33.286       28.812       20.241     1107.944      830.113      409.706        0.476        0.117       55.780       20.503        0.135      332.506        1.211      869.884
12/30/2013  10:19:00       59.143       77.963       51.924       45.005       33.971       36.749     2025.478     1154.041     1350.514        0.840        0.227       97.858       26.629        0.074      332.424        1.077      869.868
12/30/2013  10:20:00       80.931       69.676       54.692       56.380       34.819       31.141     3178.741     1212.360      969.747        0.988        0.268      106.792       19.253        0.033      332.373        0.993      869.854
12/30/2013  10:21:00       60.440       90.930       72.511       39.595       33.523       26.447     1567.802     1123.774      699.461        1.028        0.170      109.184       16.501        0.023      332.502        1.206      869.820
12/30/2013  10:22:00       87.243       79.616       58.680       30.595       18.582       26.625      936.081      345.297      708.910        0.969        0.100      118.110       17.577        0.022      332.200        0.708      869.813
12/30/2013  10:23:00       79.913       79.008       52.316       30.577       21.174       25.517      934.956      448.358      651.125        0.870        0.102      112.376       15.693        0.020      332.261        0.810      869.801
12/30/2013  10:24:00       47.556       50.754       33.729       33.046       25.936       22.344     1092.032      672.696      499.246        0.412        0.113       69.552       16.083        0.053      332.471        1.156      869.790
12/30/2013  10:25:00        2.153        6.758       20.742       24.780       31.365       22.569      614.050      983.746      509.352        0.129        0.105        7.093       15.691        4.894      332.836        1.758      869.788
12/30/2013  10:26:00       49.175      -13.565       41.032       35.606       33.976       31.316     1267.802     1154.369      980.699        0.384        0.170       51.012       25.087        0.242      332.735        1.592      869.774
12/30/2013  10:27:00       52.823        5.129       11.918       33.696       23.393       26.888     1135.444      547.247      722.938        0.268        0.120       53.072       14.533        0.075      332.511        1.221      869.772
12/30/2013  10:28:00       15.635       47.860       79.574       38.457       55.539       41.293     1478.928     3084.589     1705.091        0.757        0.313       50.349       37.969        0.569      332.823        1.736      869.751
12/30/2013  10:29:00       81.525       70.088       33.329       38.969       30.402       34.047     1518.599      924.277     1159.168        0.814        0.180      107.511       24.501        0.052      332.329        0.921      869.743
12/30/2013  10:30:00       30.041       44.904       38.178       32.649       30.998       29.770     1065.935      960.869      886.240        0.364        0.146       54.026       22.916        0.180      332.731        1.585      869.715
12/30/2013  10:31:00       42.049       47.956       18.592       34.201       41.514       24.742     1169.736     1723.396      612.158        0.396        0.175       63.780       18.166        0.081      332.612        1.387      869.686
12/30/2013  10:32:00       37.588       57.914       51.778       45.081       51.009       41.319     2032.336     2601.967     1707.298        0.689        0.317       69.043       36.904        0.286      332.731        1.585      869.667
12/30/2013  10:33:00       16.619       77.511       88.885       43.803       48.538       46.422     1918.704     2355.976     2154.994        1.031        0.321       79.273       40.067        0.255      332.839        1.762      869.645
12/30/2013  10:34:00       51.503       79.912       71.915       48.528       43.788       42.193     2354.933     1917.423     1780.269        1.013        0.303       95.071       34.623        0.133      332.490        1.186      869.637
12/30/2013  10:35:00       90.695      102.366       58.492       48.855       22.840       36.625     2386.839      521.677     1341.391        1.319        0.212      136.764       28.476        0.043      332.359        0.970      869.628
12/30/2013  10:36:00       48.517       63.439       43.043       37.445       26.444       26.592     1402.160      699.308      707.140        0.552        0.140       79.865       12.024        0.023      332.618        1.397      869.631
12/30/2013  10:37:00       61.219       74.742       69.555       44.324       42.652       42.875     1964.631     1819.166     1838.295        0.990        0.281       96.613       33.941        0.123      332.666        1.478      869.626
12/30/2013  10:38:00       64.225       66.571       73.488       49.751       39.587       32.498     2475.135     1567.115     1056.128        0.953        0.255       92.501       21.430        0.054      332.700        1.533      869.614
12/30/2013  10:39:00      127.647       80.630       37.641       44.274       33.591       39.169     1960.182     1128.376     1534.230        1.442        0.231      150.980       12.930        0.007      332.421        1.071      869.609
12/30/2013  10:40:00       91.077       74.135       27.209       27.338       22.006       32.741      747.370      484.253     1071.971        0.842        0.115      117.435       15.965        0.018      332.517        1.230      869.618
12/30/2013  10:41:00       93.080       71.937       27.873       24.935       25.424       27.970      621.739      646.368      782.324        0.833        0.103      117.639       14.649        0.016      332.469        1.151      869.613
12/30/2013  10:42:00      129.744       80.243        9.822       31.708       30.134       27.159     1005.416      908.065      737.607        1.301        0.133      152.553       18.115        0.014      332.497        1.197      869.615
12/30/2013  10:43:00       26.738       78.341       53.426       41.314       34.233       29.849     1706.822     1171.878      890.971        0.674        0.188       82.778       18.298        0.049      332.886        1.842      869.594
12/30/2013  10:44:00        1.701       62.661       90.584       27.916       45.299       27.088      779.311     2052.031      733.777        0.785        0.178       62.684       27.843        0.197      333.045        2.103      869.587
12/30/2013  10:45:00       67.700      114.470       72.894       55.345       40.214       48.174     3063.092     1617.156     2320.710        1.500        0.350      132.991       44.457        0.112      332.774        1.657      869.568
12/30/2013  10:46:00       90.137       52.855       45.579       44.481       44.447       43.423     1978.543     1975.574     1885.530        0.942        0.292      104.490       23.071        0.049      332.741        1.600      869.569
12/30/2013  10:47:00       56.758       40.324       29.644       53.326       40.605       39.026     2843.673     1648.804     1523.022        0.587        0.301       69.624       33.682        0.234      332.980        1.997      869.558
12/30/2013  10:48:00       96.990       66.346        4.662       46.121       32.676       32.477     2127.110     1067.707     1054.779        0.904        0.212      117.511       16.630        0.020      332.928        1.910      869.541
12/30/2013  10:49:00      102.488       95.296       19.321       37.503       21.969       24.014     1406.454      482.648      576.679        1.121        0.123      139.947       13.873        0.010      332.689        1.515      869.523
12/30/2013  10:50:00       99.485       68.112       26.632       50.865       39.965       29.858     2587.255     1597.182      891.482        1.016        0.254      120.567       18.366        0.023      332.757        1.629      869.505
12/30/2013  10:51:00       80.617       58.226       15.502       25.241       28.608       23.106      637.118      818.417      533.907        0.606        0.099       99.446        5.017        0.003      332.635        1.425      869.489
12/30/2013  10:52:00       86.755       76.272        2.560       58.950       30.303       28.233     3475.093      918.250      797.085        0.927        0.260      115.515       23.231        0.040      332.702        1.537      869.464
12/30/2013  10:53:00       10.038       52.585       32.097       23.419       42.876       38.345      548.434     1838.347     1470.344        0.388        0.193       53.535       26.447        0.244      333.176        2.320      869.448
12/30/2013  10:54:00       69.260       68.418        6.288       31.649       25.243       30.432     1001.648      637.209      926.089        0.604        0.128       97.355       22.693        0.054      332.811        1.716      869.439
12/30/2013  10:55:00       30.242       51.959       -2.755       21.565       25.213       22.035      465.066      635.681      485.559        0.260        0.079       60.119       16.671        0.077      332.855        1.789      869.440
12/30/2013  10:56:00       23.650       96.540       -4.606       24.897       35.390       27.544      619.874     1252.447      758.655        0.627        0.132       99.395       23.864        0.058      332.799        1.696      869.426
12/30/2013  10:57:00       12.248       43.755       -1.237       22.493       30.154       20.817      505.929      909.244      433.339        0.196        0.092       45.437       16.920        0.139      332.967        1.976      869.432
12/30/2013  10:58:00       32.008       38.483        5.371       19.136       25.187       22.238      366.176      634.406      494.517        0.201        0.075       50.055       17.153        0.117      333.009        2.044      869.427
12/30/2013  10:59:00       16.918       36.862        4.165       18.605       28.367       20.885      346.153      804.677      436.185        0.162        0.079       40.559       17.421        0.184      333.075        2.152      869.436
12/30/2013  11:00:00       23.448       17.725       16.411       19.210       33.514       18.305      369.024     1123.217      335.088        0.148        0.091       29.394        9.686        0.109      333.054        2.118      869.438
12/30/2013  11:01:00       24.965       42.966        5.989       18.027       32.830       20.684      324.978     1077.777      427.822        0.217        0.092       49.693       17.275        0.121      333.073        2.150      869.450
12/30/2013  11:02:00       26.380       75.989      -11.088       23.539       23.847       20.909      554.074      568.659      437.201        0.408        0.078       80.438       18.818        0.055      333.000        2.029      869.440
12/30/2013  11:03:00       61.357       61.547      -12.209       30.184       27.029       17.365      911.059      730.581      301.537        0.482        0.097       86.906       16.509        0.036      333.018        2.060      869.419
12/30/2013  11:04:00       32.776       95.141       -7.708       33.661       28.562       25.559     1133.059      815.799      653.263        0.639        0.130      100.628       21.743        0.047      332.975        1.986      869.379
12/30/2013  11:05:00       32.342       67.624        0.047       22.223       42.826       27.319      493.861     1834.093      746.328        0.435        0.154       74.960       22.851        0.093      333.128        2.241      869.362
12/30/2013  11:06:00       -0.418       52.981       -7.482       14.166       16.189       15.299      200.678      262.095      234.048        0.178        0.035       52.983        9.359        0.031      333.106        2.205      869.329
12/30/2013  11:07:00       -3.934       57.550       -3.256       15.831       27.892       17.623      250.608      777.970      310.570        0.234        0.067       57.685       13.410        0.054      333.159        2.292      869.307
12/30/2013  11:08:00      -20.962      -14.035       -0.144       26.281       24.306       13.053      690.706      590.801      170.393        0.104        0.073       25.227        9.353        0.137      333.219        2.391      869.291
12/30/2013  11:09:00      -24.556      -34.518       -0.097       29.954       20.384       20.134      897.268      415.503      405.368        0.176        0.086       42.361       15.642        0.136      333.334        2.580      869.265
12/30/2013  11:10:00        8.442       39.231        0.753       24.216       43.589       18.859      586.402     1900.013      355.679        0.223        0.142       40.130       21.246        0.280      333.686        3.164      869.246
12/30/2013  11:11:00       20.702       38.491       16.024       45.528       43.517       30.000     2072.808     1893.705      899.974        0.352        0.243       43.705       32.300        0.546      333.794        3.343      869.230
12/30/2013  11:12:00       71.318       58.241       -1.279       26.711       35.011       26.225      713.465     1225.795      687.748        0.555        0.131       92.077       16.395        0.032      333.285        2.500      869.204
12/30/2013  11:13:00       48.095       20.226       12.248       19.726       27.090       22.286      389.124      733.888      496.670        0.225        0.081       52.175        5.294        0.010      333.273        2.480      869.189
12/30/2013  11:14:00       21.171      -23.273       22.801       14.427       13.422       14.787      208.129      180.156      218.661        0.106        0.030       31.462        9.415        0.090      333.442        2.759      869.178
12/30/2013  11:15:00        1.759      -40.048       -8.088       20.748       18.426       18.087      430.478      339.501      327.153        0.138        0.055       40.087       16.958        0.179      333.328        2.570      869.159
12/30/2013  11:16:00       36.477       72.472       75.746       36.905       42.243       27.809     1361.987     1784.500      773.358        0.812        0.196       81.134       28.915        0.127      333.596        3.014      869.130
12/30/2013  11:17:00       58.916       64.205       72.583       44.757       52.015       29.762     2003.204     2705.612      885.762        0.923        0.280       87.140       29.768        0.117      333.483        2.827      869.109
12/30/2013  11:18:00       61.129       65.257       55.829       49.932       32.388       41.612     2493.208     1048.970     1731.524        0.819        0.264       89.416       31.412        0.123      333.537        2.917      869.079
12/30/2013  11:19:00       13.943       52.568       64.091       34.050       40.065       35.198     1159.420     1605.176     1238.927        0.553        0.200       54.386       26.942        0.245      333.639        3.085      869.044
12/30/2013  11:20:00       21.618       68.220       84.191       38.864       40.382       24.582     1510.408     1630.713      604.293        0.798        0.187       71.563       26.991        0.142      333.577        2.982      869.033
12/30/2013  11:21:00       56.005       85.846       75.925       44.055       32.712       26.711     1940.862     1070.073      713.501        1.000        0.186      102.499       17.723        0.030      333.512        2.874      869.042
12/30/2013  11:22:00       79.331       88.912       81.255       48.576       32.637       26.357     2359.593     1065.200      694.701        1.246        0.206      119.158       21.412        0.032      333.401        2.693      869.043
12/30/2013  11:23:00       38.273       66.059       54.619       39.108       30.583       36.745     1529.434      935.317     1350.185        0.631        0.191       76.345       28.959        0.144      333.557        2.950      869.036
12/30/2013  11:24:00       27.363       63.425       67.428       37.995       33.305       30.412     1443.623     1109.245      924.874        0.640        0.174       69.076       23.052        0.111      333.670        3.139      869.035
12/30/2013  11:25:00       -1.423       22.475       49.712       21.692       27.999       18.071      470.537      783.955      326.558        0.228        0.079       22.520       16.665        0.548      333.884        3.492      869.019
12/30/2013  11:26:00       14.887       11.494       42.701       23.426       29.567       22.459      548.788      874.233      504.428        0.205        0.096       18.808       18.886        1.008      333.894        3.510      868.989
12/30/2013  11:27:00        4.096       23.723       56.819       27.517       36.296       24.262      757.192     1317.364      588.637        0.324        0.133       24.073       22.495        0.873      333.925        3.560      868.942
12/30/2013  11:28:00       17.801       57.094       70.129       41.434       36.540       30.587     1716.777     1335.199      935.565        0.624        0.199       59.805       26.900        0.202      333.871        3.470      868.890
12/30/2013  11:29:00       -7.947       34.079       42.298       27.515       44.423       38.927      757.085     1973.387     1515.275        0.363        0.212       34.994       31.345        0.802      334.052        3.770      868.844
12/30/2013  11:30:00       -3.422       10.436       43.923       17.675       34.119       22.958      312.403     1164.121      527.066        0.203        0.100       10.983       16.353        2.217      334.532        4.567      868.840
12/30/2013  11:31:00       80.210       66.211       16.198       60.797       43.148       38.507     3696.260     1861.765     1482.772        0.906        0.352      104.008       36.076        0.120      333.985        3.660      868.853
12/30/2013  11:32:00       49.937       67.091        0.887       33.950       31.253       26.174     1152.578      976.765      685.103        0.490        0.141       83.636       18.575        0.049      333.753        3.274      868.867
12/30/2013  11:33:00       25.267       71.856       61.949       42.470       35.922       50.006     1803.701     1290.405     2500.610        0.762        0.280       76.169       37.823        0.247      334.206        4.025      868.844
12/30/2013  11:34:00       73.487       85.710       82.366       46.346       30.940       34.199     2147.929      957.259     1169.553        1.190        0.214      112.900       22.923        0.041      333.796        3.346      868.830
12/30/2013  11:35:00       60.511       62.257       60.497       57.688       40.094       33.206     3327.876     1607.525     1102.622        0.862        0.302       86.819       15.705        0.033      334.051        3.769      868.814
12/30/2013  11:36:00       32.875       79.392       83.448       55.078       50.061       36.721     3033.591     2506.112     1348.437        1.062        0.344       85.930       37.529        0.191      334.119        3.881      868.776
12/30/2013  11:37:00       64.779       70.891       95.105       53.205       64.892       43.591     2830.723     4210.986     1900.156        1.360        0.447       96.030       50.924        0.281      333.905        3.525      868.754
12/30/2013  11:38:00       22.049       79.176       86.553       40.270       40.554       27.830     1621.635     1644.623      774.511        0.914        0.202       82.189       25.382        0.095      334.089        3.831      868.712
12/30/2013  11:39:00       70.196       81.927       68.038       70.073       52.266       51.312     4910.229     2731.685     2632.969        1.327        0.514      107.886       37.561        0.121      333.883        3.489      868.692
12/30/2013  11:40:00       90.901       49.548       55.838       25.687       33.003       37.810      659.834     1089.168     1429.630        0.851        0.159      103.527       20.532        0.039      333.798        3.349      868.676
12/30/2013  11:41:00       67.368      -26.690       18.904       45.222       35.517       35.122     2045.034     1261.486     1233.539        0.507        0.227       72.463       32.998        0.207      333.837        3.415      868.663
12/30/2013  11:42:00        2.879       21.242       65.393       26.089       46.995       32.386      680.651     2208.504     1048.837        0.434        0.197       21.437       27.256        1.617      334.244        4.089      868.639
12/30/2013  11:43:00       32.092       64.373       79.143       56.704       50.784       51.100     3215.380     2578.974     2611.183        0.992        0.420       71.929       46.658        0.421      334.188        3.995      868.615
12/30/2013  11:44:00       45.574       55.491       70.250       39.883       39.406       26.903     1590.669     1552.859      723.746        0.698        0.193       71.807       21.067        0.086      334.183        3.988      868.604
12/30/2013  11:45:00       55.085       62.530       58.673       32.170       28.158       24.653     1034.925      792.850      607.778        0.641        0.122       83.333       12.892        0.024      334.093        3.838      868.600
12/30/2013  11:46:00      110.827       89.518       47.160       44.920       36.557       45.011     2017.788     1336.428     2025.949        1.395        0.269      142.465       27.165        0.036      333.785        3.326      868.572
12/30/2013  11:47:00       61.891       72.145       45.841       40.139       39.371       30.126     1611.100     1550.052      907.562        0.760        0.203       95.055       19.806        0.043      333.851        3.437      868.563
12/30/2013  11:48:00       12.119       61.508       70.432       34.774       48.407       41.760     1209.220     2343.206     1743.873        0.709        0.265       62.691       24.207        0.149      334.203        4.020      868.528
12/30/2013  11:49:00       24.681       27.351       66.843       39.729       56.509       40.015     1578.415     3193.233     1601.180        0.610        0.319       36.841       35.466        0.927      334.322        4.219      868.515
12/30/2013  11:50:00       53.955      -31.444       31.925       43.334       49.765       33.612     1877.817     2476.550     1129.740        0.520        0.274       62.449       33.921        0.295      334.097        3.845      868.481
12/30/2013  11:51:00       13.348       -7.728       37.518       27.086       42.671       22.878      733.662     1820.808      523.406        0.236        0.154       15.424       11.022        0.511      334.388        4.328      868.463
12/30/2013  11:52:00       43.910     -103.858       -2.046       25.032       27.848       22.770      626.592      775.533      518.460        0.732        0.096      112.759       15.669        0.019      333.885        3.494      868.440
12/30/2013  11:53:00       12.799      -16.464       33.960       22.181       33.793       25.302      491.991     1141.952      640.173        0.193        0.114       20.854       12.255        0.345      334.404        4.355      868.426
12/30/2013  11:54:00       30.664       55.009       64.842       45.766       35.285       36.029     2094.517     1245.001     1298.083        0.640        0.232       62.978       32.089        0.260      334.354        4.272      868.405
12/30/2013  11:55:00       84.730       54.542       29.002       32.428       28.290       33.816     1051.547      800.305     1143.508        0.699        0.150      100.767       17.121        0.029      334.188        3.996      868.383
12/30/2013  11:56:00       49.925       35.592       -2.010       36.149       30.448       23.068     1306.781      927.056      532.125        0.326        0.138       61.314       15.791        0.066      334.055        3.776      868.358
12/30/2013  11:57:00       74.896       60.744       25.295       37.725       29.168       34.331     1423.143      850.773     1178.646        0.670        0.173       96.432       21.641        0.050      334.282        4.154      868.317
12/30/2013  11:58:00       23.203       38.228       18.983       31.248       43.304       31.493      976.440     1875.194      991.825        0.310        0.192       44.719       32.855        0.540      334.604        4.686      868.282
12/30/2013  11:59:00       71.715       44.213       28.853       50.170       34.065       40.187     2517.071     1160.451     1615.032        0.661        0.265       84.248       32.595        0.150      334.575        4.637      868.237
12/30/2013  12:00:00      125.821       86.624       27.303       59.768       38.535       43.333     3572.158     1484.948     1877.729        1.551        0.347      152.757       20.984        0.019      334.255        4.106      868.220
12/30/2013  12:01:00       42.902       68.954       56.964       63.819       54.176       50.937     4072.871     2935.051     2594.578        0.972        0.480       81.211       39.609        0.238      334.435        4.405      868.219
12/30/2013  12:02:00       42.463       29.920       48.305       44.033       47.248       31.383     1938.895     2232.347      984.908        0.509        0.258       51.945       25.100        0.233      334.555        4.604      868.214
12/30/2013  12:03:00       40.326        5.928       39.792       41.179       48.435       32.852     1695.732     2345.918     1079.267        0.418        0.256       40.759       30.785        0.570      334.503        4.519      868.213
12/30/2013  12:04:00       49.902       20.582       15.027       47.864       32.478       34.688     2290.983     1054.848     1203.269        0.384        0.227       53.980       29.940        0.308      334.526        4.558      868.193
12/30/2013  12:05:00       41.477       35.987       10.490       28.301       31.515       26.632      800.925      993.177      709.259        0.281        0.125       54.913       16.535        0.091      334.395        4.339      868.173
12/30/2013  12:06:00       22.593       33.096       39.448       29.112       35.526       31.075      847.487     1262.090      965.643        0.312        0.154       40.072       24.262        0.367      334.675        4.803      868.158
12/30/2013  12:07:00       45.426      -38.806       49.310       50.330      101.680       49.860     2533.137    10338.888     2485.978        1.068        0.768       59.745       62.081        1.080      334.491        4.499      868.112
12/30/2013  12:08:00       68.604      -45.155       15.217       38.331       85.363       54.114     1469.265     7286.906     2928.357        0.933        0.584       82.131       64.558        0.618      334.440        4.415      868.095
12/30/2013  12:09:00      114.544       89.097       44.320       43.902       24.018       33.881     1927.400      576.848     1147.934        1.334        0.183      145.116       28.513        0.039      334.129        3.897      868.077
12/30/2013  12:10:00       15.820       43.570       58.155       44.443       31.748       28.055     1975.184     1007.921      787.095        0.465        0.189       46.353       28.784        0.386      334.651        4.763      868.042
12/30/2013  12:11:00       36.134        8.181       17.285       37.755       35.599       28.209     1425.424     1267.317      795.748        0.258        0.174       37.048       20.334        0.301      334.780        4.978      868.031
12/30/2013  12:12:00       83.957       29.061       14.074       44.752       44.334       25.085     2002.712     1965.536      629.276        0.634        0.230       88.844       14.343        0.026      334.623        4.718      868.019
12/30/2013  12:13:00       29.461        9.734       32.242       38.124       52.803       38.764     1453.403     2788.105     1502.644        0.387        0.287       31.028       36.808        1.407      334.795        5.003      868.009
12/30/2013  12:14:00       37.321       67.875       58.189       43.036       36.567       40.168     1852.126     1337.181     1613.458        0.709        0.240       77.459       33.737        0.190      334.761        4.946      868.012
12/30/2013  12:15:00       12.183        0.580       23.492       31.578       21.219       23.720      997.191      450.230      562.633        0.136        0.101       12.197       18.896        2.400      334.923        5.215      867.998
12/30/2013  12:16:00       26.982       61.307       55.649       31.559       55.504       49.470      995.981     3080.677     2447.273        0.705        0.326       66.982       43.647        0.425      334.638        4.742      867.956
12/30/2013  12:17:00       27.800       12.310       34.583       40.388       55.043       31.331     1631.172     3029.730      981.620        0.388        0.282       30.403       25.612        0.710      334.693        4.835      867.929
12/30/2013  12:18:00       52.418       -6.594       44.480       46.530       64.328       43.691     2165.065     4138.131     1908.861        0.649        0.411       52.832       43.903        0.691      334.677        4.806      867.901
12/30/2013  12:19:00       89.075       56.532       58.919       57.995       78.647       44.250     3363.460     6185.305     1958.049        1.305        0.575      105.500       38.063        0.130      334.495        4.504      867.881
12/30/2013  12:20:00       91.862       61.823       20.481       30.117       26.215       26.727      907.010      687.200      714.325        0.749        0.115      110.728       12.978        0.014      334.263        4.122      867.873
12/30/2013  12:21:00       57.540       73.019       12.521       38.553       25.629       26.266     1486.358      656.835      689.893        0.582        0.142       92.966       20.977        0.051      334.345        4.257      867.852
12/30/2013  12:22:00       33.827       50.452       24.159       33.858       30.642       31.690     1146.349      938.942     1004.260        0.368        0.154       60.743       16.032        0.070      334.584        4.651      867.834
12/30/2013  12:23:00       39.499       76.468       86.454       53.604       40.347       33.122     2873.394     1627.876     1097.075        1.024        0.280       86.067       25.370        0.087      334.667        4.790      867.817
12/30/2013  12:24:00       32.223       78.618       65.900       43.670       34.838       33.877     1907.112     1213.705     1147.642        0.791        0.213       84.965       27.816        0.107      334.733        4.901      867.796
12/30/2013  12:25:00       32.984       69.311       79.322       44.448       36.997       31.724     1975.599     1368.765     1006.408        0.827        0.218       76.759       28.706        0.140      334.782        4.981      867.790
12/30/2013  12:26:00       44.650       10.269       23.229       53.145       66.490       49.659     2824.339     4420.950     2466.049        0.617        0.486       45.815       45.450        0.984      334.623        4.718      867.769
12/30/2013  12:27:00       27.313       -6.611       28.884       42.620       56.509       35.349     1816.476     3193.222     1249.519        0.394        0.313       28.101       29.006        1.065      334.726        4.889      867.733
12/30/2013  12:28:00       54.226      -88.436       -3.264       38.897       65.230       25.122     1512.986     4254.989      631.119        0.858        0.320      103.737       33.977        0.107      334.358        4.278      867.703
12/30/2013  12:29:00       34.288      -46.653       11.302       34.789       58.260       27.859     1210.243     3394.272      776.124        0.443        0.269       57.898       32.939        0.324      334.623        4.717      867.692
12/30/2013  12:30:00       90.299     -144.504      -25.289       35.276       38.862       26.425     1244.364     1510.276      698.262        1.656        0.173      170.397       19.666        0.013      334.416        4.373      867.674
12/30/2013  12:31:00       51.014      -23.783       20.208       54.179       82.065       44.838     2935.321     6734.743     2010.488        0.763        0.584       56.286       61.532        1.195      334.529        4.562      867.662
12/30/2013  12:32:00       39.755        7.406       10.237       24.000       23.119       23.362      576.020      534.507      545.760        0.170        0.083       40.439        6.166        0.023      334.481        4.483      867.661
12/30/2013  12:33:00       56.520      -67.138      -13.863       21.595       28.994       20.046      466.335      840.674      401.854        0.480        0.085       87.761        5.025        0.003      334.483        4.485      867.650
12/30/2013  12:34:00       20.057       -9.776       36.998       28.666       47.650       34.153      821.765     2270.544     1166.434        0.306        0.213       22.313       29.561        1.755      334.723        4.883      867.617
12/30/2013  12:35:00       31.893        7.413       -7.016       22.262       23.281       15.137      495.576      542.013      229.144        0.119        0.063       32.743       14.159        0.187      334.473        4.469      867.589
12/30/2013  12:36:00       24.161       18.968       32.282       35.257       34.091       32.285     1243.064     1162.221     1042.317        0.272        0.172       30.717       27.796        0.819      334.749        4.927      867.567
12/30/2013  12:37:00       37.623       27.464       45.164       37.813       30.328       33.291     1429.795      919.805     1108.322        0.383        0.173       46.581       25.237        0.294      334.707        4.858      867.545
12/30/2013  12:38:00      -12.799       51.077       86.187       30.116       48.585       34.859      906.971     2360.466     1215.162        0.734        0.224       52.656       35.238        0.448      334.993        5.334      867.493
12/30/2013  12:39:00       35.344       45.591       31.404       39.675       36.063       40.857     1574.140     1300.573     1669.263        0.443        0.227       57.687       28.293        0.241      334.797        5.006      867.456
12/30/2013  12:40:00       -1.958       76.730      103.138       40.184       53.261       28.038     1614.743     2836.712      786.128        1.088        0.262       76.754       28.733        0.140      334.657        4.773      867.429
12/30/2013  12:41:00       72.885       83.222       85.883       45.469       36.233       23.934     2067.433     1312.843      572.830        1.178        0.198      110.626       21.919        0.039      334.593        4.667      867.408
12/30/2013  12:42:00        9.737       35.841       67.255       32.609       39.487       19.297     1063.379     1559.205      372.371        0.445        0.150       37.141       14.500        0.152      335.062        5.447      867.384
12/30/2013  12:43:00       20.338       44.921       65.992       34.513       39.253       21.440     1191.174     1540.825      459.674        0.499        0.160       49.311       24.007        0.237      335.095        5.502      867.371
12/30/2013  12:44:00       23.442       12.238       11.438       17.882       14.553       29.788      319.772      211.777      887.323        0.112        0.071       26.444        7.914        0.090      334.697        4.842      867.357
12/30/2013  12:45:00       18.355        9.409       24.503       20.807       32.601       26.165      432.927     1062.807      684.619        0.160        0.109       20.626       22.696        1.211      334.849        5.092      867.323
12/30/2013  12:46:00       63.190       59.892       34.358       28.427       20.539       27.726      808.112      421.857      768.717        0.538        0.100       87.063       10.377        0.014      334.645        4.752      867.295
12/30/2013  12:47:00       33.646       51.963       54.060       34.923       33.154       29.251     1219.600     1099.208      855.597        0.496        0.159       61.905       14.601        0.056      334.772        4.964      867.282
12/30/2013  12:48:00       62.943       71.667       67.004       56.085       33.698       36.056     3145.501     1135.542     1300.050        0.958        0.279       95.383       36.466        0.146      334.686        4.823      867.259
12/30/2013  12:49:00       59.898       50.511       10.686       33.294       34.690       26.328     1108.484     1203.427      693.140        0.463        0.150       78.352       22.704        0.084      334.632        4.731      867.233
12/30/2013  12:50:00       28.339      -39.002       26.226       35.374       73.359       39.882     1251.297     5381.503     1590.544        0.562        0.411       48.210       26.393        0.300      334.946        5.254      867.220
12/30/2013  12:51:00       49.671      -46.405        6.455       38.900       63.842       33.891     1513.239     4075.856     1148.579        0.570        0.337       67.975       41.231        0.368      334.863        5.117      867.209
12/30/2013  12:52:00       23.763      -42.149        7.119       35.767       47.206       27.229     1279.260     2228.413      741.395        0.332        0.212       48.386       29.575        0.374      334.930        5.227      867.212
12/30/2013  12:53:00       12.523       24.224       46.004       28.616       34.127       27.433      818.852     1164.621      752.566        0.280        0.137       27.270       24.366        0.798      335.069        5.458      867.217
12/30/2013  12:54:00       -5.741       56.976       68.951       15.759       28.103       17.630      248.338      789.759      310.803        0.469        0.067       57.265       13.878        0.059      335.090        5.493      867.208
12/30/2013  12:55:00        4.079       33.404       55.244       18.352       33.000       19.708      336.814     1089.025      388.397        0.300        0.091       33.652       20.005        0.353      335.231        5.728      867.203
12/30/2013  12:56:00       25.790       75.719       82.580       36.194       33.112       17.470     1309.999     1096.389      305.191        0.796        0.136       79.991       19.876        0.062      334.854        5.101      867.196
12/30/2013  12:57:00       45.856       61.128       62.400       37.323       26.206       19.109     1393.012      686.753      365.140        0.609        0.122       76.416       16.932        0.049      334.760        4.946      867.183
12/30/2013  12:58:00       73.770       44.681       39.155       25.698       36.229       25.109      660.370     1312.546      630.476        0.579        0.130       86.246       11.658        0.018      334.691        4.831      867.184
12/30/2013  12:59:00       71.340       49.839        7.629       24.331       23.553       24.780      592.002      554.741      614.035        0.470        0.088       87.025       10.955        0.016      334.635        4.739      867.176
12/30/2013  13:00:00       26.761       -9.826       -9.318       39.892       30.074       13.669     1591.358      904.418      186.847        0.179        0.134       28.507       11.476        0.162      334.647        4.759      867.160
12/30/2013  13:01:00        0.953        2.953       15.800        9.042       11.916       10.701       81.760      142.001      114.504        0.030        0.017        3.103        4.327        1.944      335.211        5.695      867.141
12/30/2013  13:02:00       35.614       13.011       37.871       41.902       48.952       32.510     1755.746     2396.275     1056.869        0.404        0.260       37.916       35.636        0.883      335.054        5.434      867.131
12/30/2013  13:03:00       94.311       74.056        1.741       44.134       37.863       35.401     1947.813     1433.639     1253.211        0.951        0.232      119.911       23.772        0.039      334.874        5.135      867.129
12/30/2013  13:04:00       67.610       61.424       -1.211       52.210       35.564       29.265     2725.923     1264.799      856.447        0.660        0.242       91.345       25.760        0.080      334.922        5.215      867.128
12/30/2013  13:05:00       47.947       86.840      -14.480       37.442       34.629       32.128     1401.882     1199.181     1032.222        0.684        0.182       99.198       21.187        0.046      335.029        5.392      867.126
12/30/2013  13:06:00       13.476      133.158      -28.028       31.101       27.881       17.477      967.263      777.365      305.449        1.037        0.103      133.838       19.853        0.022      334.727        4.889      867.136
12/30/2013  13:07:00      -12.018       86.237      -14.765       17.927       20.960       19.794      321.360      439.311      391.806        0.448        0.058       87.070        9.125        0.011      334.805        5.020      867.152
12/30/2013  13:08:00      -31.815       32.392      -10.455       19.945       29.427       17.323      397.818      865.931      300.099        0.187        0.078       45.403       14.506        0.102      334.977        5.305      867.155
12/30/2013  13:09:00      -18.134       21.557       10.278       28.908       25.168       21.214      835.648      633.411      450.051        0.141        0.096       28.170       21.780        0.598      335.355        5.935      867.147
12/30/2013  13:10:00      -76.207       18.650       -8.087       43.849       29.318       23.567     1922.706      859.574      555.402        0.478        0.167       78.456       14.687        0.035      335.296        5.835      867.131
12/30/2013  13:11:00      -49.495      -35.611       11.523       30.686       32.160       24.272      941.630     1034.240      589.154        0.321        0.128       60.974       16.939        0.077      335.108        5.523      867.132
12/30/2013  13:12:00       19.295      -11.860       27.591       22.597       20.308       18.445      510.626      412.395      340.230        0.127        0.063       22.649       14.074        0.386      335.422        6.045      867.132
12/30/2013  13:13:00       -5.571       -6.452        9.830       16.866       22.399       13.734      284.454      501.701      188.622        0.057        0.049        8.524        9.203        1.166      335.547        6.253      867.125
12/30/2013  13:14:00      -12.669      -80.272      -11.032       27.179       34.055       23.573      738.725     1159.758      555.701        0.459        0.123       81.266       12.738        0.025      335.196        5.670      867.119
12/30/2013  13:15:00      -43.405      -69.580       -3.739       38.134       30.247       24.259     1454.180      914.911      588.486        0.485        0.148       82.008       19.285        0.055      335.060        5.443      867.120
12/30/2013  13:16:00      -26.743      -72.162       -5.944       20.056       29.659       15.834      402.238      879.654      250.702        0.374        0.077       76.958        8.984        0.014      335.017        5.371      867.113
12/30/2013  13:17:00      -26.914      -30.861        3.327       17.852       31.336       12.805      318.694      981.960      163.956        0.158        0.073       40.949       15.351        0.141      335.191        5.659      867.093
12/30/2013  13:18:00      -12.742      -10.382       10.887       20.962       14.024       15.923      439.410      196.667      253.533        0.064        0.044       16.436       17.709        1.161      335.655        6.434      867.089
12/30/2013  13:19:00       19.297       32.051        4.658       27.112       25.528       18.308      735.072      651.655      335.197        0.157        0.086       37.412       16.204        0.188      335.406        6.019      867.071
12/30/2013  13:20:00       14.198      113.764       -2.726       38.300       45.516       30.352     1466.859     2071.686      921.268        0.880        0.223      114.647       30.110        0.069      335.201        5.677      867.041
12/30/2013  13:21:00       13.725      112.666       -7.694       26.977       41.141       30.587      727.754     1692.578      935.592        0.815        0.168      113.499       26.568        0.055      335.165        5.619      867.028
12/30/2013  13:22:00        3.611      105.759       -6.581       23.575       31.664       22.988      555.765     1002.594      528.468        0.666        0.104      105.821       19.251        0.033      335.077        5.472      867.028
12/30/2013  13:23:00       -1.826       75.279       -5.986       30.938       37.346       22.490      957.133     1394.702      505.795        0.428        0.143       75.301       19.150        0.065      335.223        5.714      867.011
12/30/2013  13:24:00       -2.093      114.428      -11.467       14.700       21.137       13.318      216.087      446.760      177.360        0.703        0.042      114.447        7.856        0.005      335.053        5.431      866.996
12/30/2013  13:25:00       -2.151      132.168      -15.053       13.160       25.846       12.912      173.176      668.021      166.728        0.935        0.050      132.186       11.888        0.008      335.005        5.354      866.999
12/30/2013  13:26:00      -12.019      104.131      -16.776       13.699       26.636       13.478      187.671      709.484      181.647        0.617        0.054      104.822        9.494        0.008      335.044        5.416      867.008
12/30/2013  13:27:00      -35.881       16.142       11.047       22.209       15.673       21.641      493.225      245.654      468.345        0.144        0.060       39.345       10.797        0.075      335.393        5.997      867.020
12/30/2013  13:28:00      -21.983       21.105       -6.249       23.139       25.849       18.204      535.421      668.157      331.389        0.125        0.077       30.474       13.657        0.201      335.419        6.039      867.008
12/30/2013  13:29:00       -5.283       21.455       -0.325       14.790       24.696       11.343      218.733      609.915      128.660        0.072        0.048       22.096       12.853        0.338      335.408        6.023      866.994
12/30/2013  13:30:00       16.082       30.890       11.171       12.609       12.943       11.724      158.998      167.512      137.450        0.090        0.023       34.825        6.007        0.030      335.343        5.913      866.980
12/30/2013  13:31:00       11.226       28.472       29.937       15.456       19.337       18.598      238.881      373.925      345.883        0.140        0.048       30.605       14.617        0.228      335.383        5.980      866.969
12/30/2013  13:32:00       15.675       28.536       36.802       14.471       14.279        7.703      209.413      203.887       59.335        0.144        0.024       32.558        5.525        0.029      335.380        5.975      866.971
12/30/2013  13:33:00       13.576       15.390       30.289       17.159       15.818       12.260      294.441      250.203      150.318        0.102        0.035       20.523        9.272        0.204      335.566        6.284      866.985
12/30/2013  13:34:00       31.849       37.200       47.048       37.693       44.467       31.371     1420.737     1977.297      984.133        0.450        0.219       48.971       29.649        0.367      335.608        6.355      866.996
12/30/2013  13:35:00       68.912       35.530       47.904       47.615       42.493       36.058     2267.175     1805.677     1300.202        0.684        0.269       77.532       29.742        0.147      335.352        5.929      867.001
12/30/2013  13:36:00       51.438       44.877       31.470       71.789       44.875       29.274     5153.679     2013.732      856.979        0.684        0.401       68.262       29.183        0.183      335.507        6.187      866.999
12/30/2013  13:37:00       32.803       68.347       79.765       45.537       52.244       30.593     2073.611     2729.403      935.949        0.892        0.287       75.811       24.907        0.108      335.579        6.306      867.006
12/30/2013  13:38:00       31.513       68.794       79.489       37.867       52.389       31.785     1433.926     2744.599     1010.289        0.862        0.259       75.668       34.497        0.208      335.423        6.046      867.018
12/30/2013  13:39:00       41.057       50.045       41.278       70.996       55.650       53.522     5040.453     3096.926     2864.596        0.845        0.550       64.731       47.615        0.541      335.466        6.117      867.007
12/30/2013  13:40:00        2.650       59.814       77.574       34.078       40.058       41.452     1161.304     1604.670     1718.293        0.704        0.224       59.873       40.839        0.465      335.610        6.358      866.978
12/30/2013  13:41:00       23.866       66.547       89.374       40.013       41.297       27.537     1601.026     1705.426      758.264        0.852        0.203       70.697       24.355        0.119      335.515        6.200      866.958
12/30/2013  13:42:00       54.248       71.621       63.253       42.247       27.340       35.607     1784.773      747.474     1267.856        0.794        0.190       89.846       31.977        0.127      335.454        6.098      866.953
12/30/2013  13:43:00       64.510       11.214       29.322       37.410       70.033       39.532     1399.507     4904.649     1562.818        0.651        0.393       65.477       38.812        0.351      335.501        6.177      866.953
12/30/2013  13:44:00       27.878      -55.411        8.777       30.866       58.267       30.358      952.694     3395.080      921.619        0.460        0.263       62.029       35.981        0.336      335.582        6.311      866.935
12/30/2013  13:45:00       55.706      100.201       86.809       61.006       56.140       40.349     3721.697     3151.687     1628.006        1.459        0.425      114.645       36.980        0.104      335.460        6.109      866.924
12/30/2013  13:46:00       98.816       62.669       21.576       46.052       40.091       47.292     2120.819     1607.300     2236.493        1.006        0.298      117.013       24.842        0.045      335.300        5.841      866.929
12/30/2013  13:47:00       68.453       53.888       31.463       30.553       29.401       34.515      933.497      864.425     1191.256        0.578        0.149       87.120       15.401        0.031      335.370        5.959      866.917
12/30/2013  13:48:00       38.401       28.741       42.778       29.462       58.828       21.467      868.009     3460.678      460.848        0.446        0.239       47.965       29.477        0.378      335.484        6.149      866.911
12/30/2013  13:49:00       50.584       -9.931       32.514       30.519       55.040       30.558      931.405     3029.450      933.776        0.430        0.245       51.550       36.454        0.500      335.519        6.207      866.912
12/30/2013  13:50:00       25.501       15.968       26.276       40.241       25.079       20.823     1619.368      628.977      433.584        0.214        0.134       30.088       21.176        0.495      335.555        6.266      866.924
12/30/2013  13:51:00       46.383        6.911       36.329       33.002       40.539       35.497     1089.109     1643.423     1260.025        0.376        0.200       46.895       29.679        0.401      335.550        6.259      866.944
12/30/2013  13:52:00       89.325       53.875       44.554       41.330       46.523       31.615     1708.179     2164.345      999.519        0.887        0.244      104.314       20.022        0.037      335.457        6.104      866.953
12/30/2013  13:53:00       61.522       65.955       74.746       47.048       38.891       34.397     2213.539     1512.494     1183.180        0.931        0.245       90.194       30.271        0.113      335.516        6.201      866.953
12/30/2013  13:54:00       78.104       78.066       72.370       49.189       43.272       32.917     2419.567     1872.451     1083.537        1.140        0.269      110.429       31.655        0.082      335.447        6.086      866.941
12/30/2013  13:55:00       67.605       34.798       57.143       36.309       32.574       24.206     1318.347     1061.084      585.924        0.601        0.148       76.036       20.223        0.071      335.546        6.251      866.933
12/30/2013  13:56:00       96.029       54.276       39.863       54.517       40.054       47.435     2972.072     1604.305     2250.072        1.029        0.341      110.306       35.217        0.102      335.650        6.424      866.932
12/30/2013  13:57:00       93.204       64.025       43.954       32.224       33.981       43.992     1038.381     1154.691     1935.302        0.942        0.206      113.076       25.459        0.051      335.605        6.351      866.932
12/30/2013  13:58:00       53.558       46.036       48.158       48.572       32.258       26.428     2359.236     1040.580      698.435        0.570        0.205       70.625       20.242        0.082      335.716        6.537      866.926
12/30/2013  13:59:00       32.512       38.996       66.368       37.603       40.231       28.250     1414.005     1618.521      798.048        0.541        0.192       50.771       28.773        0.321      335.801        6.677      866.938
12/30/2013  14:00:00       92.548       31.732       44.848       43.330       28.269       40.111     1877.453      799.110     1608.866        0.793        0.214       97.837       24.295        0.062      335.565        6.284      866.948
12/30/2013  14:01:00       43.726       21.348       38.360       75.026       70.623       36.948     5628.834     4987.630     1365.169        0.791        0.599       48.659       28.972        0.355      335.801        6.677      866.920
12/30/2013  14:02:00       24.304       13.383       53.018       38.930       51.038       32.664     1515.573     2604.843     1066.911        0.438        0.259       27.745       28.456        1.052      335.987        6.987      866.912
12/30/2013  14:03:00       37.820      -50.846       17.675       40.099       53.646       29.736     1607.911     2877.852      884.239        0.485        0.269       63.369       32.968        0.271      335.824        6.716      866.910
12/30/2013  14:04:00       78.534      -92.977        8.707       51.966       75.236       37.477     2700.421     5660.505     1404.514        1.233        0.488      121.705       41.384        0.116      335.747        6.586      866.903
12/30/2013  14:05:00       27.217        3.279       42.415       38.977       74.808       43.357     1519.243     5596.249     1879.839        0.577        0.450       27.414       48.964        3.190      335.890        6.825      866.906
12/30/2013  14:06:00       54.184      -21.216       29.132       48.996       69.760       43.195     2400.632     4866.464     1865.796        0.668        0.457       58.189       43.023        0.547      335.904        6.848      866.906
12/30/2013  14:07:00       47.525       20.151       54.676       48.360       52.418       38.628     2338.714     2747.626     1492.160        0.612        0.329       51.620       40.503        0.616      335.847        6.753      866.893
12/30/2013  14:08:00       40.391       18.075       61.897       53.252       64.896       46.464     2835.788     4211.536     2158.863        0.750        0.460       44.251       45.112        1.039      335.968        6.954      866.884
12/30/2013  14:09:00       30.131        2.744       38.704       43.869       54.498       38.020     1924.508     2970.044     1445.511        0.438        0.317       30.256       32.235        1.135      335.929        6.889      866.897
12/30/2013  14:10:00       24.263       85.390       85.166       45.420       34.636       24.850     2062.974     1199.663      617.533        0.951        0.194       88.770       25.866        0.085      335.772        6.629      866.906
12/30/2013  14:11:00       47.165        3.812       37.723       41.924       54.978       34.766     1757.638     3022.532     1208.707        0.482        0.299       47.319       39.889        0.711      335.889        6.824      866.925
12/30/2013  14:12:00       70.197     -115.022       -1.709       44.344       62.165       37.064     1966.401     3864.441     1373.769        1.268        0.360      134.750       38.846        0.083      335.945        6.916      866.958
12/30/2013  14:13:00       31.622       33.598       71.248       44.968       55.498       42.982     2022.110     3079.974     1847.477        0.708        0.347       46.139       37.830        0.672      336.074        7.130      866.960
12/30/2013  14:14:00       34.306       35.557       58.360       38.312       34.154       27.712     1467.775     1166.500      767.977        0.462        0.170       49.409       26.898        0.296      336.004        7.015      866.950
12/30/2013  14:15:00       57.656       43.021       54.010       57.278       30.702       29.911     3280.759      942.623      894.638        0.660        0.256       71.938       19.392        0.073      335.944        6.916      866.962
12/30/2013  14:16:00       72.664       37.236       27.965       27.210       25.262       26.172      740.367      638.169      684.974        0.476        0.103       81.650       15.828        0.038      335.702        6.512      866.984
12/30/2013  14:17:00       32.152       17.934       13.134       30.941       21.149       21.742      957.350      447.285      472.731        0.170        0.094       36.815       16.779        0.208      335.924        6.879      866.960
12/30/2013  14:18:00       45.871       32.944       14.342       38.307       32.788       28.069     1467.417     1075.080      787.893        0.336        0.167       56.475       24.681        0.191      335.991        6.994      866.932
12/30/2013  14:19:00       30.054       31.769       29.528       26.741       27.493       25.602      715.082      755.843      655.474        0.246        0.106       43.732       12.965        0.088      336.074        7.131      866.930
12/30/2013  14:20:00       70.559       71.770       50.025       48.231       33.778       40.364     2326.251     1140.954     1629.252        0.886        0.255      100.646       26.229        0.068      335.872        6.796      866.926
12/30/2013  14:21:00       32.814       22.874       16.149       29.838       30.630       22.934      890.296      938.199      525.961        0.211        0.118       39.999        9.534        0.057      335.982        6.978      866.922
12/30/2013  14:22:00       84.445       74.724       16.543       58.233       35.538       37.813     3391.063     1262.965     1429.794        0.954        0.304      112.759       27.764        0.061      335.938        6.904      866.922
12/30/2013  14:23:00       44.530       34.288       16.380       41.837       34.499       23.148     1750.371     1190.176      535.844        0.345        0.174       56.201       24.187        0.185      336.068        7.123      866.951
12/30/2013  14:24:00       44.475       57.898       70.374       55.986       52.464       46.556     3134.441     2752.504     2167.427        0.917        0.403       73.008       35.719        0.239      336.008        7.021      866.952
12/30/2013  14:25:00      119.898       75.536       51.699       58.666       42.809       30.692     3441.703     1832.653      942.011        1.448        0.311      141.708       24.060        0.029      335.835        6.733      866.938
12/30/2013  14:26:00       19.399       38.030       50.548       32.974       26.047       21.167     1087.313      678.420      448.026        0.330        0.111       42.692       19.214        0.203      336.050        7.091      866.951
12/30/2013  14:27:00       50.234       45.582       33.812       31.010       27.627       36.973      961.592      763.260     1366.979        0.442        0.155       67.832       23.238        0.117      335.957        6.936      866.947
12/30/2013  14:28:00       26.722       12.299       32.100       36.564       20.866       22.394     1336.928      435.390      501.476        0.208        0.114       29.416       17.609        0.358      336.102        7.177      866.927
12/30/2013  14:29:00        3.843       78.213       89.665       30.661       32.561       25.615      940.076     1060.248      656.119        0.841        0.133       78.307       25.576        0.107      336.111        7.195      866.912
12/30/2013  14:30:00       68.732       38.161       50.967       30.914       37.854       30.566      955.665     1432.896      934.306        0.605        0.166       78.615       19.860        0.064      335.948        6.922      866.903
12/30/2013  14:31:00       64.205       34.680       54.713       47.525       37.231       30.831     2258.665     1386.120      950.575        0.646        0.230       72.973       23.922        0.107      336.018        7.037      866.873
12/30/2013  14:32:00       52.206       88.103       92.786       68.433       50.114       40.384     4683.102     2511.400     1630.832        1.396        0.441      102.409       31.249        0.093      336.029        7.056      866.849
12/30/2013  14:33:00       73.319       51.056       46.604       24.311       33.758       29.210      591.022     1139.627      853.238        0.637        0.129       89.344       14.830        0.028      335.961        6.943      866.848
12/30/2013  14:34:00       90.049       43.594       29.647       45.875       40.220       45.100     2104.525     1617.625     2034.033        0.832        0.288      100.047       18.323        0.034      336.024        7.047      866.856
12/30/2013  14:35:00      100.170       52.250       25.501       50.362       38.755       44.727     2536.357     1501.969     2000.540        0.973        0.302      112.978       28.427        0.063      336.030        7.057      866.872
12/30/2013  14:36:00       79.376       21.029       17.114       46.360       35.391       29.162     2149.292     1252.528      850.401        0.564        0.213       82.114       22.963        0.078      336.090        7.157      866.904
12/30/2013  14:37:00       62.711       52.332       35.175       44.595       36.604       37.918     1988.697     1339.883     1437.771        0.634        0.238       81.678       18.741        0.053      336.140        7.242      866.913
12/30/2013  14:38:00       97.113       84.556       73.461       67.800       42.923       41.860     4596.824     1842.351     1752.239        1.508        0.410      128.766       36.341        0.080      336.107        7.187      866.916
12/30/2013  14:39:00       96.455       40.362       25.059       43.314       51.858       23.791     1876.104     2689.265      565.998        0.835        0.257      104.560       17.602        0.028      335.935        6.899      866.933
12/30/2013  14:40:00       39.576       77.550       89.498       49.553       48.120       36.711     2455.532     2315.555     1347.726        1.085        0.306       87.065       37.634        0.187      336.096        7.167      866.939
12/30/2013  14:41:00       82.366       77.055       78.397       38.473       39.470       34.327     1480.197     1557.885     1178.330        1.154        0.211      112.790       27.770        0.061      336.062        7.111      866.956
12/30/2013  14:42:00       36.782       66.980       53.557       43.410       28.541       31.912     1884.454      814.594     1018.361        0.621        0.186       76.415       28.103        0.135      336.128        7.221      866.970
12/30/2013  14:43:00       86.963       51.490       35.204       41.857       26.257       27.035     1751.971      689.455      730.864        0.731        0.159      101.063       18.525        0.034      336.104        7.181      866.967
12/30/2013  14:44:00       27.552       40.839       67.495       66.085       42.201       29.930     4367.273     1780.962      895.798        0.701        0.352       49.264       36.679        0.554      336.229        7.391      866.951
12/30/2013  14:45:00       48.446       38.030       43.009       35.295       25.584       30.528     1245.719      654.556      931.971        0.424        0.142       61.590       14.462        0.055      336.143        7.247      866.958
12/30/2013  14:46:00       36.407       38.485       23.107       32.477       26.676       14.195     1054.787      711.586      201.512        0.265        0.098       52.976        9.670        0.033      336.225        7.385      866.965
12/30/2013  14:47:00       50.640      -23.232       12.524       38.041       47.614       26.246     1447.112     2267.117      688.846        0.383        0.220       55.715        8.373        0.023      336.268        7.454      866.964
12/30/2013  14:48:00       -4.935      -49.488       -9.968       24.224       32.570       23.152      586.784     1060.785      536.028        0.238        0.109       49.734       19.392        0.152      336.349        7.590      866.969
12/30/2013  14:49:00       14.143      -63.969       -6.046       49.410       40.520       29.328     2441.375     1641.840      860.104        0.464        0.247       65.514       24.966        0.145      336.287        7.488      866.985
12/30/2013  14:50:00      102.854     -125.279      -17.330       48.294       40.330       28.629     2332.326     1626.510      819.593        1.568        0.239      162.092       32.098        0.039      336.025        7.049      866.984
12/30/2013  14:51:00       64.146      -40.711       12.942       38.607       36.727       35.588     1490.505     1348.881     1266.505        0.502        0.205       75.974       26.267        0.120      336.198        7.338      866.990
12/30/2013  14:52:00       38.193       10.341       43.835       40.613       35.453       34.084     1649.431     1256.947     1161.738        0.378        0.203       39.568       35.452        0.803      336.273        7.463      867.006
12/30/2013  14:53:00       42.901      -58.058       -6.501       33.349       38.220       23.409     1112.130     1460.803      547.965        0.419        0.156       72.189       18.225        0.064      336.402        7.680      867.019
12/30/2013  14:54:00       29.828      -16.832        8.854       30.137       61.138       32.313      908.227     3737.885     1044.111        0.347        0.285       34.250       36.866        1.159      336.437        7.738      867.017
12/30/2013  14:55:00       19.305       31.181       46.131       30.094       27.485       23.677      905.623      755.441      560.620        0.285        0.111       36.673       12.882        0.123      336.449        7.760      867.010
12/30/2013  14:56:00       12.756       13.112       19.527       32.325       22.399       20.675     1044.900      501.715      427.461        0.134        0.099       18.293       16.541        0.818      336.436        7.737      867.012
12/30/2013  14:57:00        4.363      -29.095       21.670       24.100       47.305       29.152      580.828     2237.720      849.850        0.250        0.183       29.420       34.513        1.376      336.614        8.034      867.029
12/30/2013  14:58:00      -22.471       -0.089        7.162       23.476       25.444       16.919      551.116      647.418      286.245        0.102        0.074       22.471       16.564        0.543      336.464        7.785      867.046
12/30/2013  14:59:00      -28.811      -29.715        3.628       22.020       21.748       17.765      484.897      472.991      315.598        0.150        0.064       41.389       16.289        0.155      336.574        7.968      867.059
12/30/2013  15:00:00       -4.849       29.907       62.387       21.398       29.046       31.323      457.875      843.690      981.126        0.355        0.114       30.298       26.870        0.787      336.504        7.849      867.059
12/30/2013  15:01:00        4.338        4.580       31.080       30.666       47.519       36.627      940.381     2258.088     1341.569        0.277        0.227        6.308       39.926       40.064      336.346        7.587      867.059
12/30/2013  15:02:00        0.181       11.992       11.973       25.751       24.059       21.055      663.136      578.840      443.322        0.099        0.084       11.993       10.716        0.798      336.392        7.662      867.074
12/30/2013  15:03:00       56.904       42.162       13.254       37.595       23.817       19.850     1413.356      567.252      394.012        0.378        0.119       70.822        9.658        0.019      336.225        7.382      867.063
12/30/2013  15:04:00       64.547       62.104       40.375       43.818       28.866       30.051     1920.030      833.250      903.050        0.665        0.183       89.572       27.630        0.095      336.265        7.451      867.051
12/30/2013  15:05:00       12.790       46.507       61.853       41.348       29.653       26.842     1709.639      879.278      720.490        0.473        0.165       48.233       24.806        0.264      336.413        7.698      867.048
12/30/2013  15:06:00        5.128       53.330       71.273       24.928       36.801       22.429      621.401     1354.315      503.052        0.521        0.124       53.576       21.705        0.164      336.405        7.685      867.062
12/30/2013  15:07:00       10.758       32.782       40.563       22.853       27.483       19.428      522.250      755.329      377.433        0.225        0.083       34.502       18.095        0.275      336.341        7.578      867.090
12/30/2013  15:08:00       49.841      -16.621       -3.697       19.938       19.405       18.715      397.514      376.546      350.267        0.195        0.056       52.539       11.978        0.052      336.180        7.308      867.103
12/30/2013  15:09:00       24.109        7.694       21.886       20.183       21.108       16.104      407.357      445.559      259.344        0.112        0.056       25.307       15.422        0.371      336.401        7.677      867.106
12/30/2013  15:10:00       48.326       45.018        2.653       19.283       12.717       19.722      371.828      161.719      388.944        0.265        0.046       66.046       12.849        0.038      336.210        7.359      867.089
12/30/2013  15:11:00       25.733       68.570      -12.585       13.135       17.644       10.233      172.535      311.297      104.708        0.306        0.029       73.239        4.610        0.004      336.184        7.315      867.058
12/30/2013  15:12:00        1.829       70.378      -18.690        8.941       15.667        6.171       79.943      245.450       38.076        0.283        0.018       70.402        3.864        0.003      336.198        7.338      867.047
12/30/2013  15:13:00       -2.932       72.567      -11.582       17.891       19.079       11.655      320.105      364.018      135.839        0.311        0.041       72.626        8.931        0.015      336.220        7.374      867.049
12/30/2013  15:14:00      -16.804       63.896       -4.343       11.519       18.869       12.958      132.685      356.051      167.899        0.252        0.033       66.069        8.617        0.017      336.289        7.491      867.059
12/30/2013  15:15:00       -4.181       40.382       12.012       20.531       24.523       18.555      421.522      601.395      344.305        0.158        0.068       40.598       13.768        0.115      336.405        7.684      867.063
12/30/2013  15:16:00       17.844       24.109       -0.449       22.897       14.234       12.416      524.277      202.607      154.148        0.089        0.044       29.994        8.865        0.087      336.348        7.590      867.065
12/30/2013  15:17:00       13.803       17.872        3.456       11.549       17.559       13.568      133.372      308.305      184.098        0.057        0.031       22.582        9.321        0.170      336.449        7.759      867.074
12/30/2013  15:18:00       17.835       27.051       25.683       15.474       13.454       11.470      239.446      181.008      131.565        0.113        0.028       32.401        5.680        0.031      336.452        7.764      867.078
12/30/2013  15:19:00       37.209       51.371       49.586       40.859       33.060       34.424     1669.429     1092.988     1185.028        0.521        0.197       63.431       30.342        0.229      336.381        7.644      867.088
12/30/2013  15:20:00      100.371       70.626       36.131       23.622       28.666       29.694      557.985      821.719      881.750        0.931        0.113      122.729       21.820        0.032      336.283        7.480      867.092
12/30/2013  15:21:00       58.155        6.667       28.833       32.619       28.276       33.651     1064.024      799.513     1132.379        0.363        0.150       58.536       20.789        0.126      336.353        7.598      867.102
12/30/2013  15:22:00       58.056       29.774       18.650       30.537       24.078       32.032      932.506      579.762     1026.072        0.357        0.127       65.245       21.814        0.112      336.308        7.523      867.079
12/30/2013  15:23:00       18.892       -5.421        1.536       17.403       15.034       11.838      302.859      226.007      140.136        0.053        0.033       19.654        7.202        0.134      336.548        7.925      867.067
12/30/2013  15:24:00       23.930      -16.930      -12.706       23.516       13.341        7.986      552.981      177.982       63.777        0.091        0.040       29.313        6.365        0.047      336.449        7.758      867.068
12/30/2013  15:25:00       11.294      -15.039       -7.850       19.936       12.806        9.517      397.462      163.990       90.568        0.053        0.033       18.808        5.067        0.073      336.611        8.029      867.067
12/30/2013  15:26:00       37.321        8.132       10.925       20.249       18.545       16.873      410.015      343.918      284.691        0.131        0.052       38.197        8.967        0.055      336.473        7.797      867.038
12/30/2013  15:27:00       24.395       22.521        8.810       16.800       16.318       16.803      282.253      266.272      282.345        0.101        0.042       33.202       14.410        0.188      336.558        7.941      867.016
12/30/2013  15:28:00       13.815       15.914       40.701       21.845       23.138       15.779      477.185      535.372      248.966        0.168        0.063       21.074        3.462        0.027      336.813        8.366      867.012
12/30/2013  15:29:00       58.717       38.109       12.634       34.195       22.964       19.160     1169.289      527.352      367.099        0.356        0.103       70.000       16.497        0.056      336.484        7.817      867.014
12/30/2013  15:30:00       56.959       52.146       63.611       41.173       30.674       28.421     1695.243      940.916      807.777        0.673        0.172       77.224       19.970        0.067      336.575        7.970      867.004
12/30/2013  15:31:00       91.989       74.555       65.937       42.888       30.096       32.497     1839.362      905.762     1056.047        1.108        0.190      118.408       22.473        0.036      336.449        7.758      867.003
12/30/2013  15:32:00       65.350       52.749       55.892       29.626       33.528       33.094      877.688     1124.160     1095.245        0.664        0.155       83.982       25.518        0.092      336.469        7.792      867.008
12/30/2013  15:33:00       40.504       40.600       28.211       39.594       28.337       23.867     1567.687      802.964      569.632        0.351        0.147       57.349       22.980        0.161      336.507        7.856      867.002
12/30/2013  15:34:00       53.859       -5.530        9.469       31.136       24.628       19.944      969.468      606.562      397.763        0.250        0.099       54.142       18.621        0.118      336.484        7.816      867.003
12/30/2013  15:35:00       39.210       26.193        8.888       15.953       31.285       18.110      254.511      978.743      327.978        0.193        0.078       47.154       15.939        0.114      336.429        7.727      867.009
12/30/2013  15:36:00       68.636       33.389       12.665       37.951       18.914       19.581     1440.242      357.755      383.409        0.408        0.109       76.327       10.076        0.017      336.406        7.687      867.014
12/30/2013  15:37:00       94.135       60.916       14.021       34.821       25.257       28.334     1212.529      637.931      802.832        0.771        0.133      112.125       20.456        0.033      336.429        7.724      867.025
12/30/2013  15:38:00       81.657       42.202       -2.337       25.168       19.706       19.488      633.417      388.342      379.773        0.493        0.070       91.918       12.424        0.018      336.384        7.648      867.046
12/30/2013  15:39:00       81.022       50.774       17.356       23.562       16.901       15.530      555.191      285.653      241.168        0.526        0.054       95.617       12.446        0.017      336.435        7.734      867.041
12/30/2013  15:40:00       76.904       30.266       23.522       26.005       22.238       27.409      676.266      494.546      751.275        0.465        0.096       82.645       15.870        0.037      336.451        7.762      867.048
12/30/2013  15:41:00       70.127       36.366       24.289       27.347       31.993       25.672      747.857     1023.563      659.033        0.463        0.122       78.996       15.301        0.038      336.494        7.835      867.055
12/30/2013  15:42:00       84.450       61.558       20.368       19.171       24.418       26.318      367.514      596.239      692.647        0.650        0.083      104.505        9.893        0.009      336.428        7.721      867.060
12/30/2013  15:43:00       50.471       51.814        6.552       31.737       32.696       21.217     1007.250     1069.005      450.142        0.390        0.126       72.333       10.561        0.021      336.408        7.688      867.059
12/30/2013  15:44:00       56.791       50.672        8.982       27.879       21.528       20.476      777.231      463.472      419.250        0.377        0.083       76.111       13.024        0.029      336.398        7.673      867.052
12/30/2013  15:45:00       74.851       58.236        7.935       38.061       27.402       25.959     1448.647      750.891      673.864        0.596        0.144       94.838       21.173        0.050      336.420        7.710      867.057
12/30/2013  15:46:00       52.576       29.239        4.795       32.505       25.202       11.534     1056.574      635.123      133.034        0.273        0.091       60.160        8.153        0.018      336.391        7.663      867.077
12/30/2013  15:47:00       60.378       27.179        4.612       29.683       20.741       23.773      881.062      430.178      565.143        0.314        0.094       66.213       10.705        0.026      336.452        7.761      867.083
12/30/2013  15:48:00       48.229        3.185        7.970       15.687       23.213       18.956      246.090      538.862      359.336        0.177        0.057       48.334       14.772        0.093      336.382        7.647      867.081
12/30/2013  15:49:00       22.126       12.785        8.063       19.137       25.989       17.201      366.210      675.403      295.869        0.103        0.067       25.554       11.439        0.200      336.496        7.838      867.085
12/30/2013  15:50:00       43.700       39.026        0.743       26.392       22.631       18.034      696.542      512.140      325.225        0.248        0.077       58.589       16.541        0.080      336.418        7.706      867.092
12/30/2013  15:51:00       65.968       50.008       17.782       15.866       15.142       14.493      251.733      229.270      210.058        0.393        0.035       82.780        6.815        0.007      336.372        7.631      867.104
12/30/2013  15:52:00       91.762       72.487        4.518       23.200       15.962       17.695      538.248      254.801      313.110        0.740        0.055      116.939       12.240        0.011      336.375        7.634      867.113
12/30/2013  15:53:00       83.440       43.549       12.169       28.021       20.637       23.562      785.181      425.895      555.152        0.539        0.088       94.121       13.735        0.021      336.379        7.641      867.121
12/30/2013  15:54:00       59.332       46.135       10.857       30.022       18.248       18.307      901.322      332.977      335.149        0.367        0.078       75.158       14.688        0.038      336.406        7.686      867.111
12/30/2013  15:55:00       69.099       43.324       12.412       25.884       17.873       20.752      670.000      319.440      430.652        0.411        0.071       81.558       13.880        0.029      336.381        7.644      867.109
12/30/2013  15:56:00       71.105       42.002       13.715       24.948       24.874       16.691      622.424      618.712      278.605        0.426        0.076       82.584       14.170        0.029      336.336        7.568      867.099
12/30/2013  15:57:00       66.172       42.021       -2.126       19.339       14.866       13.637      373.980      220.993      185.963        0.346        0.039       78.387        9.521        0.015      336.321        7.544      867.088
12/30/2013  15:58:00       63.340       49.130       17.211       29.732       20.990       20.821      883.978      440.590      433.505        0.424        0.088       80.161       15.076        0.035      336.332        7.562      867.068
12/30/2013  15:59:00       56.477       30.471       16.057       19.839       12.514       12.597      393.594      156.607      158.675        0.254        0.035       64.172       10.163        0.025      336.365        7.619      867.041
12/30/2013  16:00:00       41.334       24.419       20.551       26.413       21.006       16.044      697.659      441.259      257.408        0.206        0.070       48.008       10.149        0.045      336.418        7.706      867.043
12/30/2013  16:01:00       50.308       32.996       14.406       15.986       13.244       10.753      255.568      175.401      115.624        0.219        0.027       60.163        9.277        0.024      336.370        7.625      867.056
12/30/2013  16:02:00       40.607       26.786       24.695       14.993       18.409       11.125      224.800      338.890      123.756        0.183        0.034       48.646        7.122        0.021      336.379        7.643      867.054
12/30/2013  16:03:00       71.026       39.069       20.341       21.311       15.880       20.073      454.156      252.172      402.945        0.405        0.055       81.062       12.988        0.026      336.347        7.588      867.053
12/30/2013  16:04:00       78.125       40.732       11.444       21.250       12.745       17.499      451.582      162.428      306.212        0.441        0.046       88.105       12.654        0.021      336.383        7.649      867.056
12/30/2013  16:05:00       82.817       42.128        7.784       17.989       15.073       19.885      323.597      227.183      395.415        0.482        0.047       92.916        9.673        0.011      336.370        7.628      867.069
12/30/2013  16:06:00       66.010       54.420       -1.302       19.902       14.911       12.513      396.104      222.346      156.563        0.405        0.039       85.550       10.094        0.014      336.326        7.553      867.105
12/30/2013  16:07:00       24.451       26.249       -3.409       21.825       18.149       10.464      476.313      329.387      109.502        0.111        0.046       35.873       10.705        0.089      336.348        7.587      867.137
12/30/2013  16:08:00       11.824       51.020      -10.625        8.192       16.823        6.719       67.109      283.021       45.143        0.163        0.020       52.373        3.894        0.006      336.350        7.591      867.158
12/30/2013  16:09:00       26.367       47.337       -1.716       19.178       21.996       17.806      367.795      483.828      317.067        0.205        0.058       54.185       17.359        0.103      336.343        7.580      867.152
12/30/2013  16:10:00       38.443       32.489       -3.283       19.668       19.210       15.901      386.821      369.011      252.853        0.178        0.050       50.332        6.516        0.017      336.316        7.535      867.131
12/30/2013  16:11:00       46.672       33.001        7.715       25.914       18.431       14.552      671.541      339.689      211.747        0.227        0.061       57.160        8.447        0.022      336.324        7.549      867.108
12/30/2013  16:12:00       68.244       43.901        2.612       12.477       13.608       14.127      155.668      185.178      199.565        0.357        0.027       81.145        8.838        0.012      336.345        7.585      867.106
12/30/2013  16:13:00       29.766       22.021        8.872       25.147       16.319       15.086      632.391      266.296      227.593        0.129        0.056       37.026        7.455        0.041      336.330        7.558      867.098
12/30/2013  16:14:00       45.895       45.322        6.741       21.827       15.388       14.524      476.397      236.802      210.933        0.256        0.046       64.502        9.538        0.022      336.307        7.522      867.090
12/30/2013  16:15:00       44.526       48.116       -2.551        8.421       11.495        5.943       70.917      132.125       35.319        0.227        0.012       65.557        3.872        0.003      336.331        7.559      867.091
12/30/2013  16:16:00       51.630       24.478        3.306       14.055       11.966       10.078      197.537      143.180      101.564        0.186        0.022       57.138        8.371        0.021      336.292        7.495      867.089
12/30/2013  16:17:00       66.464       35.714        7.445       12.205       10.700       16.022      148.962      114.500      256.693        0.313        0.026       75.452        4.925        0.004      336.336        7.570      867.079
12/30/2013  16:18:00       82.512       47.581        5.450       12.498       11.631       12.314      156.196      135.288      151.632        0.477        0.022       95.248        8.335        0.008      336.312        7.526      867.089
12/30/2013  16:19:00       88.820       49.660        5.730       11.598       14.309       14.704      134.518      204.753      216.202        0.547        0.028      101.760        3.566        0.001      336.327        7.551      867.090
12/30/2013  16:20:00       50.298       20.354        4.784       33.507       23.401       13.240     1122.718      547.602      175.287        0.241        0.092       54.260       13.642        0.063      336.298        7.505      867.114
12/30/2013  16:21:00       30.174       16.027        7.544       16.225       12.674       13.499      263.261      160.620      182.212        0.092        0.030       34.167       10.475        0.094      336.278        7.472      867.137
12/30/2013  16:22:00       35.481       32.397        7.053       13.275       11.027       13.753      176.230      121.603      189.154        0.142        0.024       48.046        8.607        0.032      336.258        7.439      867.141
12/30/2013  16:23:00       54.107       35.221       13.846       14.251       10.830        9.251      203.081      117.288       85.585        0.238        0.020       64.561        5.894        0.008      336.255        7.435      867.143
12/30/2013  16:24:00       80.364       40.530        6.159        9.443        8.382        8.665       89.171       70.263       75.082        0.419        0.012       90.006        4.771        0.003      336.274        7.466      867.139
12/30/2013  16:25:00       63.694       29.336        5.608       11.365       11.106       10.693      129.167      123.349      114.331        0.266        0.018       70.125        7.537        0.012      336.268        7.456      867.150
12/30/2013  16:26:00       40.778       26.450        6.104       10.806        7.169       10.408      116.774       51.396      108.332        0.134        0.014       48.605        5.955        0.015      336.287        7.487      867.173
12/30/2013  16:27:00       33.792       22.535        8.483        8.437        8.681        8.457       71.187       75.357       71.529        0.097        0.011       40.617        6.433        0.025      336.306        7.517      867.190
12/30/2013  16:28:00       29.734       29.465        6.686        9.810       10.353        7.365       96.241      107.180       54.242        0.103        0.013       41.861        5.016        0.014      336.294        7.498      867.195
12/30/2013  16:29:00       46.309       29.687       11.589        7.362        7.173        6.823       54.194       51.445       46.552        0.166        0.008       55.008        5.235        0.009      336.294        7.501      867.180
12/30/2013  16:30:00       50.666       31.659        5.925       12.397       10.985       10.232      153.684      120.675      104.691        0.199        0.019       59.744        6.879        0.013      336.274        7.465      867.177
12/30/2013  16:31:00       55.743       30.105       -0.021        8.233        7.335        7.791       67.776       53.798       60.702        0.210        0.009       63.353        2.960        0.002      336.302        7.512      867.189
12/30/2013  16:32:00       42.021       25.988        6.456        7.409        7.993       10.467       54.898       63.888      109.566        0.136        0.011       49.408        6.814        0.019      336.250        7.426      867.201
12/30/2013  16:33:00       38.067       24.638        5.671       16.312        9.794        7.814      266.067       95.924       61.059        0.126        0.021       45.344        6.340        0.020      336.224        7.382      867.220
12/30/2013  16:34:00       43.190       23.002        4.523        9.935        6.468        6.806       98.710       41.832       46.326        0.130        0.009       48.933        5.303        0.012      336.315        7.534      867.246
12/30/2013  16:35:00       20.859       16.920        2.054        9.881        3.833        4.962       97.636       14.693       24.617        0.043        0.007       26.859        2.926        0.012      336.335        7.567      867.265
12/30/2013  16:36:00        4.349       12.698       10.378        9.295        7.768        6.295       86.406       60.348       39.632        0.024        0.009       13.422        5.081        0.143      336.248        7.422      867.262
12/30/2013  16:37:00      -16.147      -15.436        3.068        9.782       13.595        6.513       95.691      184.811       42.418        0.042        0.016       22.339        3.318        0.022      336.318        7.538      867.248
12/30/2013  16:38:00        7.987        7.303        6.884       10.256       10.046        6.033      105.176      100.924       36.401        0.020        0.012       10.823        3.156        0.085      336.348        7.591      867.227
12/30/2013  16:39:00       37.789       22.059       13.657       15.836       11.193       11.242      250.788      125.285      126.382        0.130        0.025       43.756        7.275        0.028      336.246        7.419      867.197
12/30/2013  16:40:00       57.421       22.854       10.955       15.457       11.590       10.961      238.910      134.339      120.153        0.222        0.025       61.802        6.964        0.013      336.228        7.389      867.168
12/30/2013  16:41:00       36.418       10.716        8.606       27.366       14.401        8.248      748.898      207.391       68.028        0.127        0.051       37.962        7.686        0.041      336.203        7.346      867.168
12/30/2013  16:42:00       36.791       20.109       17.208       24.077       14.358        9.950      579.681      206.151       98.999        0.147        0.044       41.928        4.493        0.011      336.196        7.333      867.180
12/30/2013  16:43:00       54.337       27.377        9.388       20.773       15.808       16.563      431.535      249.898      274.317        0.237        0.048       60.844       13.666        0.050      336.250        7.425      867.185
12/30/2013  16:44:00       52.293       47.090       13.844       15.874       14.572       17.663      251.984      212.334      311.980        0.296        0.039       70.370        6.175        0.008      336.212        7.363      867.195
12/30/2013  16:45:00       54.656       41.549        6.763       26.260       21.327       15.625      689.606      454.824      244.153        0.307        0.069       68.656       14.620        0.045      336.180        7.307      867.211
12/30/2013  16:46:00       62.823       47.925        1.997       18.655       16.962       10.694      348.018      287.693      114.351        0.350        0.038       79.015        6.470        0.007      336.182        7.310      867.218
12/30/2013  16:47:00       54.592       28.759        4.335       17.977       18.161       12.880      323.185      329.839      165.905        0.232        0.041       61.704        9.396        0.023      336.143        7.246      867.220
12/30/2013  16:48:00       59.559       40.722        6.972       19.665       14.753       11.375      386.715      217.650      129.383        0.299        0.037       72.150        8.976        0.015      336.176        7.302      867.222
12/30/2013  16:49:00       75.254       54.724        7.400       17.457       15.630       12.018      304.764      244.282      144.427        0.470        0.035       93.047        9.826        0.011      336.144        7.249      867.230
12/30/2013  16:50:00       75.266       44.007       10.385       21.397       16.261       14.734      457.813      264.421      217.102        0.432        0.047       87.187        8.387        0.009      336.088        7.155      867.235
12/30/2013  16:51:00       50.062       34.900        5.780       23.534       20.349       12.821      553.845      414.062      164.367        0.244        0.057       61.026       10.768        0.031      336.087        7.152      867.265
12/30/2013  16:52:00       43.664       40.384        9.263       23.770       15.346       19.877      565.020      235.504      395.081        0.241        0.060       59.476       14.043        0.056      336.101        7.176      867.289
12/30/2013  16:53:00       30.636       23.740        5.144       19.806       14.267       16.690      392.285      203.557      278.550        0.120        0.044       38.757       11.248        0.084      336.072        7.128      867.306
12/30/2013  16:54:00       19.034       29.396       -1.824       18.775       18.686       11.793      352.493      349.159      139.080        0.104        0.042       35.020       12.623        0.130      336.119        7.207      867.325
12/30/2013  16:55:00       15.509       43.074       -3.836       13.277       14.702        6.686      176.282      216.154       44.709        0.127        0.022       45.781        7.026        0.024      336.149        7.257      867.329
12/30/2013  16:56:00       41.614       46.776        8.774       16.386       17.648       17.197      268.501      311.463      295.752        0.244        0.044       62.608       12.075        0.037      336.100        7.175      867.306
12/30/2013  16:57:00       65.684       49.507        2.378       27.059       22.994       23.274      732.179      528.714      541.684        0.429        0.090       82.251       15.930        0.038      336.041        7.075      867.272
12/30/2013  16:58:00       82.762       47.147       18.250       25.655       23.856       21.311      658.153      569.093      454.161        0.554        0.084       95.249       15.769        0.027      336.045        7.082      867.263
12/30/2013  16:59:00       45.770       40.548        1.119       21.481       21.772       15.520      461.415      474.041      240.864        0.246        0.059       61.148        9.052        0.022      336.051        7.093      867.268
12/30/2013  17:00:00       32.624       35.514       -4.761       25.136       17.324       11.903      631.812      300.131      141.687        0.171        0.054       48.224       14.120        0.086      336.081        7.143      867.252
12/30/2013  17:01:00       19.820       20.588        1.527       16.670       18.918       15.273      277.890      357.884      233.267        0.084        0.043       28.578       12.591        0.194      336.045        7.083      867.235
12/30/2013  17:02:00       41.418       32.226        7.057       23.141       14.791       17.905      535.501      218.768      320.574        0.194        0.054       52.479       11.041        0.044      336.025        7.049      867.204
12/30/2013  17:03:00       40.391       35.837       -0.637       20.589       24.461       18.158      423.889      598.326      329.705        0.213        0.068       53.997       15.528        0.083      336.031        7.060      867.189
12/30/2013  17:04:00        7.672       12.347       -6.379       18.783       10.088        8.716      352.803      101.769       75.969        0.039        0.027       14.536        3.698        0.065      336.035        7.066      867.195
12/30/2013  17:05:00       17.630        6.708        5.520       10.046       10.187        8.950      100.927      103.780       80.105        0.034        0.014       18.863        6.461        0.117      336.037        7.069      867.196
12/30/2013  17:06:00       24.976       17.414        4.381        8.464       11.676        7.758       71.640      136.318       60.194        0.061        0.013       30.448        4.053        0.018      336.091        7.161      867.192
12/30/2013  17:07:00       29.923       12.271        2.037        9.870       11.512        6.095       97.423      132.526       37.152        0.066        0.013       32.342        4.452        0.019      336.087        7.155      867.184
12/30/2013  17:08:00       44.673       15.055        3.240       11.209        6.522        8.514      125.649       42.532       72.482        0.124        0.012       47.141        5.175        0.012      336.072        7.128      867.177
12/30/2013  17:09:00       37.538        5.749        9.185       19.708       14.170       10.678      388.404      200.799      114.013        0.111        0.035       37.976        7.420        0.038      336.043        7.079      867.173
12/30/2013  17:10:00       17.097       -5.176        1.829       14.040       12.850        8.487      197.128      165.114       72.034        0.038        0.022       17.863        7.887        0.195      336.030        7.057      867.180
12/30/2013  17:11:00       28.720       -6.072        5.831       20.476        9.374        9.502      419.253       87.863       90.288        0.075        0.030       29.354        8.228        0.079      336.064        7.114      867.190
12/30/2013  17:12:00       24.523        2.082        8.157       22.654       16.278       13.134      513.215      264.989      172.507        0.081        0.048       24.611       12.474        0.257      336.084        7.149      867.202
12/30/2013  17:13:00       15.623        8.768       14.094       13.522       13.432       10.358      182.838      180.420      107.286        0.049        0.024       17.916        7.937        0.196      335.923        6.881      867.198
12/30/2013  17:14:00       26.538        4.866       12.242       24.995       11.504       11.387      624.725      132.337      129.671        0.088        0.044       26.980       13.283        0.242      335.993        6.995      867.198
12/30/2013  17:15:00       26.152        5.162       10.626       18.700       17.496       13.824      349.701      306.113      191.112        0.084        0.042       26.657       13.720        0.265      335.952        6.927      867.188
12/30/2013  17:16:00       23.254        2.295        6.364       20.327       16.451       11.715      413.171      270.631      137.253        0.070        0.041       23.367       11.715        0.251      335.917        6.869      867.180
12/30/2013  17:17:00       29.895       -6.838        3.536       25.833       13.335       10.242      667.362      177.811      104.893        0.095        0.048       30.667       11.793        0.148      336.010        7.026      867.178
12/30/2013  17:18:00       31.971      -22.825       13.419       25.519       28.251       12.091      651.211      798.144      146.186        0.166        0.080       39.282       15.031        0.146      336.027        7.052      867.191
12/30/2013  17:19:00       39.628       19.709       18.202       19.502        8.297       15.518      380.314       68.841      240.816        0.149        0.034       44.259        8.893        0.040      335.964        6.946      867.210
12/30/2013  17:20:00       33.370       19.741       14.110       29.112       18.871       13.153      847.495      356.098      173.010        0.154        0.069       38.772       11.644        0.090      335.953        6.929      867.227
12/30/2013  17:21:00      -12.837       -9.927        9.588       14.227       11.104        7.842      202.408      123.308       61.500        0.037        0.019       16.228        5.594        0.119      335.751        6.593      867.248
12/30/2013  17:22:00      -48.138       -6.631        0.975        7.506        6.760        8.962       56.344       45.693       80.309        0.127        0.009       48.593        5.218        0.012      335.396        6.000      867.264
12/30/2013  17:23:00      -50.568       -1.864       -4.397       12.605       12.868        7.409      158.891      165.587       54.895        0.148        0.019       50.602        5.746        0.013      335.326        5.885      867.296
12/30/2013  17:24:00      -60.707      -13.070      -13.655        8.143       15.619        5.383       66.306      243.942       28.979        0.219        0.017       62.098        3.646        0.003      335.295        5.833      867.330
12/30/2013  17:25:00      -83.493       -8.024      -13.633       13.602       14.266        9.131      185.028      203.508       83.376        0.385        0.024       83.877        6.540        0.006      334.964        5.284      867.354
12/30/2013  17:26:00     -124.488       -6.074      -19.088       28.962       20.321       16.144      838.785      412.961      260.629        0.871        0.076      124.636       12.687        0.010      334.891        5.164      867.364
12/30/2013  17:27:00      -87.724       -2.466      -12.907       23.810       21.856       16.080      566.894      477.669      258.557        0.459        0.065       87.759       13.437        0.023      334.805        5.021      867.379
12/30/2013  17:28:00      -53.245        6.583      -10.844       11.936       19.785        9.227      142.473      391.460       85.143        0.181        0.031       53.650       10.369        0.037      335.009        5.359      867.364
12/30/2013  17:29:00      -80.252      -32.156      -14.571       20.656       12.888        9.258      426.684      166.105       85.717        0.418        0.034       86.455        4.568        0.003      335.182        5.646      867.371
12/30/2013  17:30:00      -75.489      -25.556      -16.448       32.896       26.836       16.755     1082.146      720.163      280.736        0.435        0.104       79.698       16.240        0.042      334.933        5.234      867.390
12/30/2013  17:31:00      -84.464       10.343      -10.542       38.968       26.946       22.785     1518.515      726.082      519.134        0.506        0.138       85.094       24.382        0.082      334.902        5.182      867.398
12/30/2013  17:32:00     -111.313      -15.503       -7.145       36.594       31.833       21.669     1339.129     1013.349      469.531        0.775        0.141      112.387       17.678        0.025      334.905        5.187      867.412
12/30/2013  17:33:00      -92.534       13.383       -3.668       53.440       46.709       29.428     2855.857     2181.709      865.998        0.733        0.295       93.497       20.797        0.049      334.835        5.070      867.430
12/30/2013  17:34:00      -50.264       -1.378       -3.287       46.475       26.739       22.023     2159.914      714.961      485.015        0.295        0.168       50.283       22.159        0.194      334.831        5.063      867.397
12/30/2013  17:35:00      -30.747       -6.942       -9.380       29.499       29.332       20.495      870.195      860.395      420.037        0.162        0.108       31.521       12.672        0.162      334.902        5.181      867.379
12/30/2013  17:36:00       -8.020        1.465       -9.861       21.843       17.465       17.499      477.126      305.020      306.202        0.063        0.054        8.153       11.821        2.102      334.974        5.301      867.348
12/30/2013  17:37:00      -27.586      -17.702       -2.814       11.326       18.198       11.686      128.269      331.170      136.568        0.084        0.030       32.777       10.186        0.097      335.078        5.474      867.322
12/30/2013  17:38:00      -61.897      -22.118      -10.075       22.436       21.702       13.753      503.383      470.968      189.134        0.279        0.058       65.730       10.419        0.025      334.891        5.164      867.325
12/30/2013  17:39:00     -111.113      -36.844       -8.601       40.884       24.466       17.968     1671.520      598.578      322.853        0.818        0.130      117.062        7.596        0.004      334.756        4.938      867.329
12/30/2013  17:40:00     -126.257      -16.287      -12.284       36.817       32.448       22.870     1355.493     1052.880      523.040        0.964        0.147      127.303       11.684        0.008      334.744        4.918      867.339
12/30/2013  17:41:00     -100.929      -16.779       -9.353       41.148       24.958       18.837     1693.117      622.878      354.851        0.661        0.134      102.315       16.363        0.026      334.694        4.835      867.314
12/30/2013  17:42:00      -51.070       -0.673       -1.229       36.252       27.760       20.113     1314.173      770.597      404.540        0.255        0.124       51.075       15.328        0.090      334.865        5.119      867.274
12/30/2013  17:43:00     -104.506      -16.291      -17.581       23.092       14.184       12.464      533.246      201.184      155.348        0.619        0.044      105.768       12.990        0.015      334.829        5.061      867.232
12/30/2013  17:44:00      -86.034       -4.873      -10.596       28.502       26.646       12.406      812.356      710.008      153.903        0.461        0.084       86.172       11.823        0.019      334.924        5.220      867.212
12/30/2013  17:45:00      -74.784      -26.197       -5.857       22.524       17.911       14.247      507.343      320.796      202.978        0.367        0.052       79.240        5.404        0.005      334.798        5.009      867.200
12/30/2013  17:46:00      -67.594      -32.325      -14.016       16.642       17.934       13.347      276.960      321.624      178.141        0.329        0.039       74.925        6.982        0.009      334.755        4.938      867.182
12/30/2013  17:47:00      -89.129      -20.783       -7.826       22.106       23.127       17.722      488.695      534.837      314.062        0.489        0.067       91.520       16.715        0.033      334.786        4.988      867.173
12/30/2013  17:48:00      -69.158       -3.272      -14.181       16.098       18.070        9.825      259.134      326.540       96.535        0.284        0.034       69.235        7.541        0.012      334.876        5.138      867.183
12/30/2013  17:49:00      -71.566      -35.703      -11.597       22.389       27.198       15.259      501.278      739.752      232.849        0.400        0.074       79.978       15.301        0.037      334.762        4.947      867.205
12/30/2013  17:50:00      -70.998       -5.807       -9.048       41.272       30.795       17.349     1703.414      948.343      300.989        0.405        0.148       71.235       15.163        0.045      334.750        4.930      867.227
12/30/2013  17:51:00      -64.559       17.821      -19.367       22.235       31.350       16.360      494.376      982.801      267.652        0.330        0.087       66.973        7.366        0.012      334.835        5.070      867.241
12/30/2013  17:52:00      -28.853       15.555      -10.449       22.257       30.972       14.756      495.372      959.245      217.748        0.143        0.084       32.779        7.982        0.059      334.901        5.179      867.231
12/30/2013  17:53:00      -35.650      -14.846       -6.628       28.939       35.007       17.970      837.441     1225.510      322.936        0.196        0.119       38.618       12.550        0.106      334.814        5.037      867.255
12/30/2013  17:54:00      -72.712      -21.131       -5.671       53.673       26.153       18.996     2880.795      683.997      360.861        0.485        0.196       75.721       17.973        0.056      334.562        4.616      867.295
12/30/2013  17:55:00     -110.019      -27.718      -14.734       39.211       33.383       23.430     1537.492     1114.402      548.942        0.814        0.160      113.457       18.503        0.027      334.427        4.393      867.332
12/30/2013  17:56:00      -76.104      -29.216      -13.757       21.312       24.524       15.768      454.183      601.403      248.641        0.407        0.065       81.519       10.921        0.018      334.441        4.417      867.331
12/30/2013  17:57:00      -90.172      -40.158       -5.349       19.093       20.264       16.272      364.553      410.619      264.782        0.541        0.052       98.710       10.486        0.011      334.440        4.413      867.337
12/30/2013  17:58:00      -89.595      -16.823       -9.766       34.701       30.070       13.405     1204.190      904.234      179.683        0.535        0.114       91.161        9.635        0.011      334.482        4.483      867.321
12/30/2013  17:59:00      -69.588       16.294       -8.360       31.391       24.270       16.902      985.384      589.010      285.663        0.352        0.093       71.470       14.961        0.044      334.434        4.404      867.303
12/30/2013  18:00:00      -47.434        0.881      -12.413       16.509       11.764       10.852      272.552      138.403      117.755        0.147        0.026       47.442        5.362        0.013      334.578        4.644      867.282
12/30/2013  18:01:00      -62.101       -9.008      -14.214       14.170       14.680        9.472      200.802      215.500       89.728        0.232        0.025       62.750        8.045        0.016      334.591        4.664      867.291
12/30/2013  18:02:00      -71.488        0.630      -15.317       14.619       10.357       13.207      213.728      107.266      174.425        0.292        0.025       71.491        7.003        0.010      334.713        4.868      867.304
12/30/2013  18:03:00      -82.237       -0.205      -19.763       16.299       10.870       11.340      265.655      118.152      128.599        0.383        0.026       82.237        8.306        0.010      334.380        4.314      867.338
12/30/2013  18:04:00      -70.312        0.224       -9.813       33.170       36.386       22.933     1100.274     1323.969      525.934        0.399        0.148       70.312       18.090        0.066      334.204        4.024      867.375
12/30/2013  18:05:00      -54.914      -11.288       -4.591       35.749       36.299       22.717     1278.002     1317.626      516.078        0.314        0.156       56.062       17.798        0.101      334.246        4.093      867.406
12/30/2013  18:06:00      -25.316       -2.889       -1.069       52.355       43.454       22.907     2741.006     1888.242      524.727        0.290        0.258       25.480       17.683        0.482      334.454        4.437      867.418
12/30/2013  18:07:00      -59.088        6.627      -28.605       41.346       26.816       17.634     1709.457      719.121      310.962        0.355        0.137       59.459       15.812        0.071      334.565        4.621      867.414
12/30/2013  18:08:00      -61.314      -19.439      -25.523       20.048       17.102       15.132      401.918      292.485      228.984        0.286        0.046       64.322        8.013        0.016      334.626        4.723      867.407
12/30/2013  18:09:00      -12.433      -22.906       -5.252       25.823       24.298       16.105      666.806      590.404      259.364        0.111        0.076       26.063       13.137        0.254      334.504        4.521      867.405
12/30/2013  18:10:00      -25.715      -33.944        6.324       33.233       27.023       22.194     1104.451      730.245      492.590        0.209        0.116       42.585       15.696        0.136      334.332        4.236      867.419
12/30/2013  18:11:00      -43.181      -33.102      -17.479       43.066       18.722       14.551     1854.707      350.528      211.721        0.284        0.121       54.409        5.268        0.009      334.268        4.129      867.411
12/30/2013  18:12:00      -25.272      -28.739      -14.675       23.791       14.176       11.783      565.990      200.963      138.851        0.129        0.045       38.270        7.653        0.040      334.386        4.325      867.405
12/30/2013  18:13:00      -77.139      -32.999       -6.889       22.771       22.600       18.373      518.503      510.762      337.565        0.423        0.068       83.901       13.154        0.025      334.426        4.392      867.429
12/30/2013  18:14:00      -86.524      -56.412      -15.355       13.426       10.589       11.825      180.252      112.127      139.830        0.567        0.022      103.290        5.921        0.003      334.353        4.270      867.439
12/30/2013  18:15:00      -57.735      -11.777      -10.374       25.248       20.005       13.121      637.481      400.206      172.163        0.239        0.060       58.924       13.192        0.050      334.357        4.277      867.428
12/30/2013  18:16:00      -44.988       -8.633       -7.119       16.102       14.445        6.451      259.265      208.647       41.612        0.133        0.025       45.809        3.636        0.006      334.421        4.383      867.414
12/30/2013  18:17:00      -80.800      -15.665      -15.838       12.538        8.911        9.272      157.202       79.401       85.970        0.367        0.016       82.305        7.006        0.007      334.509        4.527      867.435
12/30/2013  18:18:00     -114.853      -39.463       -9.942       15.172       17.917       12.107      230.192      321.031      146.590        0.777        0.035      121.444        8.507        0.005      334.445        4.424      867.476
12/30/2013  18:19:00     -126.770      -30.289      -21.463       12.950       16.991        7.688      167.704      288.703       59.112        0.898        0.026      130.338        3.288        0.001      334.409        4.365      867.502
12/30/2013  18:20:00      -97.711        2.650      -12.004       15.100       12.817       11.304      228.017      164.279      127.781        0.511        0.026       97.747        8.490        0.008      334.503        4.518      867.514
12/30/2013  18:21:00     -109.875        8.949      -14.095       10.361       12.064        9.306      107.350      145.534       86.594        0.635        0.017      110.239        3.864        0.001      334.600        4.679      867.551
12/30/2013  18:22:00     -101.933      -16.108      -16.680       24.415       13.393       14.094      596.089      179.371      198.633        0.595        0.049      103.198       12.259        0.014      334.552        4.600      867.600
12/30/2013  18:23:00     -105.763       -1.974      -19.314       18.234       13.496       13.507      332.466      182.138      182.446        0.613        0.035      105.782       10.018        0.009      334.422        4.385      867.628
12/30/2013  18:24:00      -86.002        2.179      -12.490       29.629       16.440       15.980      877.892      270.265      255.376        0.448        0.070       86.030       13.770        0.026      334.395        4.340      867.668
12/30/2013  18:25:00      -96.837       -0.965      -13.161       16.741       18.171       14.534      280.268      330.173      211.227        0.519        0.041       96.842       10.494        0.012      334.328        4.229      867.684
12/30/2013  18:26:00      -93.196        5.678      -18.680       11.542       10.053       11.278      133.222      101.065      127.204        0.471        0.018       93.369        1.970        0.000      334.309        4.195      867.676
12/30/2013  18:27:00      -78.246      -11.656      -11.532       23.990       17.225       13.696      575.516      296.708      187.592        0.373        0.053       79.109       11.719        0.022      334.368        4.296      867.670
12/30/2013  18:28:00      -61.946      -27.090      -11.631       15.104       21.945       10.657      228.139      481.592      113.578        0.276        0.041       67.610        9.468        0.020      334.320        4.215      867.649
12/30/2013  18:29:00      -31.723      -24.755      -10.511       15.713       16.370       10.668      246.885      267.983      113.810        0.118        0.031       40.239        4.325        0.012      334.489        4.495      867.632
12/30/2013  18:30:00      -33.459        4.006       -4.900        8.521       11.463        6.117       72.607      131.398       37.414        0.070        0.012       33.698        4.787        0.020      334.716        4.872      867.635
12/30/2013  18:31:00      -38.368        2.471       -7.367        7.826        8.881        9.404       61.252       78.871       88.430        0.088        0.011       38.447        6.933        0.033      334.602        4.684      867.635
12/30/2013  18:32:00      -46.306        7.343       -8.787       13.716       12.300       10.994      188.116      151.290      120.863        0.137        0.023       46.884        7.324        0.024      334.541        4.582      867.643
12/30/2013  18:33:00      -46.723       39.445       -8.390       19.602       27.887       13.447      384.247      777.672      180.829        0.258        0.067       61.147       12.946        0.045      334.802        5.015      867.651
12/30/2013  18:34:00      -24.875        5.075       -9.600       16.812       35.985       12.656      282.641     1294.939      160.164        0.124        0.087       25.388        6.281        0.061      334.595        4.672      867.647
12/30/2013  18:35:00      -29.097      -21.202      -11.169       27.016       14.262       13.758      729.878      203.404      189.272        0.127        0.056       36.002       10.223        0.081      334.372        4.303      867.649
12/30/2013  18:36:00      -80.667      -23.125      -17.352       17.956       13.404       13.530      322.405      179.678      183.074        0.401        0.034       83.916        9.451        0.013      334.125        3.890      867.652
12/30/2013  18:37:00      -94.728      -14.652      -22.203       16.586       14.825       13.760      275.083      219.786      189.327        0.518        0.034       95.854       10.240        0.011      334.057        3.778      867.646
12/30/2013  18:38:00      -87.155      -40.968      -12.098       25.413       20.085       14.323      645.799      403.413      205.149        0.534        0.063       96.304        9.668        0.010      334.058        3.779      867.646
12/30/2013  18:39:00     -105.200      -41.813      -18.408       19.758       22.764       14.614      390.393      518.194      213.580        0.714        0.056      113.205       12.967        0.013      334.072        3.804      867.684
12/30/2013  18:40:00     -109.549      -43.640      -21.086       19.536       23.683       15.497      381.655      560.879      240.146        0.777        0.059      117.921       10.923        0.009      334.119        3.881      867.723
12/30/2013  18:41:00      -65.846      -52.067      -13.003       20.751       19.438       17.047      430.622      377.830      290.585        0.416        0.055       83.944       13.700        0.027      334.177        3.980      867.757
12/30/2013  18:42:00     -104.826      -11.010       -8.744       33.598       32.474       22.241     1128.818     1054.528      494.667        0.693        0.134      105.402       19.643        0.035      334.159        3.947      867.797
12/30/2013  18:43:00      -64.316        0.470       -9.379       37.636       30.691       20.765     1416.458      941.941      431.202        0.351        0.139       64.318       22.767        0.125      334.177        3.979      867.797
12/30/2013  18:44:00      -34.211      -10.233      -11.394       24.894       27.979       15.172      619.731      782.825      230.184        0.152        0.082       35.708       15.027        0.177      334.253        4.104      867.769
12/30/2013  18:45:00      -63.683      -38.795       -8.819       15.122       19.771       11.076      228.672      390.909      122.683        0.319        0.037       74.569        6.868        0.008      334.269        4.131      867.749
12/30/2013  18:46:00      -71.161      -23.708      -12.231       13.280       20.119       12.214      176.363      404.764      149.173        0.325        0.037       75.006        9.368        0.016      334.311        4.200      867.707
12/30/2013  18:47:00      -57.408      -13.933      -18.790       13.477       15.907       12.960      181.620      253.023      167.949        0.222        0.030       59.075       10.367        0.031      334.311        4.200      867.686
12/30/2013  18:48:00      -90.103      -11.878      -10.110       31.967       14.188       11.071     1021.873      201.292      122.577        0.485        0.067       90.882       13.830        0.023      334.369        4.297      867.690
12/30/2013  18:49:00      -96.874      -32.954      -13.875       14.904       16.763       11.596      222.122      281.005      134.474        0.565        0.032      102.326        7.538        0.005      334.315        4.207      867.694
12/30/2013  18:50:00      -83.984      -50.941      -18.404       22.670       18.232       13.653      513.938      332.414      186.415        0.551        0.052       98.226       11.161        0.013      334.243        4.087      867.702
12/30/2013  18:51:00     -105.147      -42.749      -21.083       15.688       19.303       10.554      246.110      372.624      111.379        0.703        0.037      113.504        9.962        0.008      334.266        4.126      867.720
12/30/2013  18:52:00     -122.177      -44.537      -16.058       16.200       26.631       13.905      262.430      709.199      193.341        0.917        0.058      130.041        7.847        0.004      334.299        4.180      867.712
12/30/2013  18:53:00     -111.295      -32.920      -12.999       21.239       20.828       11.768      451.104      433.798      138.482        0.733        0.051      116.062        7.966        0.005      334.260        4.116      867.694
12/30/2013  18:54:00     -118.653      -21.024      -14.460       25.032       31.435       11.691      626.625      988.157      136.673        0.824        0.088      120.501        5.330        0.002      334.188        3.996      867.698
12/30/2013  18:55:00     -114.156       -6.407       -5.812       36.315       24.603       18.956     1318.752      605.305      359.314        0.769        0.114      114.336       18.956        0.027      334.095        3.842      867.705
12/30/2013  18:56:00      -72.487        1.997      -11.904       37.403       25.399       15.577     1399.003      645.116      242.647        0.384        0.114       72.515       14.012        0.037      334.175        3.975      867.707
12/30/2013  18:57:00      -65.842        7.535       -6.686       47.250       25.867       20.653     2232.570      669.093      426.546        0.388        0.166       66.271        4.114        0.004      334.313        4.204      867.727
12/30/2013  18:58:00      -41.215       -8.138       -9.429       29.032       31.792       16.385      842.830     1010.717      268.476        0.199        0.106       42.011       11.618        0.076      334.263        4.120      867.733
12/30/2013  18:59:00      -84.939      -29.722      -14.169       28.941       27.626       17.727      837.590      763.189      314.239        0.511        0.096       89.989       12.094        0.018      334.073        3.806      867.729
12/30/2013  19:00:00      -87.730      -17.746      -14.427       28.799       36.514       16.802      829.392     1333.309      282.306        0.533        0.122       89.507       15.502        0.030      334.052        3.772      867.728
12/30/2013  19:01:00      -87.065      -11.258       -4.862       35.167       38.208       25.467     1236.693     1459.836      648.561        0.554        0.167       87.790       21.079        0.058      333.992        3.671      867.731
12/30/2013  19:02:00        4.155       -2.768       13.847       24.723       24.753       20.689      611.248      612.706      428.036        0.093        0.083        4.993       20.621       17.057      334.038        3.749      867.721
12/30/2013  19:03:00       -4.030       23.309       -7.691       35.780       32.560       17.246     1280.219     1060.158      297.424        0.163        0.132       23.655       14.989        0.401      334.317        4.209      867.715
12/30/2013  19:04:00       37.166       37.658       -3.978       12.675       19.663       12.276      160.662      386.626      150.689        0.176        0.035       52.910       10.547        0.040      334.333        4.239      867.725
12/30/2013  19:05:00        8.996       50.338        1.109       19.953       29.288       13.238      398.141      857.797      175.256        0.202        0.072       51.135       14.610        0.082      334.388        4.328      867.769
12/30/2013  19:06:00        1.180       33.054       -5.014       12.260       11.364        5.738      150.296      129.132       32.923        0.072        0.016       33.075        5.400        0.027      334.462        4.450      867.808
12/30/2013  19:07:00      -55.564      -25.077       -8.742       10.774       12.431        8.621      116.069      154.533       74.324        0.207        0.017       60.961        4.478        0.005      334.223        4.055      867.823
12/30/2013  19:08:00      -78.564      -12.519       -8.337       15.318       14.753       12.756      234.633      217.658      162.728        0.351        0.031       79.556       10.537        0.018      334.098        3.847      867.821
12/30/2013  19:09:00     -106.497       -8.093      -16.425       15.517       11.040       11.059      240.775      121.875      122.301        0.608        0.024      106.804        7.563        0.005      334.082        3.820      867.823
12/30/2013  19:10:00     -103.805      -18.771       -6.443       42.008       22.403       26.452     1764.708      501.914      699.721        0.707        0.148      105.489       19.719        0.035      333.936        3.579      867.816
12/30/2013  19:11:00      -86.312        8.094       -9.993       30.406       23.768       15.817      924.523      564.912      250.183        0.468        0.087       86.691        9.168        0.011      333.946        3.597      867.799
12/30/2013  19:12:00      -40.803        8.896       -7.883       18.066       18.601       11.525      326.398      346.007      132.820        0.131        0.040       41.761       11.419        0.075      334.187        3.996      867.767
12/30/2013  19:13:00      -15.472       17.673       -8.648       17.100       12.227        8.907      292.427      149.494       79.336        0.057        0.026       23.488       10.216        0.189      334.461        4.449      867.755
12/30/2013  19:14:00      -21.101        0.124       -5.067       15.466       11.566        9.754      239.202      133.770       95.146        0.047        0.023       21.101        7.231        0.117      334.580        4.648      867.765
12/30/2013  19:15:00      -53.394      -14.202       -8.905       17.503       10.149        5.264      306.342      103.003       27.710        0.178        0.022       55.251        5.849        0.011      334.363        4.286      867.785
12/30/2013  19:16:00      -81.861      -30.996      -12.730       11.775        7.997        8.189      138.642       63.951       67.055        0.405        0.013       87.532        3.924        0.002      334.200        4.017      867.805
12/30/2013  19:17:00     -136.018      -15.011      -18.424       20.273       20.692       14.394      410.995      428.160      207.201        1.006        0.052      136.843       11.060        0.007      334.042        3.753      867.822
12/30/2013  19:18:00     -131.845      -45.226       -9.679       21.898       24.623       13.607      479.532      606.272      185.154        1.040        0.064      139.386        8.915        0.004      334.014        3.708      867.839
12/30/2013  19:19:00      -98.640      -38.791       -4.234       34.439       17.449       19.395     1186.020      304.469      376.183        0.656        0.093      105.993       17.573        0.027      334.009        3.699      867.833
12/30/2013  19:20:00      -37.944      -25.473        2.012       34.182       23.350       14.055     1168.394      545.223      197.538        0.200        0.096       45.701       11.840        0.067      334.065        3.792      867.808
12/30/2013  19:21:00      -53.476      -27.759        3.771       29.630       18.882       12.409      877.912      356.520      153.986        0.252        0.069       60.252       12.533        0.043      334.203        4.021      867.760
12/30/2013  19:22:00      -38.933      -29.111        3.611       12.150       11.891       12.887      147.617      141.396      166.071        0.142        0.023       48.614        5.826        0.014      334.323        4.221      867.726
12/30/2013  19:23:00      -77.622      -46.060       -6.098       44.230       21.004       16.547     1956.289      441.157      273.792        0.543        0.134       90.259       22.578        0.063      334.423        4.387      867.724
12/30/2013  19:24:00     -124.186      -66.222      -11.003       16.979       15.422       12.763      288.278      237.834      162.901        1.031        0.034      140.739        9.789        0.005      334.386        4.325      867.770
12/30/2013  19:25:00     -126.970      -46.220      -13.079       18.493       24.424       12.277      342.007      596.508      150.727        0.976        0.054      135.120        9.608        0.005      334.371        4.300      867.805
12/30/2013  19:26:00     -129.865      -20.133       -7.550       17.635       20.405       16.188      311.005      416.370      262.062        0.916        0.049      131.417       11.402        0.008      334.217        4.044      867.823
12/30/2013  19:27:00     -115.627      -25.460       -6.343       16.599       17.043       12.330      275.515      290.465      152.023        0.739        0.036      118.397        9.130        0.006      334.275        4.141      867.827
12/30/2013  19:28:00      -95.647      -21.744       -6.923       22.955       17.823       14.924      526.941      317.644      222.718        0.537        0.053       98.087       11.958        0.015      334.340        4.249      867.825
12/30/2013  19:29:00     -109.447      -32.623      -15.379       12.047       14.175       10.121      145.140      200.941      102.444        0.686        0.022      114.205        4.468        0.002      334.353        4.270      867.822
12/30/2013  19:30:00     -105.284      -46.522       -9.592       15.376       15.647       10.262      236.433      244.815      105.309        0.696        0.029      115.104        3.966        0.001      334.312        4.203      867.819
12/30/2013  19:31:00      -57.049      -49.596        6.610       42.285       30.135       22.548     1788.029      908.125      508.392        0.448        0.160       75.593       19.846        0.069      334.304        4.189      867.802
12/30/2013  19:32:00      -11.183      -22.930       12.927       36.596       22.254       19.122     1339.265      495.225      365.649        0.151        0.110       25.512       20.448        0.642      334.294        4.174      867.760
12/30/2013  19:33:00        6.194      -22.975        9.771       16.295       17.408       15.853      265.541      303.039      251.323        0.074        0.041       23.796        8.653        0.132      334.397        4.344      867.708
12/30/2013  19:34:00      -29.380      -42.363       -5.695       18.816       20.304       11.061      354.032      412.251      122.350        0.179        0.044       51.554       11.023        0.046      334.597        4.674      867.680
12/30/2013  19:35:00      -70.711      -31.272        1.100       14.844       18.498       11.454      220.335      342.180      131.188        0.334        0.035       77.317        6.036        0.006      334.451        4.434      867.687
12/30/2013  19:36:00      -58.489      -33.656        7.969       37.435       23.708       20.336     1401.387      562.058      413.547        0.350        0.119       67.481       21.994        0.106      334.328        4.228      867.703
12/30/2013  19:37:00      -91.482      -57.880       -5.294       34.495       29.170       16.177     1189.939      850.873      261.699        0.702        0.115      108.254        8.729        0.007      334.392        4.336      867.706
12/30/2013  19:38:00      -73.489      -79.964       -9.343       44.683       18.145       20.426     1996.612      329.248      417.203        0.731        0.137      108.604       14.384        0.018      334.278        4.145      867.690
12/30/2013  19:39:00     -120.629      -47.625      -10.756       25.890       24.919       17.916      670.316      620.980      320.995        0.927        0.081      129.690       11.138        0.007      334.301        4.184      867.687
12/30/2013  19:40:00     -131.005      -48.891       -7.199       19.836       30.105       15.983      393.467      906.330      255.444        1.058        0.078      139.831       11.448        0.007      334.244        4.088      867.708
12/30/2013  19:41:00     -132.985      -37.737       -9.559       19.355       23.397       16.871      374.611      547.434      284.616        1.020        0.060      138.235        6.610        0.002      334.257        4.110      867.730
12/30/2013  19:42:00     -113.525      -28.094      -11.096       27.240       23.111       26.912      742.021      534.140      724.245        0.790        0.100      116.950       19.483        0.028      334.177        3.978      867.729
12/30/2013  19:43:00      -89.497      -35.557       -6.652       32.242       20.711       14.270     1039.542      428.932      203.646        0.549        0.084       96.301        9.161        0.009      334.216        4.043      867.719
12/30/2013  19:44:00      -68.945      -28.334        4.989       32.288       23.519       13.612     1042.488      553.135      185.297        0.368        0.089       74.540       14.143        0.036      334.299        4.181      867.714
12/30/2013  19:45:00      -78.536      -44.425        3.056       43.603       21.174       14.980     1901.252      448.343      224.408        0.536        0.129       90.230       17.890        0.039      334.373        4.303      867.726
12/30/2013  19:46:00      -86.898      -39.181        5.323       33.305       23.593       19.681     1109.209      556.631      387.350        0.558        0.103       95.322       15.291        0.026      334.240        4.082      867.751
12/30/2013  19:47:00     -127.215      -48.322       -1.085       25.504       22.611       14.005      650.456      511.257      196.142        0.994        0.068      136.083        9.175        0.005      334.235        4.075      867.790
12/30/2013  19:48:00     -109.176      -53.735       -1.341       42.659       21.490       22.030     1819.752      461.839      485.340        0.879        0.138      121.684       21.707        0.032      334.237        4.077      867.832
12/30/2013  19:49:00     -140.061      -57.714        0.123       33.754       26.641       19.630     1139.355      709.755      385.346        1.259        0.112      151.486       18.468        0.015      334.210        4.034      867.876
12/30/2013  19:50:00     -174.879      -57.961       -9.978       40.404       32.198       20.252     1632.477     1036.694      410.140        1.856        0.154      184.233       18.425        0.010      334.152        3.934      867.919
12/30/2013  19:51:00     -177.982      -52.292       -3.333       37.809       31.282       20.938     1429.503      978.585      438.415        1.863        0.142      185.505       20.747        0.013      334.197        4.010      867.937
12/30/2013  19:52:00     -117.279      -43.707       -6.292       32.176       34.553       17.578     1035.282     1193.919      308.974        0.912        0.127      125.158        4.361        0.001      334.229        4.064      867.935
12/30/2013  19:53:00      -98.869       17.388      -10.939       33.523       28.772       21.884     1123.759      827.845      478.919        0.631        0.122      100.386       20.181        0.040      334.156        3.943      867.918
12/30/2013  19:54:00     -138.691       29.507      -11.117       33.027       20.961       17.723     1090.814      439.380      314.121        1.104        0.092      141.795       12.212        0.007      334.201        4.018      867.909
12/30/2013  19:55:00     -143.468        8.580      -13.626       31.278       38.111       18.632      978.296     1452.483      347.167        1.181        0.139      143.724       12.164        0.007      334.189        3.998      867.938
12/30/2013  19:56:00     -106.650      -27.313      -14.065       47.496       42.077       27.039     2255.873     1770.478      731.128        0.854        0.238      110.092       20.016        0.033      334.144        3.923      867.997
12/30/2013  19:57:00      -82.138      -31.418        6.272       63.887       40.878       24.241     4081.510     1670.994      587.618        0.706        0.317       87.941       25.515        0.084      334.103        3.855      868.031
12/30/2013  19:58:00       -8.312       -1.871        9.638       19.606       14.558        9.769      384.394      211.941       95.427        0.043        0.035        8.520        9.734        1.305      334.099        3.849      868.022
12/30/2013  19:59:00      -22.622       11.070       -6.902       13.460       21.890       11.746      181.158      479.174      137.970        0.074        0.040       25.185       13.128        0.272      334.046        3.761      867.977
12/30/2013  20:00:00       -9.211       48.426       -4.077       20.855       20.755       11.651      434.940      430.779      135.737        0.172        0.050       49.294        5.371        0.012      334.329        4.232      867.926
12/30/2013  20:01:00      -22.453        3.139        2.673       17.935       12.123        9.591      321.681      146.972       91.992        0.054        0.028       22.671        6.836        0.091      334.252        4.104      867.898
12/30/2013  20:02:00      -67.192      -19.459      -11.206       18.691       17.697       11.478      349.353      313.200      131.733        0.291        0.040       69.953       11.853        0.029      334.058        3.781      867.915
12/30/2013  20:03:00     -101.129      -47.976      -14.317       21.568       16.150        9.031      465.184      260.825       81.552        0.677        0.040      111.932        6.305        0.003      333.924        3.559      867.937
12/30/2013  20:04:00      -91.291      -69.243       -8.118       37.076       26.315       17.812     1374.661      692.458      317.260        0.779        0.119      114.580       16.073        0.020      333.880        3.485      867.948
12/30/2013  20:05:00     -133.136      -80.883       -6.105       21.624       17.530       17.261      467.614      307.294      297.925        1.269        0.054      155.780       12.959        0.007      333.816        3.380      867.960
12/30/2013  20:06:00      -86.808      -61.079       -2.346       44.567       32.078       24.788     1986.223     1029.001      614.428        0.745        0.181      106.142       25.744        0.059      333.937        3.579      867.972
12/30/2013  20:07:00     -112.189      -84.424       -1.199       49.513       38.445       27.687     2451.544     1478.007      766.587        1.220        0.235      140.405       20.656        0.022      334.022        3.721      867.981
12/30/2013  20:08:00     -114.260      -68.911       -1.562       49.875       33.833       24.026     2487.500     1144.705      577.260        1.101        0.210      133.432       22.966        0.030      334.130        3.900      867.989
12/30/2013  20:09:00     -124.724      -44.097       -6.060       22.975       27.272       15.137      527.838      743.771      229.132        0.952        0.075      132.290        9.217        0.005      334.144        3.923      868.001
12/30/2013  20:10:00     -108.530      -15.425       -7.467       35.495       27.933       16.201     1259.865      780.226      262.482        0.719        0.115      109.621       14.945        0.019      334.066        3.794      868.002
12/30/2013  20:11:00      -84.740      -33.279       -4.664       21.437       14.214       12.666      459.536      202.040      160.431        0.457        0.041       91.041        9.122        0.010      334.037        3.745      867.991
12/30/2013  20:12:00      -94.361      -25.322       -7.769       18.634       19.161       14.840      347.244      367.153      220.225        0.527        0.047       97.699       11.882        0.015      334.078        3.813      867.996
12/30/2013  20:13:00     -118.000      -30.603      -15.713       19.970       16.507       13.037      398.819      272.468      169.962        0.797        0.042      121.903        9.520        0.006      333.968        3.633      868.023
12/30/2013  20:14:00      -73.426      -27.874       -4.198       40.900       22.760       18.188     1672.834      517.998      330.791        0.435        0.126       78.539       22.081        0.079      333.894        3.509      868.035
12/30/2013  20:15:00      -41.605      -13.114        8.312       26.268       28.234       21.010      690.028      797.164      441.403        0.195        0.096       43.623       10.407        0.057      333.964        3.624      868.019
12/30/2013  20:16:00      -35.378      -29.584        2.084       26.256       20.058       14.926      689.363      402.334      222.799        0.172        0.066       46.117       16.219        0.124      333.991        3.670      867.985
12/30/2013  20:17:00       16.267       -6.182       -1.083       13.161       13.569       10.030      173.222      184.115      100.604        0.038        0.023       17.402        8.125        0.218      334.020        3.716      867.941
12/30/2013  20:18:00        7.848       15.896        6.491        8.683       13.538       15.557       75.401      183.289      242.031        0.043        0.025       17.727        9.894        0.312      334.078        3.812      867.915
12/30/2013  20:19:00       51.186       36.932        1.187       15.100       13.675       16.158      228.002      187.004      261.083        0.233        0.034       63.119       10.640        0.028      334.082        3.822      867.904
12/30/2013  20:20:00       40.501       40.602        1.865       18.893       18.328       11.867      356.960      335.913      140.819        0.206        0.042       57.348        8.632        0.023      334.053        3.772      867.897
12/30/2013  20:21:00       19.513       27.473       -4.137        8.006       14.218        7.285       64.103      202.154       53.068        0.074        0.016       33.698        5.830        0.030      334.127        3.894      867.887
12/30/2013  20:22:00       11.310        5.431       -4.756       10.288        5.319        4.022      105.836       28.297       16.174        0.017        0.008       12.546        3.520        0.079      334.284        4.156      867.877
12/30/2013  20:23:00        0.824        0.205       -2.430        4.290        2.684        3.758       18.406        7.204       14.120        0.002        0.002        0.849        3.481       16.808      334.317        4.216      867.874
12/30/2013  20:24:00      -33.784        0.822       -2.480       17.711        9.055        5.057      313.688       81.995       25.571        0.078        0.021       33.794        4.223        0.016      334.183        3.989      867.873
12/30/2013  20:25:00      -56.139       -3.170       -6.427        5.358        7.017        4.336       28.704       49.239       18.804        0.165        0.005       56.229        2.494        0.002      334.129        3.896      867.890
12/30/2013  20:26:00      -60.984      -12.105       -8.135        7.370        7.571        6.228       54.310       57.322       38.787        0.204        0.008       62.174        1.806        0.001      334.069        3.799      867.911
12/30/2013  20:27:00      -48.549      -17.627      -11.355        8.016        8.231        5.288       64.257       67.756       27.965        0.148        0.008       51.650        2.445        0.002      334.030        3.736      867.920
12/30/2013  20:28:00      -25.694       -3.007       -2.363       17.974       10.197        5.849      323.073      103.974       34.210        0.057        0.023       25.869        7.008        0.073      334.158        3.946      867.911
12/30/2013  20:29:00      -11.786        0.773       -3.148        8.224        4.444        4.061       67.635       19.753       16.492        0.013        0.005       11.812        3.154        0.071      334.430        4.397      867.861
12/30/2013  20:30:00      -25.434      -10.694       -5.657       23.381       11.321        7.047      546.676      128.171       49.656        0.076        0.036       27.591        7.378        0.072      334.436        4.406      867.840
12/30/2013  20:31:00      -57.699      -20.180      -10.298        7.098        7.606        7.408       50.382       57.852       54.883        0.200        0.008       61.126        3.799        0.004      334.126        3.894      867.829
12/30/2013  20:32:00      -62.130      -18.691       -7.878       12.490       11.027        6.220      156.010      121.602       38.691        0.229        0.016       64.880        2.503        0.001      334.116        3.876      867.833
12/30/2013  20:33:00      -62.245      -25.554       -9.305       14.520       12.820        9.484      210.843      164.344       89.950        0.254        0.023       67.287        8.710        0.017      334.113        3.870      867.827
12/30/2013  20:34:00      -56.045       -8.655       -9.551        9.466        9.143        6.455       89.599       83.598       41.663        0.176        0.011       56.709        4.647        0.007      334.092        3.838      867.823
12/30/2013  20:35:00      -44.464       -5.770       -8.165        5.318        6.264        6.249       28.284       39.232       39.045        0.109        0.005       44.837        3.496        0.006      334.288        4.161      867.813
12/30/2013  20:36:00      -31.956       -4.805       -1.994       14.052        4.819        6.814      197.470       23.221       46.430        0.066        0.013       32.315        8.018        0.062      334.312        4.202      867.826
12/30/2013  20:37:00      -73.940       -6.713       -9.755       12.936        8.150        6.983      167.351       66.423       48.765        0.294        0.014       74.244        6.241        0.007      334.293        4.172      867.861
12/30/2013  20:38:00      -72.844      -20.776       -4.515       17.132       15.244       10.579      293.519      232.386      111.913        0.320        0.032       75.749        8.824        0.014      334.207        4.028      867.912
12/30/2013  20:39:00      -81.488      -37.047      -12.206       16.010       16.172       10.724      256.326      261.527      115.014        0.440        0.032       89.514        5.895        0.004      334.118        3.880      867.945
12/30/2013  20:40:00      -26.999      -36.718       -0.296       25.475       17.217       16.489      648.987      296.436      271.894        0.165        0.061       45.576       17.104        0.141      334.086        3.826      867.954
12/30/2013  20:41:00        3.709      -13.205       10.467       10.340       10.388        9.109      106.923      107.909       82.976        0.030        0.015       13.716        5.089        0.138      334.180        3.983      867.924
12/30/2013  20:42:00       -8.265       10.796        7.243        8.363       10.063        8.606       69.937      101.263       74.059        0.024        0.012       13.596        6.131        0.203      334.205        4.025      867.868
12/30/2013  20:43:00      -25.607        7.861       13.331       11.572       14.710       15.689      133.909      216.370      246.139        0.075        0.030       26.787       14.300        0.285      334.248        4.096      867.810
12/30/2013  20:44:00      -51.302      -10.494       -3.974        8.257       13.294        8.028       68.181      176.742       64.447        0.153        0.015       52.364        6.679        0.016      334.142        3.920      867.793
12/30/2013  20:45:00      -71.398      -27.464       -5.840       19.076       10.184        6.074      363.875      103.716       36.890        0.320        0.025       76.498        7.735        0.010      334.097        3.846      867.817
12/30/2013  20:46:00     -104.484      -53.016       -4.831       22.030       12.252       14.926      485.312      150.110      222.795        0.730        0.043      117.165       12.459        0.011      334.029        3.733      867.849
12/30/2013  20:47:00     -130.231      -45.680       -3.207       27.295       18.527       16.191      745.043      343.262      262.143        1.020        0.068      138.010       14.166        0.011      334.017        3.713      867.865
12/30/2013  20:48:00     -106.110      -45.093       -7.140       19.459       13.194        9.383      378.651      174.077       88.038        0.699        0.032      115.294        6.452        0.003      334.008        3.698      867.875
12/30/2013  20:49:00      -89.761      -43.561       -7.601       37.765       21.558       18.508     1426.158      464.726      342.556        0.612        0.112       99.773       22.166        0.049      334.090        3.833      867.885
12/30/2013  20:50:00      -91.069      -55.731        3.984       31.361       21.288       18.928      983.543      453.183      358.274        0.660        0.090      106.769       14.103        0.017      334.072        3.803      867.893
12/30/2013  20:51:00      -83.067      -48.183        4.779       46.652       26.058       19.684     2176.387      679.025      387.458        0.624        0.162       96.029       22.307        0.054      334.086        3.825      867.896
12/30/2013  20:52:00     -102.667      -53.198       -6.881       34.715       26.275       20.355     1205.111      690.391      414.323        0.786        0.115      115.631       18.493        0.026      334.066        3.794      867.883
12/30/2013  20:53:00      -72.683      -39.897        4.419       39.485       24.492       20.997     1559.074      599.879      440.882        0.475        0.130       82.913       16.682        0.040      334.053        3.772      867.862
12/30/2013  20:54:00      -65.683      -50.509        4.459       34.884       23.998       22.656     1216.897      575.922      513.287        0.460        0.115       82.857       17.487        0.045      334.049        3.766      867.841
12/30/2013  20:55:00      -38.977      -26.401        5.984       35.825       26.355       15.291     1283.463      694.582      233.813        0.223        0.111       47.077       15.399        0.107      334.103        3.856      867.820
12/30/2013  20:56:00      -73.846      -36.200       -3.497       19.653       19.006       15.134      386.251      361.223      229.043        0.388        0.049       82.242       12.635        0.024      334.054        3.774      867.809
12/30/2013  20:57:00      -88.467      -14.641       -2.876       21.105       15.323       10.002      445.440      234.807      100.049        0.441        0.039       89.670        4.300        0.002      334.060        3.783      867.801
12/30/2013  20:58:00      -81.137       -3.631       -5.034       22.715       19.913       13.903      515.984      396.533      193.300        0.386        0.055       81.218       11.288        0.019      334.037        3.746      867.813
12/30/2013  20:59:00      -60.276       -3.864       -6.916       17.883       18.407       14.526      319.786      338.828      211.001        0.228        0.043       60.400       10.820        0.032      333.965        3.627      867.826
12/30/2013  21:00:00      -39.224      -18.396       -5.398       24.711       16.717       13.931      610.619      279.454      194.075        0.149        0.054       43.324        9.042        0.044      333.999        3.684      867.851
12/30/2013  21:01:00      -42.149      -16.835       -8.056       17.318       15.803        9.863      299.904      249.745       97.276        0.139        0.032       45.386        6.870        0.023      334.019        3.717      867.876
12/30/2013  21:02:00      -79.789      -26.922      -14.596       22.680       24.078       16.811      514.404      579.759      282.623        0.434        0.069       84.209        9.766        0.013      333.944        3.593      867.894
12/30/2013  21:03:00      -92.790       -6.673       -5.003       38.265       26.594       18.885     1464.234      707.216      356.626        0.560        0.126       93.029       18.931        0.041      333.923        3.558      867.905
12/30/2013  21:04:00     -101.066      -17.533       -0.662       33.359       24.747       20.102     1112.798      612.432      404.077        0.633        0.106      102.576       17.866        0.030      333.836        3.410      867.920
12/30/2013  21:05:00      -78.745      -20.177        0.624       23.467       27.434       16.001      550.702      752.624      256.036        0.408        0.078       81.288       14.642        0.032      333.846        3.429      867.922
12/30/2013  21:06:00      -31.005        1.140       -2.212       25.094       15.477       14.766      629.712      239.527      218.042        0.103        0.054       31.026       14.321        0.213      333.877        3.482      867.906
12/30/2013  21:07:00      -46.010       -5.331      -13.087       12.149       11.943       12.300      147.608      142.627      151.301        0.138        0.022       46.318        7.511        0.026      333.886        3.497      867.888
12/30/2013  21:08:00      -33.272      -20.437       -9.712       13.038       10.826        9.716      169.992      117.202       94.398        0.100        0.019       39.047        5.998        0.024      334.004        3.690      867.886
12/30/2013  21:09:00      -18.039      -14.489      -13.701       12.002        9.032        5.657      144.051       81.569       32.006        0.049        0.013       23.138        4.395        0.036      334.120        3.882      867.898
12/30/2013  21:10:00       -8.280      -20.206       -3.707       16.269        8.316       10.635      264.669       69.150      113.105        0.047        0.022       21.837       10.997        0.254      334.204        4.024      867.906
12/30/2013  21:11:00       -9.541       -2.455        7.148       14.005        6.061        7.404      196.143       36.730       54.825        0.022        0.014        9.852        7.717        0.614      334.178        3.979      867.895
12/30/2013  21:12:00      -31.350      -13.159       -3.476       14.557       14.452        8.529      211.915      208.867       72.738        0.083        0.025       34.000        7.603        0.050      334.027        3.729      867.883
12/30/2013  21:13:00      -76.373      -44.974       -6.449       19.255       10.183        9.871      370.736      103.694       97.436        0.423        0.029       88.631        6.694        0.006      334.037        3.747      867.884
12/30/2013  21:14:00      -94.546      -47.804       -9.608       20.179       13.671       11.902      407.186      186.886      141.654        0.603        0.037      105.944        6.800        0.004      333.962        3.620      867.888
12/30/2013  21:15:00      -78.842      -43.125       -8.110       16.028       10.441        8.547      256.907      109.013       73.056        0.429        0.022       89.865        7.857        0.008      333.986        3.662      867.888
12/30/2013  21:16:00      -94.840      -37.545      -11.188       12.842       11.085       10.121      164.905      122.868      102.441        0.546        0.020      102.001        6.177        0.004      334.012        3.705      867.889
12/30/2013  21:17:00     -114.784      -31.224       -8.159       22.905       15.990       12.754      524.645      255.665      162.666        0.758        0.047      118.955       12.563        0.011      333.969        3.633      867.907
12/30/2013  21:18:00     -107.802      -34.595       -4.837       26.215       15.233       12.147      687.242      232.053      147.546        0.695        0.053      113.217       11.214        0.010      333.915        3.544      867.914
12/30/2013  21:19:00      -69.059      -16.077       -3.659       14.194       19.747       10.662      201.479      389.961      113.684        0.287        0.035       70.905        4.968        0.005      333.917        3.547      867.916
12/30/2013  21:20:00      -76.377       -0.105      -11.897       16.525       18.309       12.778      273.060      335.236      163.269        0.337        0.039       76.377        7.777        0.010      334.155        3.942      867.908
12/30/2013  21:21:00      -39.164      -10.992        1.136       20.134       21.718       14.381      405.371      471.674      206.803        0.137        0.054       40.677       10.955        0.073      334.209        4.030      867.922
12/30/2013  21:22:00      -44.874      -17.427       -4.320       21.041       18.883       11.358      442.738      356.580      129.002        0.163        0.046       48.139        6.998        0.021      334.163        3.955      867.954
12/30/2013  21:23:00      -31.385      -15.355       -6.957       25.727       18.840        9.640      661.860      354.963       92.926        0.119        0.055       34.940        9.298        0.071      334.122        3.886      867.989
12/30/2013  21:24:00      -28.936      -11.163       -5.611       11.519       13.619       10.490      132.694      185.477      110.033        0.071        0.021       31.014        7.922        0.065      334.187        3.994      867.987
12/30/2013  21:25:00        1.484        4.528       -0.753       13.202       10.990        7.924      174.302      120.791       62.790        0.019        0.018        4.765        7.091        2.215      334.410        4.365      867.959
12/30/2013  21:26:00       34.063       13.546        1.667       22.117       23.415       14.523      489.145      548.276      210.928        0.130        0.062       36.658       11.640        0.101      334.454        4.437      867.927
12/30/2013  21:27:00       25.323        5.495        4.791       22.765       13.201       11.821      518.251      174.279      139.737        0.076        0.042       25.912        9.875        0.145      334.235        4.075      867.908
12/30/2013  21:28:00       14.910       12.928        9.506       23.844       14.538       15.857      568.529      211.347      251.448        0.076        0.052       19.734       10.856        0.303      334.106        3.860      867.903
12/30/2013  21:29:00       19.800       11.092        2.427       20.075        8.739       17.041      402.998       76.375      290.404        0.065        0.038       22.695        6.938        0.093      334.001        3.689      867.912
12/30/2013  21:30:00       -1.295       59.831       -6.901       21.428       26.284       10.493      459.178      690.853      110.107        0.244        0.063       59.845       10.834        0.033      334.032        3.739      867.954
12/30/2013  21:31:00      -11.113       82.625       -3.363       15.071       27.819       18.078      227.127      773.907      326.812        0.414        0.066       83.369       18.314        0.048      334.215        4.043      867.998
12/30/2013  21:32:00       -0.727      101.952       -7.855       22.058       25.750       14.083      486.549      663.074      198.334        0.590        0.067      101.955        7.509        0.005      334.352        4.269      868.021
12/30/2013  21:33:00       20.686       90.526      -11.517       16.379       39.437       17.692      268.262     1555.304      313.020        0.545        0.107       92.860       20.196        0.047      334.221        4.051      868.019
12/30/2013  21:34:00       30.087       93.502      -13.541       20.769       32.241       19.430      431.344     1039.489      377.522        0.584        0.092       98.223       18.445        0.035      334.202        4.019      868.012
12/30/2013  21:35:00       30.641       65.191       -9.420       18.579       39.108       16.930      345.169     1529.471      286.628        0.372        0.108       72.033       20.845        0.084      334.233        4.071      868.022
12/30/2013  21:36:00       25.447       69.162       -9.042       20.181       25.937       11.036      407.255      672.744      121.793        0.336        0.060       73.695       11.118        0.023      334.247        4.094      868.020
12/30/2013  21:37:00       14.561      114.477      -19.830       17.184       16.168        8.369      295.299      261.407       70.044        0.717        0.031      115.400        9.100        0.006      334.289        4.165      868.024
12/30/2013  21:38:00       25.261       77.301       -4.536       29.834       41.521       33.861      890.065     1723.994     1146.596        0.520        0.188       81.324       31.408        0.149      334.222        4.053      868.008
12/30/2013  21:39:00       20.683      108.078      -14.574       28.705       30.380       17.121      823.995      922.964      293.121        0.718        0.102      110.039       14.367        0.017      334.183        3.987      867.982
12/30/2013  21:40:00       11.206      121.541      -22.587       14.757       23.382       11.351      217.766      546.705      128.846        0.815        0.045      122.056       10.377        0.007      334.209        4.030      867.960
12/30/2013  21:41:00      -23.942      117.659      -20.396       11.236       14.185       10.234      126.249      201.200      104.729        0.763        0.022      120.071        7.467        0.004      334.401        4.350      867.957
12/30/2013  21:42:00      -18.842       80.553       -4.648       24.970       31.639       13.549      623.491     1001.042      183.565        0.434        0.090       82.728        5.334        0.004      334.587        4.658      867.959
12/30/2013  21:43:00      -39.850       69.863       -8.394       20.850       21.553       14.007      434.741      464.546      196.201        0.382        0.055       80.430       10.707        0.018      334.512        4.534      867.964
12/30/2013  21:44:00      -33.862       90.570      -15.126       21.604       25.119       14.482      466.715      630.956      209.721        0.544        0.065       96.693       14.072        0.021      334.674        4.803      867.973
12/30/2013  21:45:00      -32.833       31.954       -7.034       16.331       25.111       13.352      266.705      630.548      178.273        0.161        0.054       45.815        5.646        0.015      334.668        4.791      867.990
12/30/2013  21:46:00      -49.988      -24.828       -9.634       14.380       16.483        7.328      206.791      271.688       53.701        0.187        0.027       55.814        4.761        0.007      334.185        3.989      868.016
12/30/2013  21:47:00      -93.938      -37.732      -15.178        9.795       13.025        8.220       95.950      169.662       67.563        0.541        0.017      101.233        6.957        0.005      333.973        3.641      868.042
12/30/2013  21:48:00     -104.657      -37.178      -18.945       11.959       10.044        7.029      143.007      100.876       49.406        0.649        0.015      111.064        5.330        0.002      334.020        3.719      868.058
12/30/2013  21:49:00     -108.249      -38.737      -20.402       18.591       11.712        7.488      345.627      137.162       56.071        0.709        0.027      114.972        6.315        0.003      334.033        3.739      868.062
12/30/2013  21:50:00      -50.760      -65.583       -2.216       30.212       20.531       25.615      912.747      421.505      656.128        0.444        0.100       82.932       24.710        0.089      333.902        3.521      868.051
12/30/2013  21:51:00      -44.653      -30.596       -1.258       25.054       17.221       12.488      627.715      296.565      155.938        0.201        0.054       54.129        9.152        0.029      333.950        3.603      868.041
12/30/2013  21:52:00      -51.485      -24.431       -2.314       20.349       15.600       14.611      414.062      243.368      213.482        0.206        0.044       56.988       13.872        0.059      333.988        3.665      868.034
12/30/2013  21:53:00      -69.649      -42.432       -8.193       20.510       21.646       13.211      420.649      468.539      174.526        0.389        0.053       81.556       12.560        0.024      334.017        3.713      868.037
12/30/2013  21:54:00      -94.039      -54.388      -12.528       16.489       20.942       15.969      271.873      438.549      255.019        0.646        0.048      108.634       11.742        0.012      334.009        3.698      868.048
12/30/2013  21:55:00     -100.133      -39.084       -4.024       19.720       19.840       12.050      388.860      393.611      145.192        0.625        0.046      107.491       11.996        0.012      333.938        3.581      868.052
12/30/2013  21:56:00      -75.313      -23.590       -2.150       13.353       14.071        9.985      178.295      197.985       99.708        0.335        0.024       78.921        5.320        0.005      333.950        3.602      868.050
12/30/2013  21:57:00      -71.696      -34.743       -4.816        8.795        7.108        5.676       77.357       50.520       32.220        0.327        0.008       79.671        1.839        0.001      334.017        3.713      868.042
12/30/2013  21:58:00      -50.632      -22.754       -0.107       16.527       12.139       10.040      273.132      147.363      100.796        0.180        0.026       55.510       10.671        0.037      334.095        3.842      868.034
12/30/2013  21:59:00      -23.046      -19.989       -1.584        7.984        6.872        5.490       63.740       47.230       30.141        0.054        0.007       30.507        2.262        0.005      334.158        3.946      868.018
12/30/2013  22:00:00       -6.447      -14.946       -1.451        5.782        4.914        3.766       33.435       24.147       14.186        0.017        0.004       16.278        1.390        0.007      334.286        4.161      868.006
12/30/2013  22:01:00      -17.544      -21.114       -2.059       13.326        6.192        8.750      177.585       38.346       76.568        0.053        0.015       27.452        8.506        0.096      334.372        4.303      867.999
12/30/2013  22:02:00      -48.274      -16.948       -6.436        9.821        5.516        4.732       96.449       30.429       22.396        0.140        0.007       51.162        4.967        0.009      334.175        3.975      867.991
12/30/2013  22:03:00      -50.766      -26.773       -7.599       10.339        6.070        5.756      106.899       36.849       33.129        0.176        0.009       57.393        4.243        0.005      334.008        3.697      867.980
12/30/2013  22:04:00      -60.276      -34.830       -2.867       15.776       10.621       10.876      248.886      112.813      118.285        0.267        0.024       69.616       10.789        0.024      334.032        3.736      867.957
12/30/2013  22:05:00      -18.755      -19.032        2.640       29.897       12.430       11.445      893.819      154.495      130.997        0.095        0.059       26.721       10.544        0.156      334.037        3.746      867.927
12/30/2013  22:06:00       -7.074      -33.099        0.543       15.527       10.575       10.569      241.090      111.841      111.698        0.081        0.023       33.847        8.997        0.071      334.058        3.781      867.905
12/30/2013  22:07:00      -78.909      -46.753       -8.997       26.294       14.909        9.676      691.382      222.264       93.622        0.475        0.050       91.720        5.934        0.004      334.003        3.690      867.887
12/30/2013  22:08:00      -74.486      -54.211        2.372       47.062       29.490       23.407     2214.842      869.665      547.880        0.606        0.182       92.125       21.672        0.055      333.899        3.517      867.889
12/30/2013  22:09:00      -97.178      -67.498        1.401       53.080       44.854       32.110     2817.467     2011.863     1031.062        0.993        0.293      118.320       31.429        0.071      334.073        3.806      867.909
12/30/2013  22:10:00      -83.889      -86.631        9.173       57.584       56.757       28.271     3315.922     3221.364      799.259        1.098        0.367      120.591       35.200        0.085      334.075        3.807      867.912
12/30/2013  22:11:00     -131.512      -84.287       -6.090       46.502       32.203       22.845     2162.420     1037.047      521.904        1.408        0.186      156.204       26.751        0.029      334.084        3.823      867.899
12/30/2013  22:12:00     -113.212      -69.452       -6.848       22.024       23.395       18.095      485.045      547.321      327.437        0.952        0.068      132.818       14.269        0.012      334.119        3.881      867.883
12/30/2013  22:13:00      -87.622      -25.699       -8.813       18.482       14.518       10.650      341.584      210.782      113.418        0.454        0.033       91.313        4.040        0.002      334.193        4.005      867.869
12/30/2013  22:14:00      -87.840      -27.695      -13.211       20.194       19.346       13.361      407.785      374.266      178.523        0.481        0.048       92.103        8.258        0.008      334.296        4.176      867.876
12/30/2013  22:15:00      -26.275      -44.341       -0.434       22.704       17.820       14.492      515.468      317.546      210.008        0.185        0.052       51.541        7.919        0.024      334.188        3.997      867.873
12/30/2013  22:16:00      -51.581      -59.953        0.072       34.970       42.122       24.142     1222.882     1774.294      582.824        0.492        0.179       79.088       21.417        0.073      334.144        3.923      867.853
12/30/2013  22:17:00      -35.128      -58.100       11.727       42.164       34.437       31.201     1777.769     1185.913      973.474        0.434        0.197       67.894       19.559        0.083      334.111        3.869      867.814
12/30/2013  22:18:00      -85.934      -47.273       -1.477       51.298       40.087       31.779     2631.520     1606.978     1009.898        0.743        0.262       98.079       26.164        0.071      333.986        3.661      867.779
12/30/2013  22:19:00     -131.342     -110.465      -10.791       34.706       27.720       20.129     1204.541      768.395      405.184        1.597        0.119      171.620       14.321        0.007      333.907        3.529      867.754
12/30/2013  22:20:00      -58.699      -65.273        9.103       73.149       59.336       32.941     5350.749     3520.734     1085.129        0.887        0.498       87.785       38.520        0.193      333.895        3.511      867.751
12/30/2013  22:21:00      -85.230      -58.602        1.853       72.233       41.336       41.935     5217.670     1708.660     1758.524        0.969        0.434      103.432       33.300        0.104      333.813        3.373      867.768
12/30/2013  22:22:00      -45.703      -35.836       12.094       59.102       33.941       22.441     3493.071     1152.021      503.594        0.433        0.257       58.077       19.385        0.111      333.803        3.356      867.767
12/30/2013  22:23:00      -38.838      -47.643        5.862       42.929       30.277       25.318     1842.897      916.683      640.990        0.361        0.170       61.467       22.165        0.130      333.756        3.280      867.738
12/30/2013  22:24:00      -32.097     -109.612        2.931       30.861       23.755       19.343      952.400      564.286      374.151        0.747        0.095      114.214       17.541        0.024      333.861        3.454      867.692
12/30/2013  22:25:00      -63.952      -92.211        2.532       36.343       43.297       22.236     1320.835     1874.614      494.424        0.814        0.184      112.217       15.454        0.019      333.971        3.636      867.652
12/30/2013  22:26:00     -112.635      -78.002        2.828       56.529       45.291       27.546     3195.570     2051.262      758.771        1.239        0.300      137.007       25.539        0.035      333.948        3.597      867.652
12/30/2013  22:27:00     -130.657      -71.902        2.685       63.107       36.369       28.680     3982.451     1322.682      822.526        1.419        0.306      149.135       28.997        0.038      333.942        3.587      867.662
12/30/2013  22:28:00     -116.579      -43.641        1.717       41.737       32.631       20.729     1741.971     1064.787      429.705        0.937        0.162      124.480       19.227        0.024      333.909        3.534      867.655
12/30/2013  22:29:00     -118.199      -27.272       -5.272       37.611       30.375       22.064     1414.597      922.663      486.818        0.878        0.141      121.305       18.494        0.023      333.815        3.377      867.661
12/30/2013  22:30:00     -124.569      -44.334       -1.468       39.974       46.648       25.131     1597.952     2176.013      631.557        1.094        0.220      132.223       25.326        0.037      333.856        3.446      867.688
12/30/2013  22:31:00     -134.569      -46.981       -4.900       43.004       23.199       19.584     1849.322      538.201      383.527        1.156        0.139      142.534       21.378        0.022      333.812        3.373      867.715
12/30/2013  22:32:00     -120.905      -40.063       -1.769       23.852       35.379       14.365      568.900     1251.705      206.342        0.913        0.101      127.369        9.175        0.005      333.788        3.332      867.707
12/30/2013  22:33:00      -70.300      -21.525        0.716       26.652       25.160       15.185      710.317      633.035      230.595        0.349        0.079       73.521       13.066        0.032      333.758        3.281      867.684
12/30/2013  22:34:00      -81.710       -7.353       -8.081       18.035       18.576       12.680      325.270      345.076      160.785        0.381        0.042       82.041       11.318        0.019      333.743        3.257      867.649
12/30/2013  22:35:00      -97.877        0.927       -9.090       12.095       11.444       12.910      146.298      130.974      166.656        0.505        0.022       97.881        7.484        0.006      333.781        3.320      867.615
12/30/2013  22:36:00      -81.967       14.089       -1.871       22.962       30.183       16.715      527.235      911.011      279.386        0.432        0.086       83.169       14.357        0.030      334.077        3.813      867.606
12/30/2013  22:37:00      -48.488       -0.669        1.217       29.887       27.224       18.350      893.246      741.122      336.732        0.216        0.099       48.493       16.852        0.121      334.063        3.789      867.629
12/30/2013  22:38:00      -24.759       -2.762       -6.837       16.682       23.124       12.310      278.286      534.739      151.542        0.082        0.048       24.912       10.604        0.181      333.949        3.601      867.688
12/30/2013  22:39:00      -47.206      -10.326       -1.591       28.261       22.336       14.384      798.682      498.919      206.901        0.192        0.075       48.322       10.033        0.043      333.851        3.437      867.735
12/30/2013  22:40:00       -1.102      -21.587       -0.488       34.207       12.489       14.308     1170.094      155.978      204.722        0.100        0.077       21.615       13.180        0.372      333.815        3.379      867.716
12/30/2013  22:41:00       36.202       16.609       18.036       10.152       23.217       13.358      103.062      539.029      178.440        0.137        0.041       39.830       14.993        0.142      333.827        3.398      867.642
12/30/2013  22:42:00       41.760       32.866        9.781       22.833       15.609       22.940      521.366      243.626      526.263        0.211        0.065       53.142       16.799        0.100      333.738        3.250      867.565
12/30/2013  22:43:00       11.418       44.003       29.531       13.383       14.545       14.699      179.096      211.549      216.074        0.177        0.030       45.460        9.906        0.047      333.784        3.326      867.545
12/30/2013  22:44:00       -0.368       22.296        7.775        9.814        5.226        9.440       96.311       27.307       89.105        0.039        0.011       22.299        7.735        0.120      333.827        3.395      867.581
12/30/2013  22:45:00      -44.158       21.514       -4.626       17.278       10.829        9.973      298.528      117.271       99.452        0.147        0.026       49.120        7.078        0.021      333.825        3.394      867.660
12/30/2013  22:46:00      -70.230       35.621      -12.821       18.544       21.543       11.127      343.866      464.090      123.800        0.365        0.047       78.747        7.599        0.009      333.810        3.369      867.744
12/30/2013  22:47:00      -74.862        5.164       -6.071       21.447       18.639       10.480      459.994      347.403      109.820        0.329        0.046       75.040        7.333        0.010      333.759        3.284      867.805
12/30/2013  22:48:00      -46.453      -31.884       -4.125       24.660       19.328       10.933      608.093      373.575      119.526        0.215        0.055       56.342        9.492        0.028      333.762        3.289      867.828
12/30/2013  22:49:00       -5.104      -30.176        2.270       11.437       10.024       10.479      130.806      100.483      109.806        0.064        0.017       30.605        5.763        0.035      333.925        3.560      867.821
12/30/2013  22:50:00       -0.994      -19.789       10.851        5.365        9.331        8.365       28.783       87.060       69.974        0.035        0.009       19.814        2.087        0.011      334.016        3.712      867.802
12/30/2013  22:51:00       -0.800       -1.195        3.045        2.767        4.541        4.425        7.655       20.625       19.579        0.003        0.002        1.438        1.751        1.484      334.027        3.727      867.786
12/30/2013  22:52:00        6.616        8.729        6.808        7.120       10.860        7.723       50.701      117.935       59.640        0.020        0.011       10.953        5.540        0.256      334.003        3.690      867.765
12/30/2013  22:53:00       21.988       46.607       -5.839        6.701        7.072        7.283       44.898       50.020       53.043        0.142        0.007       51.533        5.969        0.013      333.911        3.537      867.734
12/30/2013  22:54:00       11.364       24.448       -0.835       10.023       10.271        8.216      100.457      105.497       67.507        0.050        0.014       26.960        6.269        0.054      333.901        3.519      867.701
12/30/2013  22:55:00        3.261       12.710       -3.557        3.126        6.354        3.378        9.773       40.367       11.409        0.012        0.003       13.122        2.078        0.025      333.990        3.668      867.702
12/30/2013  22:56:00       10.836       32.885       -2.164        6.030       17.162        4.500       36.365      294.539       20.251        0.078        0.018       34.625        4.409        0.016      334.058        3.778      867.711
12/30/2013  22:57:00       -5.711       53.083       -7.228        9.713       10.279        5.669       94.340      105.664       32.132        0.157        0.012       53.389        6.689        0.016      334.025        3.724      867.735
12/30/2013  22:58:00      -34.716       51.331       -1.891       31.076       30.463       16.206      965.714      928.005      262.630        0.300        0.108       61.968        8.324        0.018      334.098        3.846      867.770
12/30/2013  22:59:00      -55.312       -9.582       -7.286       20.036       24.550        9.594      401.434      602.680       92.046        0.215        0.055       56.136        7.795        0.019      333.721        3.221      867.802
12/30/2013  23:00:00        0.225      -21.614        1.597       18.922       14.399       10.062      358.037      207.318      101.236        0.057        0.033       21.615       11.210        0.269      333.655        3.112      867.791
12/30/2013  23:01:00       16.650        7.813        2.695       12.959        9.858       11.569      167.943       97.184      133.835        0.037        0.020       18.392        6.958        0.143      334.296        4.175      867.756
12/30/2013  23:02:00      -12.176      -19.628        1.060        9.304       10.486        9.920       86.565      109.964       98.415        0.041        0.015       23.098        7.748        0.113      334.182        3.986      867.734
12/30/2013  23:03:00       -8.089      -13.446        2.872       17.840       10.393       11.277      318.260      108.014      127.175        0.040        0.028       15.692        7.162        0.208      334.011        3.701      867.733
12/30/2013  23:04:00      -47.950      -21.484       -4.000       13.737        9.222        9.904      188.693       85.043       98.087        0.157        0.019       52.542        5.378        0.010      333.781        3.322      867.758
12/30/2013  23:05:00      -67.710      -30.396      -11.927       11.171        9.079        9.201      124.799       82.431       84.664        0.297        0.015       74.220        5.813        0.006      333.819        3.385      867.792
12/30/2013  23:06:00      -83.455      -15.924       -9.319       17.652       19.753        8.535      311.594      390.189       72.842        0.404        0.039       84.961        5.250        0.004      333.783        3.326      867.815
12/30/2013  23:07:00      -47.750       12.820       -8.646       18.774       10.971        7.185      352.472      120.362       51.629        0.152        0.026       49.441        7.732        0.024      333.778        3.315      867.825
12/30/2013  23:08:00      -21.048       20.104       -6.048       17.299       10.668        7.439      299.256      113.812       55.337        0.068        0.023       29.107        3.977        0.019      333.893        3.506      867.838
12/30/2013  23:09:00        7.655       39.367        6.083       22.596       28.695       17.791      510.579      823.430      316.513        0.165        0.083       40.105       15.391        0.147      334.123        3.888      867.845
12/30/2013  23:10:00       30.620       35.590        2.886       30.436       34.126       25.307      926.346     1164.617      640.420        0.247        0.137       46.949       23.787        0.257      333.983        3.656      867.844
12/30/2013  23:11:00       14.708       72.903       -9.876       27.496       32.207       19.145      756.041     1037.282      366.530        0.389        0.108       74.372       15.251        0.042      333.921        3.554      867.850
12/30/2013  23:12:00       -0.023      112.201      -19.198       23.119       19.509       11.511      534.479      380.620      132.504        0.700        0.052      112.201        9.603        0.007      333.981        3.653      867.873
12/30/2013  23:13:00      -13.070      122.700      -16.127       13.563       13.982        6.871      183.963      195.509       47.205        0.796        0.021      123.394        4.459        0.001      334.093        3.837      867.875
12/30/2013  23:14:00        9.152      112.852      -15.187       17.982       14.743        6.472      323.357      217.367       41.885        0.682        0.029      113.222        5.417        0.002      334.115        3.876      867.864
12/30/2013  23:15:00       22.462       89.884      -11.012       19.548       31.307       16.654      382.125      980.148      277.365        0.517        0.082       92.648       18.849        0.041      334.060        3.784      867.809
12/30/2013  23:16:00       28.673       29.804       -5.634       17.389       22.692       16.040      302.370      514.916      257.273        0.141        0.054       41.357       14.681        0.126      333.949        3.600      867.757
12/30/2013  23:17:00       18.261       13.592       -3.591       15.225       14.620        9.909      231.795      213.738       98.195        0.054        0.027       22.764        6.496        0.081      333.919        3.550      867.745
12/30/2013  23:18:00      -38.637       -1.903       -5.477       34.264       18.574        9.050     1174.032      345.011       81.899        0.156        0.080       38.684       11.597        0.090      333.768        3.299      867.777
12/30/2013  23:19:00      -92.157      -26.788      -10.251       16.285       15.259        9.603      265.185      232.831       92.210        0.495        0.030       95.971        7.233        0.006      333.423        2.728      867.819
12/30/2013  23:20:00      -60.647        4.105       -9.522       10.267        9.878       10.731      105.413       97.574      115.154        0.205        0.016       60.786        7.443        0.015      333.522        2.890      867.818
12/30/2013  23:21:00      -28.122        1.907       -0.194       12.195        4.702        7.652      148.727       22.113       58.556        0.051        0.011       28.187        5.893        0.044      333.629        3.069      867.778
12/30/2013  23:22:00       12.324       35.257       -7.649       13.441       14.899        7.883      180.657      221.973       62.144        0.096        0.023       37.348        9.908        0.070      334.058        3.780      867.735
12/30/2013  23:23:00      -40.718      -16.633       -5.572       22.707       40.571       18.423      515.589     1646.018      339.403        0.223        0.125       43.984       10.717        0.059      333.683        3.159      867.720
12/30/2013  23:24:00      -71.271      -58.203      -10.270       21.373       19.984       17.034      456.799      399.345      290.147        0.486        0.057       92.017        5.293        0.003      333.339        2.590      867.736
12/30/2013  23:25:00     -100.592      -44.983       -3.089       26.186       19.257       12.615      685.727      370.827      159.128        0.668        0.061      110.191       12.572        0.013      333.334        2.582      867.741
12/30/2013  23:26:00     -103.466      -26.723       -7.374       18.783       16.526       11.508      352.815      273.122      132.437        0.612        0.038      106.861        8.028        0.006      333.362        2.626      867.742
12/30/2013  23:27:00     -117.792      -38.033      -16.861       14.434       12.560       10.693      208.333      157.758      114.336        0.804        0.024      123.780        8.626        0.005      333.385        2.665      867.733
12/30/2013  23:28:00     -124.065      -42.527      -21.404       16.991       16.073       12.961      288.692      258.336      167.988        0.919        0.036      131.151        9.643        0.005      333.592        3.007      867.731
12/30/2013  23:29:00     -132.809      -24.763      -15.991       23.019       24.976       17.666      529.882      623.820      312.084        0.999        0.073      135.098       14.006        0.011      333.715        3.209      867.750
12/30/2013  23:30:00      -85.212      -36.338       -3.429       38.555       24.719       20.689     1486.492      611.047      428.048        0.556        0.126       92.637       19.361        0.044      333.647        3.100      867.781
12/30/2013  23:31:00      -59.908      -29.027        1.028       49.866       29.209       18.147     2486.570      853.160      329.301        0.405        0.183       66.570       21.330        0.103      333.454        2.780      867.794
12/30/2013  23:32:00        3.576      -31.040       16.154       19.405       15.581       15.839      376.572      242.777      250.875        0.105        0.044       31.245        9.780        0.098      333.408        2.704      867.790
12/30/2013  23:33:00      -14.612      -37.865        1.691       17.406       14.583        8.852      302.957      212.661       78.356        0.112        0.030       40.586        6.459        0.025      333.630        3.069      867.767
12/30/2013  23:34:00       -8.769      -33.060       -0.936        7.606        6.936        8.155       57.851       48.107       66.506        0.067        0.009       34.203        4.826        0.020      333.918        3.548      867.750
12/30/2013  23:35:00      -43.928      -30.637       -1.503       17.149        8.034        4.814      294.078       64.551       23.177        0.163        0.019       53.557        4.416        0.007      333.774        3.310      867.737
12/30/2013  23:36:00      -58.690      -27.586       -7.922       12.972       12.996        7.807      168.282      168.906       60.955        0.233        0.020       64.850        3.961        0.004      333.485        2.829      867.731
12/30/2013  23:37:00      -59.483      -36.951       -6.896        8.796        9.105        8.394       77.376       82.905       70.460        0.259        0.012       70.026        1.905        0.001      333.624        3.059      867.714
12/30/2013  23:38:00      -60.690      -26.027       -8.087        8.891        8.020        6.472       79.058       64.324       41.891        0.231        0.009       66.036        4.378        0.004      333.614        3.045      867.706
12/30/2013  23:39:00      -46.919      -29.022       -5.990        9.322        7.994        5.067       86.895       63.898       25.676        0.163        0.009       55.170        2.993        0.003      333.651        3.105      867.716
12/30/2013  23:40:00      -34.908      -15.756       -4.758        4.804        5.009        3.553       23.079       25.091       12.621        0.078        0.003       38.299        0.830        0.000      333.617        3.050      867.743
12/30/2013  23:41:00      -30.194      -16.980       -5.229        6.895        4.514        4.461       47.545       20.379       19.904        0.066        0.004       34.641        3.718        0.012      333.727        3.232      867.762
12/30/2013  23:42:00      -56.446      -14.728      -10.236        8.979        5.905        5.127       80.626       34.866       26.291        0.182        0.007       58.336        4.415        0.006      333.628        3.068      867.764
12/30/2013  23:43:00      -58.952      -11.555       -5.442        9.466       11.075        6.968       89.597      122.652       48.559        0.195        0.013       60.074        5.621        0.009      333.428        2.734      867.767
12/30/2013  23:44:00      -52.319        6.400       -0.349       17.988       13.154       10.439      323.551      173.026      108.973        0.169        0.030       52.709        6.513        0.015      333.426        2.733      867.747
12/30/2013  23:45:00        5.573       27.114        7.114       22.891       24.694       20.479      523.981      609.772      419.396        0.118        0.078       27.680       16.526        0.356      333.418        2.717      867.719
12/30/2013  23:46:00        3.551       52.842      -13.855       10.966       14.454        6.539      120.260      208.906       42.760        0.168        0.019       52.961        5.063        0.009      333.485        2.830      867.714
12/30/2013  23:47:00        2.588       19.333       -7.711       10.120       11.647        5.948      102.422      135.654       35.377        0.036        0.014       19.505        6.990        0.128      333.542        2.926      867.717
12/30/2013  23:48:00      -30.462      -12.732       -4.194       11.350        7.752        6.147      128.819       60.099       37.782        0.067        0.011       33.015        3.256        0.010      333.563        2.959      867.728
12/30/2013  23:49:00      -35.772      -25.214       -6.324        6.296       11.239        6.018       39.645      126.305       36.221        0.108        0.010       43.765        4.600        0.011      333.475        2.812      867.741
12/30/2013  23:50:00      -58.891       -2.785       -6.789       18.258        8.147        6.322      333.358       66.375       39.972        0.198        0.022       58.957        5.528        0.009      333.416        2.716      867.722
12/30/2013  23:51:00      -92.641      -25.134      -11.533       17.912       20.836       12.132      320.837      434.119      147.177        0.512        0.045       95.990        8.200        0.007      333.265        2.465      867.689
12/30/2013  23:52:00     -122.830      -60.822       -9.272       20.312       23.070       13.482      412.577      532.214      181.763        1.000        0.056      137.065       11.051        0.007      333.198        2.355      867.671
12/30/2013  23:53:00      -14.263      -39.400       12.671       37.356       17.029       22.110     1395.473      289.994      488.836        0.204        0.109       41.902       21.062        0.253      333.307        2.537      867.667
12/30/2013  23:54:00      -38.054      -32.394       -2.158       25.672       14.267       12.203      659.030      203.557      148.923        0.176        0.051       49.974       14.394        0.083      333.338        2.587      867.671
12/30/2013  23:55:00      -95.050      -34.797      -10.065        9.516       10.283        6.022       90.553      105.743       36.270        0.529        0.012      101.219        3.072        0.001      333.340        2.590      867.676
12/30/2013  23:56:00      -88.487      -26.057      -11.755       16.361       14.664       10.651      267.682      215.035      113.437        0.462        0.030       92.244        3.317        0.001      333.401        2.693      867.675
12/30/2013  23:57:00      -42.287      -23.009       -4.247       20.717       15.964        6.988      429.182      254.837       48.832        0.153        0.037       48.142        7.887        0.027      333.382        2.659      867.643
12/30/2013  23:58:00      -18.187      -12.450       -3.943        8.271        7.366        5.972       68.411       54.264       35.665        0.033        0.008       22.041        3.453        0.025      333.378        2.653      867.635
12/30/2013  23:59:00      -39.261      -28.728       -5.640       21.004       10.954       12.695      441.185      119.984      161.163        0.156        0.036       48.649       13.984        0.083      333.443        2.759      867.674
